[[{"header":{"parameterUnit":"m.s-1","parameterCategory":1,"la1":31.0,"la2":29.5877,"lo1":-88.7671,"lo2":-86.6584,"dy":0.0162,"dx":0.0185,"nx":115,"ny":88,"refTime":"2024-06-29T18:00:00:Z","depth":0,"parameterNumber":2,"parameterNumberName":"U-component_of_WINDS"},"data":[0.0,0.0,0.0,0.0,0.0,0.0,0.0,0.0,0.0,0.0,0.0,0.0,0.0,0.0,0.0,0.0,0.0,0.0,0.0,0.0,0.0,0.0,0.0,0.0,0.0,0.0,0.0,0.0,0.0,0.0,0.0,0.0,0.0,0.0,0.0,0.0,0.0,0.0,0.0,0.0,0.0,0.0,0.0,0.0,0.0,0.0,0.0,0.0,0.0,0.0,0.0,0.0,0.0,0.0,0.0,0.0,0.0,0.0,0.0,0.0,0.0,0.0,0.0,0.0,0.0,0.0,0.0,0.0,0.0,0.0,0.0,0.0,0.0,0.0,0.0,0.0,0.0,0.0,0.0,0.0,0.0,0.0,0.0,0.0,0.0,0.0,0.0,0.0,0.0,0.0,0.0,0.0,0.0,0.0,0.0,0.0,0.0,0.0,0.0,0.0,0.0,0.0,0.0,0.0,0.0,0.0,0.0,0.0,0.0,0.0,0.0,0.0,0.0,0.0,0.0,0.0,0.0,0.0,0.0,0.0,0.0,0.0,0.0,0.0,0.0,0.0,0.0,0.0,0.0,0.0,0.0,0.0,0.0,0.0,0.0,0.0,0.0,0.0,0.0,0.0,0.0,0.0,0.0,0.0,0.0,0.0,0.0,0.0,0.0,0.0,0.0,0.0,0.0,0.0,0.0,0.0,0.0,0.0,0.0,0.0,0.0,0.0,0.0,0.0,0.0,0.0,0.0,0.0,0.0,0.0,0.0,0.0,0.0,0.0,0.0,0.0,0.0,0.0,0.0,0.0,0.0,0.0,0.0,0.0,0.0,0.0,0.0,0.0,0.0,0.0,0.0,0.0,0.0,0.0,0.0,0.0,0.0,0.0,0.0,0.0,0.0,0.0,0.0,0.0,0.0,0.0,0.0,0.0,0.0,0.0,0.0,0.0,0.0,0.0,0.0,0.0,0.0,0.0,0.0,0.0,0.0,0.0,0.0,0.0,0.0,0.0,0.0,0.0,0.0,0.0,0.0,0.0,0.0,0.0,0.0,0.0,0.0,0.0,0.0,0.0,0.0,0.0,0.0,0.0,0.0,0.0,0.0,0.0,0.0,0.0,0.0,0.0,0.0,0.0,0.0,0.0,0.0,0.0,0.0,0.0,0.0,0.0,0.0,0.0,0.0,0.0,0.0,0.0,0.0,0.0,0.0,0.0,0.0,0.0,0.0,0.0,0.0,0.0,0.0,0.0,0.0,0.0,0.0,0.0,0.0,0.0,0.0,0.0,0.0,0.0,0.0,0.0,0.0,0.0,0.0,0.0,0.0,0.0,0.0,0.0,0.0,0.0,0.0,0.0,0.0,0.0,0.0,0.0,0.0,0.0,0.0,0.0,0.0,0.0,0.0,0.0,0.0,0.0,0.0,0.0,0.0,0.0,0.0,0.0,0.0,0.0,0.0,0.0,0.0,0.0,0.0,0.0,0.0,0.0,0.0,0.0,0.0,0.0,0.0,0.0,0.0,0.0,0.0,0.0,0.0,0.0,0.0,0.0,0.0,0.0,0.0,0.0,0.0,0.0,0.0,0.0,0.0,0.0,0.0,0.0,0.0,0.0,0.0,0.0,0.0,0.0,0.0,0.0,0.0,0.0,0.0,0.0,0.0,0.0,0.0,0.0,0.0,0.0,0.0,0.0,0.0,0.0,0.0,0.0,0.0,0.0,0.0,0.0,0.0,0.0,0.0,0.0,0.0,0.0,0.0,0.0,0.0,0.0,0.0,0.0,0.0,0.0,0.0,0.0,0.0,0.0,0.0,0.0,0.0,0.0,0.0,0.0,0.0,0.0,0.0,0.0,0.0,0.0,0.0,0.0,0.0,0.0,0.0,0.0,0.0,0.0,0.0,0.0,0.0,0.0,0.0,0.0,0.0,0.0,0.0,0.0,0.0,0.0,0.0,0.0,0.0,0.0,0.0,0.0,0.0,0.0,0.0,0.0,0.0,0.0,0.0,0.0,0.0,0.0,0.0,0.0,0.0,0.0,0.0,0.0,0.0,0.0,0.0,0.0,0.0,0.0,0.0,0.0,0.0,0.0,0.0,0.0,0.0,0.0,0.0,0.0,0.0,0.0,0.0,0.0,0.0,0.0,0.0,0.0,0.0,0.0,0.0,0.0,0.0,0.0,0.0,0.0,0.0,0.0,0.0,0.0,0.0,0.0,0.0,0.0,0.0,0.0,0.0,0.0,0.0,0.0,0.0,0.0,0.0,0.0,0.0,0.0,0.0,0.0,0.0,0.0,0.0,0.0,0.0,0.0,0.0,0.0,0.0,0.0,0.0,0.0,0.0,0.0,0.0,0.0,0.0,0.0,0.0,0.0,0.0,0.0,0.0,0.0,0.0,0.0,0.0,0.0,0.0,0.0,0.0,0.0,0.0,0.0,0.0,0.0,0.0,0.0,0.0,0.0,0.0,0.0,0.0,0.0,0.0,0.0,0.0,0.0,0.0,0.0,0.0,0.0,0.0,0.0,0.0,0.0,0.0,0.0,0.0,0.0,0.0,0.0,0.0,0.0,0.0,0.0,0.0,0.0,0.0,0.0,0.0,0.0,0.0,0.0,0.0,0.0,0.0,0.0,0.0,0.0,0.0,0.0,0.0,0.0,0.0,0.0,0.0,0.0,0.0,0.0,0.0,0.0,0.0,0.0,0.0,0.0,0.0,0.0,0.0,0.0,0.0,0.0,0.0,0.0,0.0,0.0,0.0,0.0,0.0,0.0,0.0,0.0,0.0,0.0,0.0,0.0,0.0,0.0,0.0,0.0,0.0,0.0,0.0,0.0,0.0,0.0,0.0,0.0,0.0,0.0,0.0,0.0,0.0,0.0,0.0,0.0,0.0,0.0,0.0,0.0,0.0,0.0,0.0,0.0,0.0,0.0,0.0,0.0,0.0,0.0,0.0,0.0,0.0,0.0,0.0,0.0,0.0,0.0,0.0,0.0,0.0,0.0,0.0,0.0,0.0,0.0,0.0,0.0,0.0,0.0,0.0,0.0,0.0,0.0,0.0,0.0,0.0,0.0,0.0,0.0,0.0,0.0,0.0,0.0,0.0,0.0,0.0,0.0,0.0,0.0,0.0,0.0,0.0,0.0,0.0,0.0,0.0,0.0,0.0,0.0,0.0,0.0,0.0,0.0,0.0,0.0,0.0,0.0,0.0,0.0,0.0,0.0,0.0,0.0,0.0,0.0,0.0,0.0,0.0,0.0,0.0,0.0,0.0,0.0,0.0,0.0,0.0,0.0,0.0,0.0,0.0,0.0,0.0,0.0,0.0,0.0,0.0,0.0,0.0,0.0,0.0,0.0,0.0,0.0,0.0,0.0,0.0,0.0,0.0,0.0,0.0,0.0,0.0,0.0,0.0,0.0,0.0,0.0,0.0,0.0,0.0,0.0,0.0,0.0,0.0,0.0,0.0,0.0,0.0,0.0,0.0,0.0,0.0,0.0,0.0,0.0,0.0,0.0,0.0,0.0,0.0,0.0,0.0,0.0,0.0,0.0,0.0,0.0,0.0,0.0,0.0,0.0,0.0,0.0,0.0,0.0,0.0,0.0,0.0,0.0,0.0,0.0,0.0,0.0,0.0,0.0,0.0,0.0,0.0,0.0,0.0,0.0,0.0,0.0,0.0,0.0,0.0,0.0,0.0,0.0,0.0,0.0,0.0,0.0,0.0,0.0,0.0,0.0,0.0,0.0,0.0,0.0,0.0,0.0,0.0,0.0,0.0,0.0,0.0,0.0,0.0,0.0,0.0,0.0,0.0,0.0,0.0,0.0,0.0,0.0,0.0,0.0,0.0,0.0,0.0,0.0,0.0,0.0,0.0,0.0,0.0,0.0,0.0,0.0,0.0,0.0,0.0,0.0,0.0,0.0,0.0,0.0,0.0,0.0,0.0,0.0,0.0,0.0,0.0,0.0,0.0,0.0,0.0,0.0,0.0,0.0,0.0,0.0,0.0,0.0,0.0,0.0,0.0,0.0,0.0,0.0,0.0,0.0,0.0,0.0,0.0,0.0,0.0,0.0,0.0,0.0,0.0,0.0,0.0,0.0,0.0,0.0,0.0,0.0,0.0,0.0,0.0,0.0,0.0,0.0,0.0,0.0,0.0,0.0,0.0,0.0,0.0,0.0,0.0,0.0,0.0,0.0,0.0,0.0,0.0,0.0,0.0,0.0,0.0,0.0,0.0,0.0,0.0,0.0,0.0,0.0,0.0,0.0,0.0,0.0,0.0,0.0,-1.5582,0.0,0.0,0.0,0.0,0.0,0.0,0.0,0.0,0.0,0.0,0.0,0.0,0.0,0.0,0.0,0.0,0.0,0.0,0.0,0.0,0.0,0.0,0.0,0.0,0.0,0.0,0.0,0.0,0.0,0.0,0.0,0.0,0.0,0.0,0.0,0.0,0.0,0.0,0.0,0.0,0.0,0.0,0.0,0.0,0.0,0.0,0.0,0.0,0.0,0.0,0.0,0.0,0.0,0.0,0.0,0.0,0.0,0.0,0.0,0.0,0.0,0.0,0.0,0.0,0.0,0.0,0.0,0.0,0.0,0.0,0.0,0.0,0.0,0.0,0.0,0.0,0.0,0.0,0.0,0.0,0.0,0.0,0.0,0.0,0.0,0.0,0.0,0.0,0.0,0.0,0.0,0.0,0.0,0.0,0.0,0.0,0.0,0.0,0.0,0.0,0.0,0.0,0.0,0.0,0.0,0.0,0.0,0.0,0.0,0.0,-1.7593,-1.7715,-1.7941,-1.7713,-1.6945,0.0,0.0,0.0,0.0,0.0,0.0,0.0,0.0,0.0,0.0,0.0,0.0,0.0,0.0,0.0,0.0,0.0,0.0,0.0,0.0,0.0,0.0,0.0,0.0,0.0,0.0,0.0,0.0,0.0,0.0,0.0,0.0,0.0,0.0,0.0,0.0,0.0,0.0,0.0,0.0,0.0,0.0,0.0,0.0,0.0,0.0,0.0,0.0,0.0,0.0,0.0,0.0,0.0,0.0,0.0,0.0,0.0,0.0,0.0,0.0,0.0,0.0,0.0,0.0,0.0,0.0,0.0,0.0,0.0,0.0,0.0,0.0,0.0,0.0,0.0,0.0,0.0,0.0,0.0,0.0,0.0,0.0,0.0,0.0,0.0,0.0,0.0,0.0,0.0,0.0,0.0,0.0,0.0,0.0,0.0,0.0,0.0,0.0,0.0,0.0,0.0,0.0,0.0,0.0,0.0,0.0,0.0,0.0,0.0,0.0,0.0,0.0,-1.907,-1.8815,-1.7544,0.0,0.0,0.0,0.0,0.0,0.0,0.0,0.0,0.0,0.0,0.0,0.0,0.0,0.0,0.0,0.0,0.0,0.0,0.0,0.0,0.0,0.0,0.0,0.0,0.0,0.0,0.0,0.0,0.0,0.0,0.0,0.0,0.0,0.0,0.0,0.0,0.0,0.0,0.0,0.0,0.0,0.0,0.0,0.0,0.0,0.0,0.0,0.0,0.0,0.0,0.0,0.0,0.0,0.0,0.0,0.0,0.0,0.0,0.0,0.0,0.0,0.0,0.0,0.0,0.0,0.0,0.0,0.0,0.0,0.0,0.0,0.0,0.0,0.0,0.0,0.0,0.0,0.0,0.0,0.0,0.0,0.0,0.0,0.0,0.0,0.0,0.0,0.0,0.0,0.0,0.0,0.0,0.0,0.0,0.0,0.0,0.0,0.0,0.0,0.0,0.0,0.0,0.0,0.0,0.0,0.0,0.0,0.0,0.0,0.0,-2.0118,-2.0002,-2.0065,0.0,-1.6553,0.0,0.0,0.0,0.0,0.0,0.0,0.0,0.0,0.0,0.0,0.0,0.0,0.0,0.0,0.0,0.0,0.0,0.0,0.0,0.0,0.0,0.0,0.0,0.0,0.0,0.0,0.0,0.0,0.0,0.0,0.0,0.0,0.0,0.0,0.0,0.0,0.0,0.0,0.0,0.0,0.0,0.0,0.0,0.0,0.0,0.0,0.0,0.0,0.0,0.0,0.0,0.0,0.0,0.0,0.0,0.0,0.0,0.0,0.0,0.0,0.0,0.0,0.0,0.0,0.0,0.0,0.0,0.0,0.0,0.0,0.0,0.0,0.0,0.0,0.0,0.0,0.0,0.0,0.0,0.0,0.0,0.0,0.0,0.0,0.0,0.0,0.0,0.0,0.0,0.0,0.0,0.0,0.0,0.0,0.0,0.0,0.0,0.0,0.0,0.0,0.0,0.0,0.0,0.0,0.0,0.0,0.0,0.0,0.0,0.0,0.0,-2.0698,-2.0569,-1.9249,0.0,0.0,0.0,0.0,0.0,0.0,0.0,0.0,0.0,0.0,0.0,0.0,0.0,0.0,0.0,0.0,0.0,0.0,0.0,0.0,0.0,0.0,0.0,0.0,0.0,0.0,0.0,0.0,0.0,0.0,0.0,0.0,0.0,0.0,0.0,0.0,0.0,0.0,0.0,0.0,0.0,0.0,0.0,0.0,0.0,0.0,0.0,0.0,0.0,0.0,0.0,0.0,0.0,0.0,0.0,0.0,0.0,0.0,0.0,0.0,0.0,0.0,0.0,0.0,0.0,0.0,0.0,0.0,0.0,0.0,0.0,0.0,0.0,0.0,0.0,0.0,0.0,0.0,0.0,0.0,0.0,0.0,0.0,0.0,0.0,0.0,0.0,0.0,0.0,0.0,0.0,0.0,0.0,0.0,0.0,0.0,0.0,0.0,0.0,0.0,0.0,0.0,0.0,0.0,0.0,0.0,0.0,0.0,0.0,0.0,-2.1373,0.0,-2.1112,-2.0671,-1.9358,-1.6986,0.0,0.0,0.0,0.0,0.0,0.0,0.0,0.0,0.0,0.0,0.0,0.0,0.0,0.0,0.0,0.0,0.0,0.0,0.0,0.0,0.0,0.0,0.0,0.0,0.0,0.0,0.0,0.0,0.0,0.0,0.0,0.0,0.0,0.0,0.0,0.0,0.0,0.0,0.0,0.0,0.0,0.0,0.0,0.0,0.0,0.0,0.0,0.0,0.0,0.0,0.0,0.0,0.0,0.0,0.0,0.0,0.0,0.0,0.0,0.0,0.0,0.0,0.0,0.0,0.0,0.0,0.0,0.0,0.0,0.0,0.0,0.0,0.0,0.0,0.0,0.0,0.0,0.0,0.0,0.0,0.0,0.0,0.0,0.0,0.0,0.0,0.0,0.0,0.0,0.0,0.0,0.0,0.0,0.0,0.0,0.0,0.0,0.0,0.0,0.0,0.0,0.0,0.0,0.0,0.0,0.0,0.0,0.0,0.0,-2.1103,-2.1453,-2.1288,-2.0404,-1.9075,0.0,0.0,0.0,0.0,0.0,0.0,0.0,0.0,0.0,0.0,0.0,0.0,0.0,0.0,0.0,0.0,0.0,0.0,0.0,0.0,0.0,0.0,0.0,0.0,0.0,0.0,0.0,0.0,0.0,0.0,0.0,0.0,0.0,0.0,0.0,0.0,0.0,0.0,0.0,0.0,0.0,0.0,0.0,0.0,0.0,0.0,0.0,0.0,0.0,0.0,0.0,0.0,0.0,0.0,0.0,0.0,0.0,0.0,0.0,0.0,0.0,0.0,0.0,0.0,0.0,0.0,0.0,0.0,0.0,0.0,0.0,0.0,0.0,0.0,0.0,0.0,0.0,0.0,0.0,0.0,0.0,0.0,0.0,0.0,0.0,0.0,0.0,0.0,0.0,0.0,0.0,0.0,0.0,0.0,0.0,0.0,0.0,0.0,0.0,0.0,0.0,0.0,0.0,0.0,0.0,0.0,0.0,0.0,0.0,-2.0447,-2.1208,-2.1577,0.0,-2.1117,-1.9838,0.0,0.0,0.0,0.0,0.0,0.0,0.0,0.0,0.0,0.0,0.0,0.0,0.0,0.0,0.0,0.0,0.0,0.0,0.0,0.0,0.0,0.0,0.0,0.0,0.0,0.0,0.0,0.0,0.0,0.0,0.0,0.0,0.0,0.0,0.0,0.0,0.0,0.0,0.0,0.0,0.0,0.0,0.0,0.0,0.0,0.0,0.0,0.0,0.0,0.0,0.0,0.0,0.0,0.0,0.0,0.0,0.0,0.0,0.0,0.0,0.0,0.0,0.0,0.0,0.0,0.0,0.0,0.0,0.0,0.0,0.0,0.0,0.0,0.0,0.0,0.0,0.0,0.0,0.0,0.0,0.0,0.0,0.0,0.0,0.0,0.0,0.0,0.0,0.0,0.0,0.0,0.0,0.0,0.0,0.0,0.0,0.0,0.0,0.0,0.0,0.0,0.0,0.0,0.0,0.0,0.0,0.0,0.0,0.0,-2.0524,0.0,-2.1303,0.0,-2.1185,-2.0062,0.0,0.0,0.0,0.0,0.0,0.0,0.0,0.0,0.0,0.0,0.0,0.0,0.0,0.0,0.0,0.0,0.0,0.0,0.0,0.0,0.0,0.0,0.0,0.0,0.0,0.0,0.0,0.0,0.0,0.0,0.0,0.0,0.0,0.0,0.0,0.0,0.0,0.0,0.0,0.0,0.0,0.0,0.0,0.0,0.0,0.0,0.0,0.0,0.0,0.0,0.0,0.0,0.0,0.0,0.0,0.0,0.0,0.0,0.0,0.0,0.0,0.0,0.0,0.0,0.0,0.0,0.0,0.0,0.0,0.0,0.0,0.0,0.0,0.0,0.0,0.0,0.0,0.0,0.0,0.0,0.0,0.0,0.0,0.0,0.0,0.0,0.0,0.0,0.0,0.0,0.0,0.0,0.0,0.0,0.0,0.0,0.0,0.0,0.0,0.0,0.0,0.0,0.0,0.0,0.0,0.0,0.0,0.0,-2.0537,-2.0536,-2.0543,-2.062,-2.0527,-2.0502,-1.9599,0.0,0.0,0.0,0.0,0.0,0.0,0.0,0.0,0.0,0.0,0.0,0.0,0.0,0.0,0.0,0.0,0.0,0.0,0.0,0.0,0.0,0.0,0.0,0.0,0.0,0.0,0.0,0.0,0.0,0.0,0.0,0.0,0.0,0.0,0.0,0.0,0.0,0.0,0.0,0.0,0.0,0.0,0.0,0.0,0.0,0.0,0.0,0.0,0.0,0.0,0.0,0.0,0.0,0.0,0.0,0.0,0.0,0.0,0.0,0.0,0.0,0.0,0.0,0.0,0.0,0.0,0.0,0.0,0.0,0.0,0.0,0.0,0.0,0.0,0.0,0.0,0.0,0.0,0.0,0.0,0.0,0.0,0.0,0.0,0.0,0.0,0.0,0.0,0.0,0.0,0.0,0.0,0.0,0.0,0.0,0.0,0.0,0.0,0.0,0.0,0.0,0.0,0.0,0.0,0.0,0.0,0.0,0.0,0.0,-2.1396,-2.1383,-2.1383,-2.1384,-2.0799,-1.9659,0.0,0.0,0.0,0.0,0.0,0.0,0.0,0.0,0.0,0.0,0.0,0.0,0.0,0.0,0.0,0.0,0.0,0.0,0.0,0.0,0.0,0.0,0.0,0.0,0.0,0.0,0.0,0.0,0.0,0.0,0.0,0.0,0.0,0.0,0.0,0.0,0.0,0.0,0.0,0.0,0.0,0.0,0.0,0.0,0.0,0.0,0.0,0.0,0.0,0.0,0.0,0.0,0.0,0.0,0.0,0.0,0.0,0.0,0.0,0.0,0.0,0.0,0.0,0.0,0.0,0.0,0.0,0.0,0.0,0.0,0.0,0.0,0.0,0.0,0.0,0.0,0.0,0.0,0.0,0.0,0.0,0.0,0.0,0.0,0.0,0.0,0.0,0.0,0.0,0.0,0.0,0.0,0.0,0.0,0.0,0.0,0.0,0.0,0.0,0.0,0.0,0.0,0.0,0.0,0.0,0.0,0.0,0.0,0.0,-2.2279,-2.2294,-2.2128,-2.1798,-2.1257,-2.0018,-1.8057,0.0,0.0,0.0,0.0,0.0,0.0,0.0,0.0,0.0,0.0,0.0,0.0,0.0,0.0,0.0,0.0,0.0,0.0,0.0,0.0,0.0,0.0,0.0,0.0,0.0,0.0,0.0,0.0,0.0,0.0,0.0,0.0,0.0,0.0,0.0,0.0,0.0,0.0,0.0,0.0,0.0,0.0,0.0,0.0,0.0,0.0,0.0,0.0,0.0,0.0,0.0,0.0,0.0,0.0,0.0,0.0,0.0,0.0,0.0,0.0,0.0,0.0,0.0,0.0,0.0,0.0,0.0,0.0,0.0,0.0,0.0,0.0,0.0,0.0,0.0,0.0,0.0,0.0,0.0,0.0,0.0,0.0,0.0,0.0,0.0,0.0,0.0,0.0,0.0,0.0,0.0,0.0,0.0,0.0,0.0,0.0,0.0,0.0,0.0,0.0,0.0,0.0,0.0,0.0,0.0,0.0,0.0,0.0,-2.3095,-2.3203,-2.2817,-2.1924,-2.1816,-2.0604,0.0,0.0,0.0,0.0,0.0,0.0,0.0,0.0,0.0,0.0,0.0,0.0,0.0,0.0,0.0,0.0,0.0,0.0,0.0,0.0,0.0,0.0,0.0,0.0,0.0,0.0,0.0,0.0,0.0,0.0,0.0,0.0,0.0,0.0,0.0,0.0,0.0,0.0,0.0,0.0,0.0,0.0,0.0,0.0,0.0,0.0,0.0,0.0,0.0,0.0,0.0,0.0,0.0,0.0,0.0,0.0,0.0,0.0,0.0,0.0,0.0,0.0,0.0,0.0,0.0,0.0,0.0,0.0,0.0,0.0,0.0,0.0,0.0,0.0,0.0,0.0,0.0,0.0,0.0,0.0,0.0,0.0,0.0,0.0,0.0,0.0,0.0,0.0,0.0,0.0,0.0,0.0,0.0,0.0,0.0,0.0,0.0,0.0,0.0,0.0,0.0,0.0,0.0,0.0,0.0,0.0,0.0,0.0,0.0,-2.3061,-2.4283,-2.4251,-2.2814,-2.2133,-2.0602,0.0,0.0,0.0,0.0,0.0,0.0,0.0,0.0,0.0,0.0,0.0,0.0,0.0,0.0,0.0,0.0,0.0,0.0,0.0,0.0,0.0,0.0,0.0,0.0,0.0,0.0,0.0,0.0,0.0,0.0,0.0,0.0,0.0,0.0,0.0,0.0,0.0,0.0,0.0,0.0,0.0,0.0,0.0,0.0,0.0,0.0,0.0,0.0,0.0,0.0,0.0,0.0,0.0,0.0,0.0,0.0,0.0,0.0,0.0,0.0,0.0,0.0,0.0,0.0,0.0,0.0,0.0,0.0,0.0,0.0,0.0,0.0,0.0,0.0,0.0,0.0,0.0,0.0,0.0,0.0,0.0,0.0,0.0,0.0,0.0,0.0,0.0,0.0,0.0,0.0,0.0,0.0,0.0,0.0,0.0,0.0,0.0,0.0,0.0,0.0,0.0,0.0,0.0,0.0,0.0,0.0,0.0,0.0,-2.313,-2.3517,-2.4875,-2.4963,-2.3641,-2.2791,-2.1315,0.0,0.0,0.0,0.0,0.0,0.0,0.0,0.0,0.0,0.0,0.0,0.0,0.0,0.0,0.0,0.0,0.0,0.0,0.0,0.0,0.0,0.0,0.0,0.0,0.0,0.0,0.0,0.0,0.0,0.0,0.0,0.0,0.0,0.0,0.0,0.0,0.0,0.0,0.0,0.0,0.0,0.0,0.0,0.0,0.0,0.0,0.0,0.0,0.0,0.0,0.0,0.0,0.0,0.0,0.0,0.0,0.0,0.0,0.0,0.0,0.0,0.0,0.0,0.0,0.0,0.0,0.0,0.0,0.0,0.0,0.0,0.0,0.0,0.0,0.0,0.0,0.0,0.0,0.0,0.0,0.0,0.0,0.0,0.0,0.0,0.0,0.0,0.0,0.0,0.0,0.0,0.0,0.0,0.0,0.0,0.0,0.0,0.0,0.0,0.0,0.0,0.0,0.0,0.0,0.0,0.0,0.0,0.0,-2.3305,-2.418,-2.5111,-2.522,-2.4434,-2.3562,-2.2282,0.0,0.0,0.0,0.0,0.0,0.0,0.0,0.0,0.0,0.0,0.0,0.0,0.0,0.0,0.0,0.0,0.0,0.0,0.0,0.0,0.0,0.0,0.0,0.0,0.0,0.0,0.0,0.0,0.0,0.0,0.0,0.0,0.0,0.0,0.0,0.0,0.0,0.0,0.0,0.0,0.0,0.0,0.0,0.0,0.0,0.0,0.0,0.0,0.0,0.0,0.0,0.0,0.0,0.0,0.0,0.0,0.0,0.0,0.0,0.0,0.0,0.0,0.0,0.0,0.0,0.0,0.0,0.0,0.0,0.0,0.0,0.0,0.0,0.0,0.0,0.0,0.0,0.0,0.0,0.0,0.0,0.0,0.0,0.0,0.0,0.0,0.0,0.0,0.0,0.0,0.0,0.0,0.0,0.0,0.0,0.0,0.0,0.0,0.0,0.0,0.0,0.0,0.0,0.0,0.0,0.0,0.0,0.0,-2.3271,-2.4198,-2.5062,-2.5427,-2.5243,-2.3801,-2.2192,0.0,0.0,0.0,0.0,0.0,0.0,0.0,0.0,0.0,0.0,0.0,0.0,0.0,0.0,0.0,0.0,0.0,0.0,0.0,0.0,0.0,0.0,0.0,0.0,0.0,0.0,0.0,0.0,0.0,0.0,0.0,0.0,0.0,0.0,0.0,0.0,0.0,0.0,0.0,0.0,0.0,0.0,0.0,0.0,0.0,0.0,0.0,0.0,-2.0046,0.0,0.0,0.0,0.0,0.0,0.0,0.0,0.0,0.0,0.0,0.0,0.0,0.0,0.0,0.0,0.0,0.0,0.0,0.0,0.0,0.0,0.0,0.0,0.0,0.0,0.0,0.0,0.0,0.0,0.0,0.0,0.0,0.0,0.0,0.0,0.0,0.0,0.0,0.0,0.0,0.0,0.0,0.0,0.0,0.0,0.0,0.0,0.0,0.0,0.0,0.0,0.0,0.0,0.0,0.0,0.0,0.0,0.0,0.0,-2.338,-2.4676,-2.5166,-2.5213,-2.4826,-2.3559,-2.2453,0.0,0.0,0.0,0.0,0.0,0.0,0.0,0.0,0.0,0.0,0.0,0.0,0.0,0.0,0.0,0.0,0.0,0.0,0.0,0.0,0.0,0.0,0.0,0.0,0.0,0.0,0.0,0.0,0.0,0.0,0.0,0.0,0.0,0.0,0.0,0.0,0.0,0.0,0.0,0.0,0.0,0.0,0.0,0.0,0.0,0.0,0.0,0.0,0.0,0.0,0.0,0.0,0.0,0.0,0.0,0.0,0.0,0.0,0.0,0.0,0.0,0.0,0.0,0.0,0.0,0.0,0.0,0.0,0.0,0.0,0.0,0.0,0.0,0.0,0.0,0.0,0.0,0.0,0.0,0.0,0.0,0.0,0.0,0.0,0.0,0.0,0.0,0.0,0.0,0.0,0.0,0.0,0.0,0.0,0.0,0.0,0.0,0.0,0.0,0.0,0.0,0.0,0.0,0.0,0.0,0.0,0.0,-2.2584,-2.3447,-2.5003,-2.5205,-2.4899,-2.4101,-2.316,-2.2652,-2.2588,0.0,0.0,0.0,0.0,0.0,0.0,0.0,0.0,0.0,0.0,0.0,0.0,0.0,0.0,0.0,0.0,0.0,0.0,0.0,0.0,0.0,0.0,0.0,0.0,0.0,0.0,0.0,0.0,0.0,0.0,0.0,0.0,0.0,0.0,0.0,0.0,0.0,0.0,-1.5557,-1.7822,0.0,0.0,0.0,0.0,0.0,0.0,0.0,0.0,-2.2604,0.0,0.0,0.0,0.0,0.0,0.0,0.0,0.0,0.0,0.0,0.0,0.0,0.0,0.0,0.0,0.0,0.0,0.0,0.0,0.0,0.0,0.0,0.0,0.0,0.0,0.0,0.0,0.0,0.0,0.0,0.0,0.0,0.0,0.0,0.0,0.0,0.0,0.0,0.0,0.0,0.0,0.0,0.0,0.0,0.0,0.0,0.0,0.0,0.0,0.0,0.0,0.0,0.0,0.0,0.0,0.0,-2.1486,-2.2193,-2.3055,-2.411,-2.4792,-2.4745,-2.3943,-2.3018,-2.2204,-2.1423,0.0,0.0,0.0,0.0,0.0,0.0,0.0,0.0,0.0,0.0,0.0,0.0,0.0,0.0,0.0,0.0,0.0,0.0,0.0,0.0,0.0,0.0,0.0,0.0,0.0,0.0,0.0,0.0,0.0,0.0,0.0,0.0,0.0,0.0,0.0,0.0,0.0,0.0,0.0,-1.8574,-1.9872,0.0,0.0,0.0,0.0,0.0,0.0,0.0,0.0,-2.2935,0.0,0.0,0.0,0.0,0.0,0.0,0.0,0.0,0.0,0.0,0.0,0.0,0.0,0.0,0.0,0.0,0.0,0.0,0.0,0.0,0.0,0.0,0.0,0.0,0.0,0.0,0.0,0.0,0.0,0.0,0.0,0.0,0.0,0.0,0.0,0.0,0.0,0.0,0.0,0.0,0.0,0.0,0.0,0.0,0.0,0.0,0.0,0.0,0.0,0.0,0.0,0.0,0.0,0.0,0.0,-2.1058,-2.1573,-2.2206,-2.3099,-2.3522,-2.3345,-2.2536,-2.203,-2.1365,0.0,0.0,0.0,0.0,0.0,0.0,0.0,0.0,0.0,0.0,0.0,0.0,0.0,0.0,0.0,0.0,0.0,0.0,0.0,0.0,0.0,0.0,0.0,0.0,0.0,0.0,0.0,0.0,0.0,0.0,0.0,0.0,0.0,0.0,0.0,0.0,0.0,0.0,0.0,0.0,-2.0066,-2.1069,-2.2337,0.0,0.0,0.0,0.0,0.0,0.0,-2.4028,-2.4302,0.0,0.0,0.0,0.0,0.0,0.0,0.0,0.0,0.0,0.0,0.0,0.0,0.0,0.0,0.0,0.0,0.0,0.0,0.0,0.0,0.0,0.0,0.0,0.0,0.0,0.0,0.0,0.0,0.0,0.0,0.0,0.0,0.0,0.0,0.0,0.0,0.0,0.0,0.0,0.0,0.0,0.0,0.0,0.0,0.0,0.0,0.0,0.0,0.0,0.0,0.0,0.0,0.0,0.0,0.0,-2.048,-2.0894,-2.1413,-2.2089,-2.2325,-2.2047,-2.1192,-2.1095,-2.0571,0.0,0.0,0.0,0.0,0.0,0.0,0.0,0.0,0.0,0.0,0.0,0.0,0.0,0.0,0.0,0.0,0.0,0.0,0.0,0.0,0.0,0.0,0.0,0.0,0.0,0.0,0.0,0.0,0.0,0.0,0.0,0.0,0.0,0.0,0.0,0.0,0.0,0.0,0.0,0.0,0.0,-2.2182,-2.3201,-2.3354,0.0,0.0,0.0,0.0,-2.4525,-2.5066,0.0,0.0,0.0,0.0,0.0,0.0,0.0,0.0,0.0,0.0,0.0,0.0,0.0,0.0,0.0,0.0,0.0,0.0,0.0,0.0,0.0,0.0,0.0,0.0,0.0,0.0,0.0,0.0,0.0,0.0,0.0,0.0,0.0,0.0,0.0,0.0,0.0,0.0,0.0,0.0,0.0,0.0,0.0,0.0,0.0,0.0,0.0,0.0,0.0,0.0,0.0,0.0,0.0,0.0,0.0,0.0,-1.8734,-2.0161,-2.0983,-2.1193,-2.1928,-2.1894,-2.1054,-2.0964,-2.0184,0.0,0.0,0.0,0.0,0.0,0.0,0.0,0.0,0.0,0.0,0.0,0.0,0.0,0.0,0.0,0.0,0.0,0.0,0.0,0.0,0.0,0.0,0.0,0.0,0.0,0.0,0.0,0.0,0.0,0.0,0.0,0.0,0.0,0.0,0.0,0.0,0.0,0.0,0.0,0.0,0.0,-2.2388,-2.4018,-2.4197,-2.4442,0.0,0.0,0.0,-2.5284,-2.5348,0.0,0.0,0.0,0.0,0.0,0.0,0.0,0.0,0.0,0.0,0.0,0.0,0.0,0.0,0.0,0.0,0.0,0.0,0.0,0.0,0.0,0.0,0.0,0.0,0.0,0.0,0.0,0.0,0.0,0.0,0.0,0.0,0.0,0.0,0.0,0.0,0.0,0.0,0.0,0.0,0.0,0.0,0.0,0.0,0.0,0.0,0.0,0.0,0.0,0.0,0.0,0.0,0.0,0.0,0.0,-1.7444,-1.8289,-1.949,-2.0122,-2.0164,-2.0555,-2.0592,-2.0224,-1.9698,-1.9085,0.0,0.0,0.0,0.0,0.0,0.0,0.0,0.0,0.0,0.0,0.0,0.0,0.0,0.0,0.0,0.0,0.0,0.0,0.0,0.0,0.0,0.0,0.0,0.0,0.0,0.0,0.0,0.0,0.0,0.0,0.0,0.0,0.0,0.0,0.0,0.0,0.0,0.0,0.0,0.0,0.0,0.0,-2.4914,-2.5021,0.0,0.0,0.0,-2.5478,-2.5418,0.0,0.0,0.0,0.0,0.0,0.0,0.0,0.0,0.0,0.0,0.0,0.0,0.0,0.0,0.0,0.0,0.0,0.0,0.0,0.0,0.0,0.0,0.0,0.0,0.0,0.0,0.0,0.0,0.0,0.0,0.0,0.0,0.0,0.0,0.0,0.0,0.0,0.0,0.0,0.0,0.0,0.0,0.0,0.0,0.0,0.0,0.0,0.0,0.0,0.0,0.0,0.0,0.0,0.0,0.0,0.0,0.0,-1.7886,-1.8901,-1.9466,-1.9499,-1.9564,-1.9569,-1.9569,-1.8726,0.0,0.0,0.0,0.0,0.0,0.0,0.0,0.0,0.0,0.0,0.0,0.0,0.0,0.0,0.0,0.0,0.0,0.0,0.0,0.0,0.0,0.0,0.0,0.0,0.0,0.0,0.0,-1.2203,0.0,0.0,0.0,0.0,0.0,0.0,0.0,0.0,0.0,0.0,0.0,0.0,0.0,0.0,-2.4583,-2.5459,-2.5522,-2.5476,0.0,0.0,-2.545,-2.5414,-2.5397,-2.538,0.0,0.0,0.0,0.0,0.0,0.0,0.0,0.0,0.0,0.0,0.0,0.0,0.0,0.0,0.0,0.0,0.0,0.0,0.0,0.0,0.0,0.0,0.0,0.0,0.0,0.0,0.0,0.0,0.0,0.0,0.0,0.0,0.0,0.0,0.0,0.0,0.0,0.0,0.0,0.0,0.0,0.0,0.0,0.0,0.0,0.0,0.0,0.0,0.0,0.0,0.0,0.0,0.0,0.0,0.0,-1.7018,-1.8529,-1.9377,-1.9492,-1.9492,-1.9507,-1.9497,-1.8665,-1.7863,0.0,0.0,0.0,0.0,0.0,0.0,0.0,0.0,0.0,0.0,0.0,0.0,0.0,0.0,0.0,0.0,0.0,0.0,0.0,0.0,0.0,0.0,0.0,0.0,0.0,0.0,0.0,0.0,0.0,0.0,0.0,0.0,0.0,0.0,0.0,0.0,0.0,0.0,0.0,0.0,0.0,-2.4519,-2.5372,-2.5455,-2.54,0.0,0.0,-2.5407,-2.5398,-2.5361,-2.5303,-2.5313,0.0,0.0,0.0,0.0,0.0,0.0,0.0,0.0,0.0,0.0,0.0,0.0,0.0,0.0,0.0,0.0,0.0,0.0,0.0,0.0,0.0,0.0,0.0,0.0,0.0,0.0,0.0,0.0,0.0,0.0,0.0,0.0,0.0,0.0,0.0,0.0,0.0,0.0,0.0,0.0,0.0,0.0,0.0,0.0,0.0,0.0,0.0,0.0,0.0,0.0,0.0,0.0,0.0,-1.7072,-1.7632,-1.8727,-1.9335,-1.9372,-1.9362,-1.9377,-1.9396,-1.8566,-1.7771,0.0,0.0,0.0,0.0,0.0,0.0,0.0,0.0,0.0,0.0,0.0,0.0,0.0,0.0,0.0,0.0,0.0,0.0,0.0,0.0,0.0,0.0,0.0,0.0,0.0,0.0,0.0,0.0,-1.455,-1.501,-1.5564,0.0,0.0,0.0,0.0,0.0,0.0,0.0,0.0,0.0,0.0,-2.5068,-2.5392,-2.5423,0.0,0.0,-2.614,-2.6323,-2.6862,-2.6929,-2.6909,-2.6909,-2.6899,0.0,0.0,0.0,0.0,0.0,0.0,0.0,0.0,0.0,0.0,0.0,0.0,0.0,0.0,0.0,0.0,0.0,0.0,0.0,0.0,0.0,0.0,0.0,0.0,0.0,0.0,0.0,0.0,0.0,0.0,0.0,0.0,0.0,0.0,0.0,0.0,0.0,0.0,0.0,0.0,0.0,0.0,0.0,0.0,0.0,0.0,0.0,0.0,0.0,0.0,0.0,0.0,-1.7178,-1.8024,-1.9077,-1.9511,-1.9317,-1.9528,-1.9537,-1.9289,-1.8519,-1.7734,0.0,0.0,0.0,0.0,0.0,0.0,0.0,0.0,0.0,0.0,0.0,0.0,0.0,0.0,0.0,0.0,0.0,0.0,0.0,0.0,0.0,0.0,0.0,0.0,0.0,0.0,0.0,0.0,-1.4868,-1.5296,-1.5988,0.0,0.0,0.0,0.0,0.0,0.0,0.0,0.0,0.0,0.0,-2.5395,-2.5369,-2.56,-2.5967,-2.6506,-2.6814,-2.7218,-2.7794,-2.789,-2.789,-2.789,0.0,0.0,0.0,0.0,0.0,0.0,0.0,0.0,0.0,0.0,0.0,0.0,0.0,0.0,0.0,0.0,0.0,0.0,0.0,0.0,0.0,0.0,0.0,0.0,0.0,0.0,0.0,0.0,0.0,0.0,-1.3326,0.0,0.0,0.0,0.0,0.0,0.0,0.0,0.0,0.0,0.0,0.0,0.0,0.0,0.0,0.0,0.0,0.0,0.0,0.0,0.0,0.0,0.0,0.0,-1.792,-1.9481,-1.9957,-1.939,-2.0079,-2.0081,-1.9351,-1.8528,-1.7719,-1.6913,0.0,0.0,0.0,0.0,0.0,0.0,0.0,0.0,0.0,0.0,0.0,0.0,0.0,0.0,0.0,0.0,0.0,0.0,0.0,0.0,0.0,0.0,0.0,0.0,0.0,0.0,-1.4536,-1.5321,-1.5874,0.0,0.0,0.0,0.0,0.0,0.0,0.0,0.0,0.0,0.0,-2.485,-2.5379,-2.5341,-2.6034,-2.6572,-2.664,-2.7332,-2.788,-2.7948,-2.7938,-2.789,0.0,0.0,0.0,0.0,0.0,0.0,0.0,0.0,0.0,0.0,0.0,0.0,0.0,0.0,0.0,0.0,0.0,0.0,0.0,0.0,0.0,0.0,0.0,0.0,0.0,0.0,0.0,-1.6288,-1.5817,0.0,0.0,0.0,0.0,0.0,0.0,0.0,0.0,0.0,0.0,0.0,-2.0088,-1.9014,0.0,0.0,0.0,0.0,0.0,0.0,0.0,0.0,0.0,0.0,0.0,0.0,-1.8095,-1.9437,-2.0087,-2.0556,-2.0941,-2.0675,-2.0374,-2.0106,-1.9308,-1.8242,-1.6871,0.0,0.0,0.0,0.0,0.0,0.0,0.0,0.0,0.0,0.0,0.0,0.0,0.0,0.0,0.0,0.0,0.0,0.0,0.0,0.0,0.0,0.0,0.0,0.0,0.0,-1.4666,0.0,0.0,0.0,0.0,0.0,0.0,0.0,0.0,0.0,0.0,0.0,-2.4187,-2.4812,-2.5149,-2.5543,-2.6081,-2.6419,-2.6996,0.0,0.0,0.0,0.0,0.0,0.0,0.0,0.0,0.0,0.0,0.0,0.0,0.0,0.0,-2.5849,-2.5338,-2.5243,-2.5426,-2.6042,0.0,0.0,0.0,0.0,0.0,0.0,0.0,0.0,0.0,0.0,0.0,0.0,0.0,0.0,-1.8591,0.0,-1.8005,0.0,0.0,0.0,0.0,0.0,0.0,0.0,0.0,-2.0107,-2.0699,-2.1738,-2.0671,-2.0184,0.0,-1.8797,-1.8159,0.0,0.0,0.0,0.0,0.0,0.0,0.0,0.0,-1.8883,-2.0245,-2.0906,-2.1397,-2.1767,-2.1519,-2.108,-2.0512,-1.9423,-1.8325,-1.7215,-1.5996,-1.5063,0.0,0.0,0.0,0.0,0.0,0.0,0.0,0.0,0.0,0.0,0.0,0.0,0.0,0.0,0.0,0.0,0.0,0.0,0.0,0.0,0.0,0.0,0.0,-1.5023,0.0,0.0,0.0,0.0,0.0,0.0,0.0,0.0,0.0,-2.4151,-2.4534,-2.5109,-2.6017,-2.6162,-2.6376,-2.6935,0.0,0.0,0.0,0.0,0.0,0.0,0.0,-3.0343,-3.0301,-3.0311,-3.0286,-3.0276,-2.9763,-2.892,-2.7445,0.0,0.0,-2.5359,-2.5171,-2.5402,-2.5999,-2.5645,-2.5445,-2.6013,-2.5696,-2.5302,0.0,0.0,0.0,0.0,0.0,0.0,0.0,0.0,-2.1934,-2.147,0.0,-1.9917,0.0,0.0,0.0,0.0,0.0,0.0,0.0,0.0,-2.1607,-2.1716,-2.1886,-2.1845,-2.1817,-2.1784,-2.0934,-2.0505,-2.0378,-1.8131,0.0,0.0,0.0,0.0,0.0,0.0,-1.9417,-2.0417,-2.1897,-2.2428,-2.1941,-2.2602,-2.2181,-2.0539,-1.8928,-1.8012,-1.7844,-1.6348,-1.5391,-1.5211,-1.44,0.0,0.0,0.0,0.0,0.0,0.0,0.0,0.0,0.0,0.0,0.0,0.0,0.0,0.0,0.0,0.0,0.0,0.0,0.0,0.0,-1.4995,0.0,0.0,0.0,0.0,0.0,0.0,0.0,0.0,0.0,0.0,-2.4965,-2.5811,-2.674,-2.7555,0.0,0.0,0.0,0.0,-2.8986,-2.9043,-2.9743,-3.0292,-3.0312,-3.0292,-3.0312,-3.0279,0.0,0.0,-3.0195,-3.0113,-2.9749,-2.8858,-2.7958,-2.6954,-2.5468,-2.521,-2.5264,-2.5369,-2.5372,-2.5268,-2.5355,-2.5617,-2.5512,-2.1719,0.0,0.0,0.0,0.0,-2.1665,-2.1835,-2.2073,-2.2018,-2.1841,-2.1569,-2.1322,0.0,0.0,0.0,0.0,0.0,0.0,-2.1434,-2.2511,-2.2539,-2.2859,-2.3474,-2.2932,-2.2666,-2.262,-2.1831,-2.1428,-2.1383,-2.0654,-1.964,-1.8392,0.0,0.0,0.0,0.0,-2.0499,-2.1961,-2.2499,-2.2995,-2.3501,-2.318,-2.2199,-2.0532,-1.9374,-1.8508,-1.7926,-1.7386,-1.6545,-1.5327,-1.4955,0.0,0.0,0.0,0.0,0.0,0.0,0.0,0.0,0.0,0.0,0.0,0.0,0.0,0.0,0.0,0.0,0.0,0.0,0.0,-1.566,-1.6034,-1.6805,0.0,0.0,0.0,0.0,0.0,0.0,0.0,0.0,0.0,-2.6311,-2.6758,-2.7161,0.0,0.0,-2.7812,-2.8429,-2.8762,-2.9142,-2.9761,0.0,0.0,0.0,-3.0221,-3.0207,-3.0166,-3.0128,-3.0049,-3.0003,-2.9933,-2.9602,-2.8721,-2.8322,-2.7787,-2.6783,-2.5725,-2.5542,-2.6533,-2.6466,-2.6515,-2.7582,-2.7491,-2.7064,-2.3623,-2.3469,-2.2656,-2.2503,-2.2755,-2.2658,-2.28,-2.3083,-2.3019,-2.298,-2.2891,-2.2545,-2.2321,-2.2198,-2.1825,0.0,0.0,0.0,-2.2501,-2.3372,-2.3372,-2.3665,-2.4144,-2.3703,-2.3465,-2.3465,-2.2978,-2.2584,-2.2263,-2.2209,-2.1479,-2.0169,0.0,0.0,-2.0643,-2.0969,-2.1659,-2.2709,-2.3122,-2.36,-2.4162,-2.307,-2.1971,-2.0914,-1.9716,-1.8841,-1.8321,-1.795,-1.7148,-1.5842,-1.5336,-1.4698,0.0,0.0,0.0,0.0,0.0,0.0,0.0,0.0,0.0,0.0,0.0,-1.3854,0.0,0.0,0.0,0.0,-1.5687,-1.6116,-1.6277,-1.6994,0.0,0.0,0.0,0.0,0.0,0.0,0.0,-2.3879,-2.5208,-2.6431,-2.7278,-2.7811,-2.8162,-2.8348,-2.8389,-2.8616,-2.9162,0.0,-2.9493,-3.0047,-3.0152,-3.0175,-3.0161,-3.0138,-3.0099,-3.0049,-2.9946,-2.9917,-2.9865,-2.9771,-2.954,-2.9053,-2.8614,-2.8202,-2.7714,-2.6657,-2.6162,-2.7262,-2.7157,-2.7258,-2.8271,-2.8061,-2.7764,-2.5157,-2.4967,-2.3297,-2.3009,-2.3583,-2.3546,-2.3923,-2.4571,-2.4524,-2.4473,-2.4408,-2.3561,-2.3159,-2.3032,-2.2255,0.0,0.0,-2.2903,-2.3333,-2.4103,-2.4103,-2.4142,-2.4199,-2.419,-2.4199,-2.419,-2.4199,-2.3823,-2.3125,-2.3033,-2.2621,-2.1925,-2.1835,-2.1725,-2.1651,-2.2334,-2.2772,-2.2921,-2.3681,-2.4113,-2.4161,-2.2612,-2.168,-2.1469,-1.9992,-1.909,-1.8869,-1.8179,-1.7411,-1.6619,-1.5761,-1.4865,-1.3966,0.0,0.0,0.0,0.0,0.0,0.0,0.0,0.0,0.0,0.0,0.0,0.0,0.0,0.0,0.0,-1.6205,0.0,-1.6624,-1.8066,0.0,0.0,0.0,-2.2054,-2.2988,-2.3098,-2.3694,-2.5228,0.0,0.0,0.0,0.0,-2.9379,-2.9617,-2.9709,-2.979,-2.9861,-2.9822,-2.9893,-2.9956,-2.9972,-3.0013,-3.0063,-3.0022,-2.9956,-2.9907,-2.9833,-2.979,-2.9773,-2.9664,-2.9588,-2.9523,-2.8914,-2.8399,-2.8399,-2.7791,-2.7426,-2.7626,-2.7612,-2.7637,-2.7899,-2.7998,-2.8051,-2.5195,-2.512,-2.4601,-2.4456,-2.4563,-2.4445,-2.4437,-2.4512,-2.4437,-2.4375,-2.4266,-2.4036,-2.3897,-2.3821,-2.3571,-2.3588,-2.3772,-2.3781,-2.393,-2.4161,-2.417,-2.4181,-2.4199,-2.4199,-2.4199,-2.4199,-2.4199,-2.4098,-2.3914,-2.3896,-2.3794,-2.3611,-2.3602,-2.3216,-2.2527,-2.2633,-2.3033,-2.3695,-2.3876,-2.3937,-2.3939,-2.2942,-2.2046,-2.1354,-2.0325,-1.947,-1.8851,-1.8637,-1.8155,-1.7319,-1.6994,-1.6193,-1.4802,-1.4537,0.0,0.0,0.0,0.0,0.0,0.0,0.0,0.0,0.0,-1.4733,-1.5301,0.0,-1.677,0.0,-1.8533,-1.9451,-1.9717,-2.022,0.0,0.0,-2.2215,-2.2867,-2.3738,-2.3895,-2.4281,-2.5283,-2.6151,-2.7011,-2.7831,-2.8689,-2.9243,-2.931,-2.9442,-2.9541,-2.9598,-2.9645,-2.9699,-2.9779,-2.9867,-2.991,-2.9886,-2.9823,-2.9771,-2.9737,-2.9701,-2.9645,-2.9655,-2.9541,-2.9423,-2.9383,-2.9271,-2.9111,-2.9046,-2.8947,-2.8932,-2.908,-2.874,-2.8556,-2.92,-2.938,-2.945,-2.517,-2.5141,-2.5057,-2.4935,-2.4846,-2.4754,-2.4624,-2.4495,-2.4402,-2.4284,-2.4192,-2.4191,-2.4181,-2.4142,-2.4094,-2.4103,-2.4142,-2.4142,-2.418,-2.4199,-2.4199,-2.4199,-2.4199,-2.4199,-2.4199,-2.4199,-2.4199,-2.4199,-2.4199,-2.4199,-2.4181,-2.4151,-2.4133,-2.3874,-2.332,-2.332,-2.3537,-2.3946,-2.3849,-2.3795,-2.3774,-2.2911,-2.2195,-2.1655,-2.0497,-1.9655,-1.9162,-1.8834,-1.8285,-1.7471,-1.7354,-1.6755,-1.5471,-1.5279,-1.4975,0.0,0.0,0.0,0.0,0.0,0.0,0.0,0.0,0.0,0.0,0.0,-1.8048,0.0,-1.9769,0.0,-2.074,-2.1259,-2.1864,-2.2488,-2.3013,-2.3671,-2.4542,-2.4702,-2.5192,-2.6328,-2.6902,-2.7494,-2.83,-2.8791,-2.9112,-2.913,-2.9191,-2.9307,-2.939,-2.9433,-2.9502,-2.9589,-2.9672,-2.9719,-2.971,-2.9673,-2.9645,-2.9617,-2.9512,-2.9482,-2.9453,-2.9372,-2.9289,-2.9258,-2.9286,-2.9304,-2.9289,-2.9321,-2.9403,-2.9465,-2.9298,-2.9273,-2.978,-2.9933,-2.9978,-2.5141,-2.5089,-2.5014,-2.4908,-2.4791,-2.4698,-2.4599,-2.4478,-2.4348,-2.4247,-2.4201,-2.4171,-2.418,-2.418,-2.417,-2.418,-2.418,-2.4199,-2.4208,-2.4199,-2.4199,-2.4199,-2.4199,-2.4199,-2.4199,-2.4199,-2.4199,-2.4199,-2.4199,-2.4208,-2.418,-2.4103,-2.4065,-2.4016,-2.3896,-2.4005,-2.3976,-2.3855,-2.3741,-2.3655,-2.3625,-2.2839,-2.2291,-2.2002,-2.0595,-1.974,-1.9554,-1.8848,-1.8139,-1.7472,-1.7408,-1.6983,-1.61,-1.5946,-1.5852,0.0,-1.5716,0.0,0.0,0.0,0.0,0.0,0.0,0.0,0.0,-1.8716,-1.9525,-2.0294,-2.0521,-2.0742,-2.0984,-2.1808,-2.2455,-2.2662,-2.3547,-2.4454,-2.5191,-2.5454,-2.6117,-2.7631,-2.7796,-2.809,-2.8861,-2.8984,-2.9007,-2.9007,-2.9062,-2.9143,-2.9228,-2.9292,-2.9337,-2.9433,-2.9482,-2.9511,-2.9549,-2.9559,-2.952,-2.9471,-2.9373,-2.9272,-2.9282,-2.9246,-2.9209,-2.9178,-2.92,-2.9209,-2.9271,-2.9289,-2.9312,-2.9383,-2.9455,-2.9598,-2.9808,-2.9867,-2.9933,-2.5073,-2.4991,-2.488,-2.4798,-2.4726,-2.4582,-2.45,-2.4411,-2.4275,-2.4191,-2.4104,-2.4065,-2.4054,-2.4036,-2.4045,-2.4083,-2.4122,-2.4122,-2.4142,-2.4199,-2.4199,-2.4199,-2.4199,-2.4199,-2.4199,-2.4199,-2.4199,-2.4199,-2.4199,-2.4142,-2.4113,-2.4103,-2.3987,-2.3887,-2.3816,0.0,0.0,0.0,-2.349,-2.3398,-2.3295,-2.3124,-2.2623,-2.1799,-2.0903,0.0,-1.939,-1.8654,-1.8196,-1.8037,-1.799,0.0,0.0,0.0,0.0,0.0,0.0,0.0,0.0,0.0,0.0,0.0,-1.8479,-1.8562,-1.8716,-2.0026,-2.0935,-2.1191,-2.1884,-2.2425,-2.2614,-2.2962,-2.3253,-2.3489,-2.4259,-2.492,-2.5208,-2.5856,-2.6698,-2.7668,-2.7796,-2.8108,-2.887,-2.8984,-2.8984,-2.8984,-2.9007,-2.904,-2.9053,-2.9152,-2.924,-2.9274,-2.9316,-2.9356,-2.9365,-2.9347,-2.9347,-2.9265,-2.9234,-2.9212,-2.9212,-2.9222,-2.9187,-2.9143,-2.9175,-2.9187,-2.9143,-2.9218,-2.9307,-2.9321,-2.9423,-2.9569,-2.9711,-2.9773,-2.9876,-2.4989,0.0,-2.4807,-2.4692,0.0,-2.4454,-2.4367,-2.4294,-2.4228,-2.4143,-2.4045,-2.4025,-2.3978,-2.3978,-2.3978,-2.4016,-2.4045,-2.4065,-2.4113,-2.4142,-2.4181,-2.4199,-2.4199,-2.4199,-2.4199,-2.4199,-2.418,-2.4142,-2.4142,-2.4074,-2.4016,-2.3955,-2.3887,-2.3792,-2.3651,-2.3481,-2.3398,-2.3383,-2.3241,-2.3119,-2.307,-2.2952,-2.2668,-2.2134,0.0,0.0,0.0,0.0,0.0,0.0,0.0,0.0,0.0,0.0,0.0,-1.6787,-1.7063,-1.7244,-1.727,-1.7921,-1.8504,-1.886,-1.9595,-2.0035,-2.0044,-2.1146,-2.1889,-2.1942,-2.2461,-2.2885,-2.3095,-2.3289,-2.3636,-2.4235,-2.4707,-2.5325,-2.6235,-2.6803,-2.7427,-2.8205,-2.8402,-2.8576,-2.8929,-2.8984,-2.8984,-2.8984,-2.8984,-2.8984,-2.9017,-2.9053,-2.9121,-2.9134,-2.9218,-2.924,-2.9271,-2.9262,-2.924,-2.9209,-2.9197,-2.9165,-2.9143,-2.913,-2.9098,-2.9062,-2.9076,-2.9098,-2.9121,-2.9187,-2.9262,-2.9298,-2.9422,-2.9531,-2.9598,-2.9701,-2.9833,-2.4926,-2.4798,-2.4723,-2.4606,-2.45,-2.4349,-2.4219,-2.4122,0.0,0.0,0.0,-2.3965,-2.3965,-2.3955,-2.3955,-2.3967,-2.3996,-2.4045,-2.4074,-2.4103,-2.418,-2.4199,-2.4199,-2.4199,-2.4199,-2.4199,-2.4132,-2.4103,-2.4094,-2.4016,-2.3917,-2.3816,-2.3783,-2.3651,-2.343,-2.3175,-2.3119,-2.3184,-2.2995,-2.2868,-2.2833,-2.2659,-2.2587,-2.2569,-2.1797,-2.1071,-2.0381,-1.9648,-1.8907,-1.8191,-1.8149,-1.8089,-1.7909,-1.8019,-1.8042,-1.8006,-1.8115,-1.8177,-1.8177,-1.875,-1.9156,-1.9291,-2.0611,-2.1407,-2.1398,-2.2029,-2.2432,-2.2523,-2.2685,-2.2893,-2.3086,-2.343,-2.3939,-2.4819,-2.519,-2.6,-2.7355,-2.7784,-2.8182,-2.8847,-2.8938,-2.8975,-2.8975,-2.8984,-2.8984,-2.8984,-2.8984,-2.8984,-2.8984,-2.9007,-2.904,-2.9076,-2.9121,-2.9165,-2.9165,-2.9156,-2.9165,-2.9165,-2.913,-2.9076,-2.9076,-2.904,-2.9007,-2.9007,-2.8984,-2.903,-2.9076,-2.9134,-2.9218,-2.9262,-2.939,-2.9502,-2.9521,-2.9664,-2.9816,-2.4912,-2.4787,-2.4663,-2.4566,-2.4473,-2.4312,-2.4084,-2.3867,-2.3846,-2.3855,-2.3825,-2.3768,-2.3765,-2.3847,-2.3816,-2.3861,-2.3926,-2.3926,-2.4005,0.0,-2.4122,-2.4142,-2.4199,-2.4199,-2.4199,-2.4199,-2.4132,-2.4103,-2.4103,-2.3976,-2.3867,-2.3795,-2.3691,-2.3476,-2.316,-2.307,-2.2944,-2.279,-2.2721,-2.2667,-2.2552,-2.2506,-2.2487,-2.2407,-2.1718,-2.124,-2.1061,-2.0298,-1.9528,-1.8816,-1.8773,-1.8485,-1.7879,-1.8435,-1.8773,-1.8784,-1.9326,-1.9689,-1.9672,-1.9782,-2.0154,-2.0822,-2.1713,-2.2224,-2.2233,-2.24,-2.2515,-2.2587,-2.2764,-2.2936,-2.313,-2.3841,-2.4462,-2.4976,-2.6084,-2.7091,-2.7619,-2.8199,-2.8693,-2.8966,-2.8984,-2.8984,-2.8984,-2.8984,-2.8984,-2.8984,-2.8984,-2.8984,-2.8984,-2.8984,-2.9007,-2.9007,-2.9007,-2.9021,-2.903,-2.903,-2.9021,-2.903,-2.903,-2.903,-2.9007,-2.9017,-2.8984,-2.8984,-2.8984,-2.9007,-2.9021,-2.9112,-2.9187,-2.9231,-2.936,-2.9502,-2.9502,-2.9682,-2.9825,-2.4861,-2.4732,-2.4587,-2.4462,-2.433,-2.4095,-2.3885,-2.3738,-2.3682,-2.3673,-2.3747,-2.3712,-2.3721,-2.3752,-2.3765,-2.3807,-2.3841,-2.3894,-2.3917,-2.3996,-2.4056,-2.4113,-2.4142,-2.4181,-2.4181,-2.4142,-2.4065,-2.4025,-2.3967,-2.3903,-2.3801,-2.3738,-2.3513,-2.3274,-2.3036,-2.2936,-2.2799,-2.2579,-2.2587,-2.2533,-2.2424,-2.2413,-2.2386,-2.2349,-2.2019,-2.1654,-2.1194,-2.0839,-2.0297,-1.9545,-1.9494,-1.935,-1.903,-1.9333,-1.9511,-1.9519,-1.9816,-1.9993,-1.9993,-2.0424,-2.1009,-2.179,-2.219,-2.2432,-2.2523,-2.2533,-2.2587,-2.2667,-2.2816,-2.3135,-2.374,-2.4237,-2.4933,-2.6051,-2.6813,-2.747,-2.8118,-2.8521,-2.8839,-2.897,-2.8984,-2.8984,-2.8984,-2.8984,-2.8984,-2.8984,-2.8984,-2.8984,-2.8984,-2.8984,-2.8984,-2.8984,-2.8984,-2.8984,-2.8984,-2.8984,-2.8984,-2.8984,-2.8984,-2.8984,-2.8984,-2.8984,-2.8984,-2.8984,-2.8984,-2.8984,-2.9007,-2.9121,-2.9187,-2.9222,-2.9351,-2.9472,-2.9531,-2.9673,-2.9842,-2.4804,-2.4657,-2.4512,-2.4338,-2.4078,-2.3867,-2.3738,-2.3625,-2.3499,-2.3522,-2.3611,-2.3634,-2.3643,-2.3665,-2.3739,-2.3783,-2.3795,-2.3852,-2.3885,-2.3917,-2.4016,-2.4065,-2.4074,-2.4122,-2.4122,-2.4074,-2.4016,-2.3955,-2.3876,-2.3828,-2.3752,-2.3611,-2.3336,-2.3111,-2.297,-2.2842,-2.2694,-2.2515,-2.2496,-2.2424,-2.2386,-2.233,-2.2319,-2.2319,-2.2319,-2.204,-2.1481,-2.1439,-2.1084,-2.0331,-2.0281,-2.0179,-2.0018,-2.0179,-2.0255,-2.0263,-2.0415,-2.0508,-2.0542,-2.111,-2.173,-2.2326,-2.2441,-2.2479,-2.2614,-2.2641,-2.2659,-2.2738,-2.285,-2.3351,-2.4213,-2.4676,-2.5447,-2.697,-2.7398,-2.785,-2.8652,-2.8804,-2.8843,-2.8952,-2.8984,-2.8984,-2.8984,-2.8984,-2.8984,-2.8984,-2.8984,-2.8984,-2.8984,-2.8984,-2.8984,-2.8984,-2.8984,-2.8984,-2.8984,-2.8984,-2.8984,-2.8984,-2.8984,-2.8984,-2.8984,-2.8984,-2.8984,-2.8984,-2.8984,-2.8984,-2.9017,-2.9108,-2.9197,-2.92,-2.9342,-2.9512,-2.957,-2.9709,-2.9876,-2.477,-2.4591,-2.4428,-2.4135,-2.3837,-2.3747,-2.3634,-2.3508,-2.3392,-2.3336,-2.336,-2.3424,-2.3462,-2.3517,-2.3576,-2.3696,-2.3804,-2.3795,-2.3841,-2.3896,-2.3917,-2.3946,-2.4016,-2.4016,-2.4025,-2.3996,-2.3946,-2.3867,-2.3825,-2.3789,-2.3665,-2.343,-2.3226,-2.3045,-2.2902,-2.279,-2.2641,-2.2487,-2.2441,-2.2377,-2.2319,-2.2319,-2.2319,-2.2319,-2.2319,-2.2276,-2.2158,-2.2172,-2.1862,-2.116,-2.1067,-2.0754,-2.0187,-2.0695,-2.1094,-2.1127,-2.1693,-2.2107,-2.2082,-2.2205,-2.2292,-2.2388,-2.2515,-2.2614,-2.2685,-2.2738,-2.279,-2.2833,-2.297,-2.3462,-2.4344,-2.5185,-2.611,-2.7166,-2.7908,-2.8506,-2.8743,-2.8804,-2.8858,-2.8994,-2.8984,-2.8984,-2.8984,-2.8984,-2.8984,-2.8984,-2.8984,-2.8984,-2.8984,-2.8984,-2.8984,-2.8984,-2.8984,-2.8984,-2.8984,-2.8984,-2.8984,-2.8984,-2.8984,-2.8984,-2.8984,-2.8984,-2.8984,-2.8984,-2.8984,-2.8984,-2.903,-2.9098,-2.9197,-2.9222,-2.9342,-2.9541,-2.97,-2.9816,-2.9936,-2.4774,-2.4578,-2.4393,-2.4077,-2.3738,-2.3634,-2.3508,-2.336,-2.3241,-2.3217,-2.3241,-2.3232,-2.3313,-2.343,-2.3508,-2.3629,-2.3761,-2.3783,-2.381,-2.3855,-2.3867,-2.3926,-2.3937,-2.3985,-2.3976,-2.3946,-2.3917,-2.3864,-2.3807,-2.3687,-2.3485,-2.3241,-2.3095,-2.297,-2.2833,-2.2703,-2.2587,-2.2515,-2.2432,-2.2366,-2.231,-2.2319,-2.2319,-2.2319,-2.2319,-2.2319,-2.2319,-2.2319,-2.213,-2.187,-2.1854,-2.1701,-2.137,-2.1684,-2.1837,-2.1862,-2.2124,-2.231,-2.2366,-2.2377,-2.2441,-2.2523,-2.2614,-2.2685,-2.2764,-2.2885,-2.2986,-2.2995,-2.3052,-2.3668,-2.5061,-2.5659,-2.6421,-2.7668,-2.8346,-2.8637,-2.8795,-2.8843,-2.8905,-2.8984,-2.8984,-2.8984,-2.8984,-2.8984,-2.8984,-2.8984,-2.8984,-2.8984,-2.8984,-2.8984,-2.8984,-2.8984,-2.8984,-2.8984,-2.8984,-2.8984,-2.8984,-2.8984,-2.8984,-2.8984,-2.8984,-2.8984,-2.8984,-2.8984,-2.8984,-2.8984,-2.8984,-2.9098,-2.9209,-2.9234,-2.9342,-2.9541,-2.9754,-2.9842,-2.9936,-2.4749,-2.4538,-2.4293,-2.4005,-2.3674,-2.353,-2.3392,-2.3241,-2.3111,-2.3095,-2.3102,-2.3086,-2.3168,-2.3321,-2.3424,-2.3522,-2.3634,-2.3721,-2.3768,-2.3792,-2.3846,-2.3867,-2.3876,-2.3917,-2.3917,-2.3876,-2.3864,-2.3819,-2.3718,-2.3539,-2.3313,-2.3119,-2.302,-2.2919,-2.2799,-2.2632,-2.2542,-2.2487,-2.2396,-2.2349,-2.2319,-2.2319,-2.2319,-2.2319,-2.2319,-2.2319,-2.2319,-2.2319,-2.2319,-2.2319,-2.2319,-2.2319,-2.2319,-2.2319,-2.2319,-2.2319,-2.231,-2.2366,-2.2405,-2.2441,-2.2506,-2.2614,-2.2685,-2.2764,-2.2885,-2.3011,-2.3135,-2.3226,-2.3208,-2.3959,-2.557,-2.5938,-2.6684,-2.824,-2.8578,-2.8696,-2.8785,-2.8848,-2.8919,-2.8984,-2.8984,-2.8984,-2.8984,-2.8984,-2.8984,-2.8984,-2.8984,-2.8984,-2.8984,-2.8984,-2.8984,-2.8984,-2.8984,-2.8984,-2.8984,-2.8984,-2.8984,-2.8984,-2.8984,-2.8984,-2.8984,-2.8984,-2.8984,-2.8984,-2.8984,-2.9007,-2.9053,-2.9143,-2.9252,-2.9307,-2.9422,-2.957,-2.9773,-2.9859,-2.9968,-2.4685,-2.4442,-2.4078,-2.3819,-2.3576,-2.3462,-2.3298,-2.3111,-2.3036,-2.2961,-2.2944,-2.2986,-2.3036,-2.3135,-2.3321,-2.3439,-2.3508,-2.3634,-2.3752,-2.3786,-2.3801,-2.3816,-2.3804,-2.3816,-2.3825,-2.3813,-2.3828,-2.37,-2.3539,-2.3369,-2.3241,-2.3086,-2.2961,-2.2833,-2.2703,-2.2587,-2.2468,-2.2413,-2.2338,-2.231,-2.2319,-2.2319,-2.2319,-2.2319,-2.2319,-2.2319,-2.2319,-2.2319,-2.2319,-2.2319,-2.2319,-2.2319,-2.2319,-2.2319,-2.2319,-2.231,-2.2358,-2.2386,-2.2413,-2.2515,-2.2623,-2.2685,-2.2756,-2.2868,-2.3036,-2.3102,-2.3223,-2.3439,-2.3471,-2.4159,-2.5636,-2.6009,-2.6754,-2.8265,-2.8628,-2.8718,-2.8785,-2.8872,-2.8919,-2.8984,-2.8984,-2.8984,-2.8984,-2.8984,-2.8984,-2.8984,-2.8984,-2.8984,-2.8984,-2.8984,-2.8984,-2.8984,-2.8984,-2.8984,-2.8984,-2.8984,-2.8984,-2.8984,-2.8984,-2.8984,-2.8984,-2.8984,-2.8984,-2.8984,-2.8984,-2.903,-2.9098,-2.9178,-2.9298,-2.9381,-2.9491,-2.9655,-2.9782,-2.99,-3.0007,-2.4617,-2.4275,-2.3969,-2.3716,-2.3508,-2.3336,-2.3201,-2.3028,-2.2919,-2.2876,-2.2885,-2.2885,-2.2944,-2.3036,-2.316,-2.3313,-2.3476,-2.3607,-2.3687,-2.3783,-2.3807,-2.3801,-2.3804,-2.3804,-2.3792,-2.3798,-2.3795,-2.3665,-2.343,-2.3265,-2.3095,-2.2986,-2.2885,-2.2764,-2.2641,-2.2569,-2.246,-2.2422,-2.233,-2.2319,-2.2319,-2.2319,-2.2319,-2.2319,-2.2319,-2.2319,-2.2319,-2.2319,-2.2319,-2.2319,-2.2319,-2.2319,-2.2319,-2.2319,-2.231,-2.2358,-2.2377,-2.2432,-2.2506,-2.2614,-2.2677,-2.2764,-2.2902,-2.3011,-2.3119,-2.3274,-2.3392,-2.3485,-2.3629,-2.4406,-2.5601,-2.6078,-2.6772,-2.8266,-2.8703,-2.8776,-2.8848,-2.8919,-2.8975,-2.8994,-2.8984,-2.8984,-2.8984,-2.8984,-2.8984,-2.8984,-2.8984,-2.8984,-2.8984,-2.8984,-2.8984,-2.8984,-2.8984,-2.8984,-2.8984,-2.8984,-2.8984,-2.8984,-2.8984,-2.8984,-2.8984,-2.8984,-2.8984,-2.8984,-2.8984,-2.904,-2.913,-2.9212,-2.933,-2.9471,-2.9579,-2.9682,-2.9782,-2.9917,-3.0007,-2.4478,-2.4152,-2.3885,-2.3651,-2.3462,-2.3247,-2.3086,-2.2961,-2.2842,-2.2816,-2.2825,-2.2808,-2.2868,-2.297,-2.3061,-2.3217,-2.3439,-2.3517,-2.3652,-2.3761,-2.3795,-2.3798,-2.3804,-2.3813,-2.3798,-2.3804,-2.3739,-2.3567,-2.3374,-2.3184,-2.3036,-2.2919,-2.2808,-2.2703,-2.2596,-2.2497,-2.2432,-2.2386,-2.2321,-2.2319,-2.2319,-2.2319,-2.2319,-2.2319,-2.2319,-2.2319,-2.2319,-2.2319,-2.2319,-2.2319,-2.2319,-2.2319,-2.2319,-2.2319,-2.2338,-2.2394,-2.2422,-2.2479,-2.2587,-2.2685,-2.2756,-2.2859,-2.3011,-2.3102,-2.3199,-2.3401,-2.3508,-2.3598,-2.3748,-2.4449,-2.5719,-2.6186,-2.6879,-2.834,-2.8785,-2.8858,-2.8914,-2.8961,-2.8984,-2.8984,-2.8984,-2.8975,-2.8952,-2.8961,-2.8961,-2.8952,-2.897,-2.8961,-2.8984,-2.8984,-2.8984,-2.8984,-2.8984,-2.8984,-2.8984,-2.8984,-2.8984,-2.8984,-2.8984,-2.8984,-2.8984,-2.8984,-2.8984,-2.8984,-2.903,-2.9085,-2.9165,-2.9267,-2.9401,-2.9511,-2.9617,-2.9718,-2.9833,-2.9933,-3.0038,-2.4284,-2.4074,-2.3828,-2.3589,-2.3374,-2.3184,-2.302,-2.2919,-2.2825,-2.2773,-2.2747,-2.2764,-2.2833,-2.291,-2.3003,-2.316,-2.3289,-2.343,-2.3553,-2.3709,-2.3752,-2.3777,-2.3783,-2.3789,-2.3765,-2.3761,-2.3598,-2.3448,-2.3298,-2.3135,-2.302,-2.2893,-2.2764,-2.2632,-2.2497,-2.2441,-2.2394,-2.231,-2.231,-2.2319,-2.2319,-2.2319,-2.2319,-2.2319,-2.2319,-2.2319,-2.2319,-2.2319,-2.2319,-2.2319,-2.2319,-2.2319,-2.2319,-2.2319,-2.2347,-2.2413,-2.2451,-2.2542,-2.2623,-2.2729,-2.2859,-2.2995,-2.307,-2.3208,-2.3415,-2.3494,-2.3576,-2.3743,-2.3843,-2.4469,-2.5914,-2.634,-2.7018,-2.8418,-2.8825,-2.8881,-2.8929,-2.8961,-2.8984,-2.8994,-2.8961,-2.8961,-2.8929,-2.8905,-2.8905,-2.8905,-2.8896,-2.8905,-2.897,-2.8961,-2.8984,-2.8984,-2.8984,-2.8984,-2.8984,-2.8984,-2.8984,-2.8984,-2.8984,-2.8984,-2.8984,-2.8984,-2.8984,-2.9007,-2.9076,-2.913,-2.9222,-2.933,-2.9451,-2.9579,-2.9673,-2.9744,-2.9848,-2.9956,-3.0044,-2.4294,-2.4074,-2.3816,-2.3567,-2.3313,-2.3111,-2.2961,-2.2825,-2.2764,-2.2703,-2.2712,-2.2703,-2.2773,-2.2833,-2.2927,-2.3036,-2.3168,-2.3313,-2.3453,-2.3607,-2.3652,-2.3687,-2.3725,-2.3743,-2.3687,-2.3576,-2.343,-2.3298,-2.3177,-2.3028,-2.2928,-2.2842,-2.2685,-2.2587,-2.2515,-2.2441,-2.2358,-2.2319,-2.2319,-2.2319,-2.2319,-2.2319,-2.2319,-2.2319,-2.2319,-2.2319,-2.2319,-2.2319,-2.2319,-2.2319,-2.2319,-2.2319,-2.2319,-2.2319,-2.2375,-2.2451,-2.2479,-2.2579,-2.2703,-2.2808,-2.2936,-2.3061,-2.3168,-2.3313,-2.3485,-2.3598,-2.3691,-2.381,-2.3882,-2.4542,-2.5962,-2.6438,-2.715,-2.8675,-2.8881,-2.8929,-2.8952,-2.8938,-2.8914,-2.8867,-2.8867,-2.8834,-2.8834,-2.8834,-2.8834,-2.8843,-2.8825,-2.8825,-2.8867,-2.8914,-2.8919,-2.8929,-2.8952,-2.8984,-2.8984,-2.8984,-2.8984,-2.8984,-2.8984,-2.8984,-2.8984,-2.8984,-2.8984,-2.9053,-2.9121,-2.9209,-2.9289,-2.9401,-2.952,-2.9636,-2.9709,-2.9797,-2.9872,-2.9978,-3.0074,-2.4247,-2.4025,-2.3743,-2.3476,-2.3241,-2.3036,-2.2919,-2.2816,-2.2738,-2.2712,-2.2712,-2.2712,-2.2738,-2.2808,-2.2859,-2.2961,-2.3102,-2.325,-2.3383,-2.3526,-2.3585,-2.3629,-2.3687,-2.3656,-2.3598,-2.3453,-2.336,-2.3232,-2.3095,-2.2961,-2.285,-2.2764,-2.2641,-2.2542,-2.246,-2.2405,-2.233,-2.2319,-2.2319,-2.2319,-2.2319,-2.2319,-2.2319,-2.2319,-2.2319,-2.2319,-2.2319,-2.2319,-2.2319,-2.2319,-2.2319,-2.2319,-2.2319,-2.2319,-2.2358,-2.246,-2.2515,-2.2587,-2.2773,-2.2885,-2.2977,-2.3135,-2.328,-2.343,-2.3553,-2.3678,-2.3768,-2.3834,-2.3905,-2.4622,-2.6091,-2.6499,-2.7262,-2.8745,-2.8938,-2.8938,-2.8961,-2.891,-2.8839,-2.881,-2.8813,-2.8795,-2.8761,-2.8761,-2.8761,-2.8761,-2.8752,-2.8785,-2.8795,-2.8834,-2.8858,-2.8881,-2.8938,-2.8961,-2.8984,-2.8984,-2.8984,-2.8984,-2.8984,-2.8984,-2.8984,-2.8984,-2.9007,-2.9098,-2.9197,-2.9265,-2.936,-2.9462,-2.9579,-2.9682,-2.9763,-2.9874,-2.9972,-3.0019,-3.0104,-2.4182,-2.3946,-2.3634,-2.3383,-2.3184,-2.2977,-2.2859,-2.2782,-2.2738,-2.2712,-2.2712,-2.2712,-2.2747,-2.2816,-2.2868,-2.297,-2.3086,-2.3232,-2.3336,-2.3415,-2.3517,-2.3607,-2.3674,-2.3589,-2.3508,-2.3383,-2.3313,-2.3208,-2.307,-2.2936,-2.2851,-2.2694,-2.2552,-2.246,-2.2413,-2.2347,-2.2319,-2.2319,-2.2319,-2.2319,-2.2319,-2.2319,-2.2319,-2.2319,-2.2319,-2.2319,-2.2319,-2.2319,-2.2319,-2.2319,-2.2319,-2.2319,-2.2319,-2.2319,-2.2358,-2.2487,-2.2487,-2.2614,-2.2799,-2.2919,-2.3061,-2.3199,-2.336,-2.3553,-2.3647,-2.3752,-2.381,-2.3896,-2.3967,-2.4648,-2.5969,-2.6524,-2.7325,-2.8645,-2.8961,-2.8961,-2.8905,-2.8821,-2.8764,-2.8743,-2.877,-2.8746,-2.8678,-2.8678,-2.8678,-2.8687,-2.8678,-2.8687,-2.8746,-2.877,-2.8819,-2.8867,-2.8891,-2.8929,-2.8952,-2.8984,-2.8984,-2.8984,-2.8984,-2.9017,-2.9007,-2.9007,-2.9053,-2.9165,-2.9222,-2.9319,-2.9411,-2.9531,-2.9626,-2.9709,-2.9833,-2.9949,-3.0028,-3.0074,-3.0147,-2.4192,-2.3976,-2.3634,-2.336,-2.3102,-2.297,-2.2833,-2.2738,-2.2703,-2.2712,-2.2712,-2.2712,-2.2712,-2.2747,-2.2868,-2.2902,-2.3011,-2.3217,-2.3313,-2.3336,-2.3462,-2.3548,-2.3548,-2.3485,-2.3415,-2.3321,-2.3226,-2.3086,-2.2952,-2.285,-2.2764,-2.2641,-2.2533,-2.2468,-2.2405,-2.233,-2.2319,-2.2319,-2.2319,-2.2282,-2.2282,-2.2282,-2.2319,-2.2319,-2.2282,-2.2282,-2.2319,-2.2319,-2.2319,-2.2319,-2.2319,-2.2319,-2.2319,-2.2347,-2.2422,-2.2487,-2.2569,-2.2667,-2.2842,-2.297,-2.3077,-2.3256,-2.3424,-2.3553,-2.37,-2.3768,-2.3855,-2.3946,-2.4063,-2.4505,-2.5546,-2.627,-2.7325,-2.8572,-2.8929,-2.8891,-2.8758,-2.8697,-2.8621,-2.8576,-2.8543,-2.8518,-2.851,-2.8493,-2.8475,-2.8475,-2.851,-2.8536,-2.8587,-2.8637,-2.8687,-2.8785,-2.8834,-2.8872,-2.8919,-2.8961,-2.8994,-2.8984,-2.9017,-2.9026,-2.904,-2.9062,-2.9121,-2.9231,-2.9267,-2.9342,-2.9462,-2.9579,-2.9682,-2.9754,-2.9857,-2.9972,-3.0059,-3.0128,-3.0199,-2.4201,-2.3976,-2.3669,-2.3374,-2.3126,-2.297,-2.2833,-2.2738,-2.2703,-2.2712,-2.2712,-2.2712,-2.2712,-2.2738,-2.2859,-2.291,-2.297,-2.3193,-2.328,-2.3304,-2.3439,-2.3503,-2.3471,-2.3415,-2.3345,-2.3265,-2.3144,-2.3036,-2.2902,-2.2799,-2.2694,-2.2569,-2.2496,-2.2449,-2.2366,-2.231,-2.2291,-2.2254,-2.2271,-2.2254,-2.2183,-2.2192,-2.2155,-2.2183,-2.2183,-2.2183,-2.2183,-2.2217,-2.2262,-2.2291,-2.2319,-2.2319,-2.2319,-2.2375,-2.2441,-2.2506,-2.2596,-2.2712,-2.2885,-2.3011,-2.3135,-2.328,-2.3462,-2.3598,-2.37,-2.3771,-2.3896,-2.3996,-2.4065,-2.4554,-2.5383,-2.6389,-2.7533,-2.856,-2.8801,-2.8761,-2.8644,-2.8601,-2.8542,-2.8466,-2.8406,-2.8353,-2.8362,-2.8336,-2.8336,-2.8362,-2.8389,-2.8397,-2.844,-2.8501,-2.8578,-2.8662,-2.8761,-2.8801,-2.8872,-2.8938,-2.8984,-2.8998,-2.9062,-2.9072,-2.9076,-2.9121,-2.92,-2.9277,-2.9312,-2.9373,-2.9521,-2.9655,-2.9718,-2.9814,-2.9898,-2.9988,-3.0074,-3.0147,-3.0226,-2.4275,-2.3987,-2.3734,-2.3467,-2.3184,-2.2986,-2.2868,-2.2782,-2.2729,-2.2712,-2.2712,-2.2712,-2.2738,-2.2782,-2.2859,-2.2927,-2.302,-2.3226,-2.328,-2.336,-2.3424,-2.3453,-2.3401,-2.3392,-2.3313,-2.3184,-2.3111,-2.2995,-2.2859,-2.2756,-2.2632,-2.2515,-2.2441,-2.2394,-2.231,-2.2291,-2.2262,-2.2197,-2.2189,-2.2135,-2.2064,-2.2044,-2.2036,-2.2036,-2.2036,-2.2036,-2.2036,-2.2098,-2.2189,-2.2282,-2.2291,-2.2319,-2.231,-2.2366,-2.2441,-2.2515,-2.2614,-2.2764,-2.2885,-2.3086,-2.3217,-2.3313,-2.3535,-2.37,-2.373,-2.3801,-2.3935,-2.3987,-2.4074,-2.4545,-2.5362,-2.6667,-2.7602,-2.8291,-2.8474,-2.8587,-2.8545,-2.8502,-2.845,-2.8398,-2.8309,-2.8263,-2.8255,-2.821,-2.8191,-2.8228,-2.8228,-2.8273,-2.8318,-2.838,-2.8484,-2.8587,-2.8662,-2.8752,-2.8834,-2.8914,-2.8952,-2.8998,-2.9108,-2.9162,-2.9169,-2.9203,-2.9258,-2.9312,-2.9403,-2.9492,-2.9617,-2.9719,-2.9779,-2.9865,-2.9956,-3.0044,-3.0128,-3.0189,-3.0257,-2.432,-2.4058,-2.3789,-2.3513,-2.3256,-2.3061,-2.291,-2.279,-2.2738,-2.2703,-2.2712,-2.2712,-2.2738,-2.2816,-2.2868,-2.2936,-2.3028,-2.3208,-2.3327,-2.3453,-2.3415,-2.3383,-2.3336,-2.3321,-2.325,-2.3119,-2.2995,-2.2928,-2.2816,-2.2685,-2.2596,-2.2487,-2.2432,-2.2349,-2.2319,-2.2254,-2.2197,-2.216,-2.2089,-2.2027,-2.1998,-2.1998,-2.1978,-2.1978,-2.1998,-2.1998,-2.199,-2.2036,-2.2098,-2.2205,-2.2271,-2.2291,-2.2302,-2.2366,-2.2441,-2.2515,-2.2641,-2.2764,-2.291,-2.3086,-2.3241,-2.3313,-2.3544,-2.3718,-2.3721,-2.3868,-2.3962,-2.4005,-2.4121,-2.4499,-2.5267,-2.6065,-2.6922,-2.7613,-2.8155,-2.8413,-2.8345,-2.8273,-2.8273,-2.8245,-2.8162,-2.8067,-2.8071,-2.8034,-2.8034,-2.8062,-2.809,-2.8118,-2.82,-2.8255,-2.8389,-2.8519,-2.8587,-2.8678,-2.881,-2.8905,-2.8998,-2.9058,-2.9165,-2.924,-2.9246,-2.93,-2.9383,-2.9453,-2.9521,-2.9636,-2.971,-2.9798,-2.9865,-2.994,-3.0028,-3.0089,-3.0161,-3.0221,-3.0251,-2.4391,-2.4059,-2.3813,-2.3571,-2.3336,-2.3144,-2.2952,-2.2833,-2.2782,-2.2729,-2.2738,-2.2738,-2.2825,-2.2936,-2.2953,-2.2986,-2.3111,-2.3256,-2.3407,-2.3462,-2.3415,-2.3369,-2.328,-2.3217,-2.3144,-2.3036,-2.297,-2.2877,-2.2738,-2.2624,-2.2497,-2.2441,-2.2394,-2.231,-2.2271,-2.2205,-2.214,-2.2057,-2.1986,-2.1932,-2.192,-2.1861,-2.1861,-2.1869,-2.1869,-2.1878,-2.189,-2.1932,-2.1995,-2.2086,-2.2197,-2.2262,-2.2302,-2.2366,-2.2432,-2.2506,-2.2641,-2.2764,-2.2919,-2.307,-2.3217,-2.3289,-2.3544,-2.3665,-2.3761,-2.3886,-2.3971,-2.4025,-2.4158,-2.4491,-2.5162,-2.5451,-2.6168,-2.7142,-2.7621,-2.7896,-2.8129,-2.8209,-2.8173,-2.8099,-2.7957,-2.79,-2.7862,-2.7862,-2.7862,-2.7844,-2.7873,-2.7931,-2.8126,-2.8209,-2.8318,-2.8415,-2.851,-2.8603,-2.8785,-2.8905,-2.9035,-2.9125,-2.9212,-2.9298,-2.933,-2.9412,-2.9521,-2.9569,-2.9636,-2.9709,-2.9808,-2.9874,-2.9946,-3.0019,-3.0089,-3.0147,-3.0203,-3.0238,-3.0276,-2.4442,-2.4117,-2.3869,-2.3642,-2.343,-2.3217,-2.3052,-2.2944,-2.2833,-2.2799,-2.2808,-2.2799,-2.2902,-2.3039,-2.3038,-2.3086,-2.3232,-2.3313,-2.3439,-2.3485,-2.3415,-2.3345,-2.3265,-2.3168,-2.3061,-2.2986,-2.291,-2.2808,-2.2694,-2.256,-2.2479,-2.2422,-2.231,-2.2262,-2.2214,-2.2177,-2.2065,-2.1907,-2.1878,-2.184,-2.1768,-2.1716,-2.1708,-2.1716,-2.1724,-2.1724,-2.1768,-2.1819,-2.1869,-2.1907,-2.2065,-2.2197,-2.2282,-2.2366,-2.2449,-2.2479,-2.2614,-2.2729,-2.2919,-2.3103,-2.325,-2.3313,-2.3544,-2.3687,-2.3761,-2.3856,-2.3962,-2.4014,-2.412,-2.4322,-2.4935,-2.515,-2.5697,-2.6561,-2.69,-2.7379,-2.7816,-2.8056,-2.8025,-2.7968,-2.7786,-2.7698,-2.7668,-2.7638,-2.7638,-2.7668,-2.7689,-2.7777,-2.7968,-2.8154,-2.8228,-2.8336,-2.8432,-2.8603,-2.8761,-2.8975,-2.9102,-2.9191,-2.9277,-2.9372,-2.9433,-2.9531,-2.9617,-2.9664,-2.9719,-2.979,-2.9857,-2.993,-3.0009,-3.0094,-3.0147,-3.0189,-3.0234,-3.0276,-3.0301,-2.4552,-2.4319,-2.4058,-2.3831,-2.3634,-2.3374,-2.3193,-2.3052,-2.2936,-2.2876,-2.2893,-2.2893,-2.2944,-2.3029,-2.307,-2.3184,-2.3336,-2.3392,-2.3439,-2.3462,-2.3383,-2.3304,-2.3274,-2.3095,-2.2986,-2.2919,-2.2833,-2.2729,-2.2641,-2.2542,-2.2468,-2.2386,-2.2291,-2.2214,-2.216,-2.2057,-2.1924,-2.1827,-2.1776,-2.1716,-2.1664,-2.1634,-2.1612,-2.1612,-2.1612,-2.1612,-2.1642,-2.1716,-2.1751,-2.1802,-2.1899,-2.2057,-2.2189,-2.2282,-2.2358,-2.2496,-2.2569,-2.2685,-2.2893,-2.3095,-2.3217,-2.3336,-2.3544,-2.3678,-2.3721,-2.3816,-2.3921,-2.3985,-2.4005,-2.4087,-2.4117,-2.4586,-2.4969,-2.5521,-2.6213,-2.6925,-2.7129,-2.7407,-2.7718,-2.773,-2.7621,-2.7548,-2.7526,-2.7496,-2.7526,-2.7557,-2.7587,-2.7659,-2.7798,-2.7988,-2.8109,-2.8246,-2.8353,-2.8562,-2.8761,-2.8998,-2.9178,-2.9274,-2.9349,-2.9462,-2.955,-2.9626,-2.9711,-2.9746,-2.9808,-2.9857,-2.993,-2.9994,-3.0055,-3.0114,-3.0166,-3.0207,-3.0251,-3.0301,-3.0323,-2.462,-2.4391,-2.4125,-2.3924,-2.3669,-2.3485,-2.3304,-2.3135,-2.3036,-2.302,-2.302,-2.3011,-2.3028,-2.3111,-2.3193,-2.3298,-2.3369,-2.3439,-2.3448,-2.3448,-2.336,-2.328,-2.325,-2.3036,-2.2944,-2.2877,-2.2773,-2.2659,-2.256,-2.2506,-2.2441,-2.2366,-2.2262,-2.216,-2.2069,-2.1936,-2.1819,-2.1746,-2.1694,-2.1642,-2.1581,-2.1534,-2.1503,-2.1511,-2.1511,-2.155,-2.1589,-2.162,-2.1694,-2.1746,-2.1827,-2.1945,-2.2069,-2.2209,-2.2293,-2.246,-2.2542,-2.2667,-2.2859,-2.3036,-2.3126,-2.3321,-2.353,-2.3634,-2.373,-2.3834,-2.391,-2.3962,-2.3955,-2.3946,-2.3942,-2.4248,-2.4473,-2.4854,-2.5459,-2.602,-2.6523,-2.6821,-2.7148,-2.7439,-2.7478,-2.7443,-2.7452,-2.7421,-2.7421,-2.7452,-2.7505,-2.7578,-2.7672,-2.7856,-2.8044,-2.8264,-2.8423,-2.8628,-2.8834,-2.9044,-2.9243,-2.9307,-2.944,-2.9559,-2.9636,-2.9728,-2.9773,-2.9806,-2.9881,-2.9946,-2.9984,-3.0055,-3.009,-3.0142,-3.0207,-3.0257,-3.0286,-3.0314,-3.0357,-2.4687,-2.4433,-2.4229,-2.3985,-2.3756,-2.3611,-2.3453,-2.3265,-2.3184,-2.3135,-2.3144,-2.3135,-2.316,-2.3217,-2.3289,-2.336,-2.3415,-2.3503,-2.3471,-2.3392,-2.3336,-2.3265,-2.3144,-2.302,-2.2885,-2.2842,-2.2712,-2.2552,-2.2506,-2.2479,-2.2413,-2.2302,-2.2189,-2.2077,-2.1957,-2.184,-2.1738,-2.1648,-2.1573,-2.1559,-2.1489,-2.1411,-2.134,-2.134,-2.134,-2.1388,-2.1458,-2.1528,-2.1573,-2.1617,-2.1721,-2.184,-2.1949,-2.2077,-2.2237,-2.2424,-2.2487,-2.2641,-2.2842,-2.2961,-2.3102,-2.328,-2.3453,-2.3589,-2.37,-2.3816,-2.3891,-2.3951,-2.3953,-2.3905,-2.3864,-2.3838,-2.4024,-2.4341,-2.4593,-2.4932,-2.5719,-2.6247,-2.6664,-2.6931,-2.7186,-2.7359,-2.7359,-2.7376,-2.7376,-2.7399,-2.746,-2.7526,-2.7621,-2.7864,-2.8072,-2.8344,-2.8552,-2.8752,-2.8929,-2.9089,-2.9234,-2.933,-2.9491,-2.9645,-2.9719,-2.9789,-2.9848,-2.9898,-2.9972,-3.0034,-3.0085,-3.0114,-3.0166,-3.0217,-3.0266,-3.0305,-3.0301,-3.0336,-3.0379,-2.479,-2.4642,-2.4393,-2.4162,-2.3965,-2.3753,-2.3598,-2.3453,-2.3383,-2.3354,-2.3274,-2.3256,-2.328,-2.3313,-2.3369,-2.3424,-2.348,-2.3494,-2.3462,-2.3392,-2.3313,-2.3232,-2.3111,-2.2986,-2.2868,-2.279,-2.265,-2.2552,-2.2479,-2.2441,-2.2347,-2.2234,-2.2106,-2.1986,-2.184,-2.1768,-2.1617,-2.1448,-2.1379,-2.1302,-2.1183,-2.1159,-2.1159,-2.1151,-2.1151,-2.1175,-2.127,-2.1333,-2.1371,-2.1464,-2.1609,-2.1738,-2.1819,-2.194,-2.2118,-2.2285,-2.2468,-2.2623,-2.2842,-2.2961,-2.3061,-2.3256,-2.3415,-2.3544,-2.37,-2.3819,-2.3864,-2.3816,-2.3867,-2.3864,-2.3819,-2.3765,-2.3755,-2.387,-2.4153,-2.4316,-2.4813,-2.5474,-2.5909,-2.6524,-2.6769,-2.7115,-2.7287,-2.7313,-2.733,-2.7353,-2.7438,-2.7505,-2.76,-2.7873,-2.8127,-2.8397,-2.8628,-2.8834,-2.898,-2.9147,-2.9298,-2.9383,-2.9531,-2.9701,-2.979,-2.9874,-2.9956,-3.0003,-3.0074,-3.0118,-3.0161,-3.0203,-3.024,-3.0257,-3.0296,-3.0311,-3.0304,-3.0348,-3.0388,-2.4951,-2.4751,-2.4495,-2.4275,-2.4048,-2.3896,-2.3759,-2.3656,-2.3553,-2.3462,-2.3424,-2.3407,-2.3407,-2.3407,-2.3448,-2.3453,-2.3485,-2.3494,-2.3439,-2.336,-2.3304,-2.3199,-2.307,-2.2944,-2.2877,-2.2747,-2.2623,-2.2506,-2.2432,-2.2386,-2.2282,-2.2197,-2.204,-2.189,-2.1781,-2.1686,-2.1526,-2.1371,-2.123,-2.1167,-2.1103,-2.107,-2.107,-2.107,-2.107,-2.1103,-2.1127,-2.1207,-2.1285,-2.1379,-2.1526,-2.1694,-2.1789,-2.192,-2.2064,-2.2274,-2.2441,-2.2587,-2.2764,-2.2893,-2.3011,-2.3184,-2.3345,-2.353,-2.3709,-2.3807,-2.3843,-2.3804,-2.3816,-2.3813,-2.3786,-2.3752,-2.362,-2.3627,-2.3726,-2.3923,-2.4156,-2.4558,-2.5108,-2.5775,-2.6394,-2.6738,-2.7052,-2.7207,-2.7233,-2.7353,-2.743,-2.7505,-2.7668,-2.7922,-2.8182,-2.8449,-2.8678,-2.8905,-2.9048,-2.9172,-2.936,-2.9472,-2.958,-2.9736,-2.9841,-2.993,-3.0019,-3.0089,-3.0123,-3.0189,-3.024,-3.0253,-3.0279,-3.0286,-3.0301,-3.0326,-3.0326,-3.0357,-3.0388,-2.5087,-2.4861,-2.4626,-2.4391,-2.4173,-2.4047,-2.3915,-2.3807,-2.37,-2.3611,-2.3562,-2.3553,-2.3553,-2.3539,-2.3539,-2.3539,-2.3539,-2.3517,-2.3407,-2.3327,-2.3256,-2.3168,-2.3011,-2.291,-2.2816,-2.2659,-2.2569,-2.246,-2.2349,-2.2265,-2.2172,-2.2152,-2.1982,-2.1811,-2.1746,-2.1573,-2.1419,-2.1183,-2.1079,-2.0998,-2.0965,-2.094,-2.0924,-2.0924,-2.0965,-2.1006,-2.1038,-2.1079,-2.1159,-2.1294,-2.1411,-2.1573,-2.1708,-2.1869,-2.2007,-2.2192,-2.236,-2.2515,-2.2667,-2.279,-2.2936,-2.3119,-2.3298,-2.353,-2.3687,-2.3752,-2.3795,-2.3801,-2.3801,-2.3789,-2.3765,-2.3718,-2.3553,-2.3407,-2.336,-2.3549,-2.3772,-2.4128,-2.4438,-2.4942,-2.5626,-2.6371,-2.6716,-2.698,-2.7149,-2.7264,-2.7399,-2.7535,-2.7766,-2.8016,-2.8255,-2.8536,-2.8728,-2.8975,-2.9134,-2.9277,-2.9451,-2.9579,-2.9663,-2.9761,-2.9881,-2.9988,-3.0074,-3.0133,-3.0189,-3.0234,-3.0283,-3.0296,-3.0318,-3.0333,-3.0345,-3.0348,-3.0369,-3.0388,-3.0388,-2.52,-2.5063,-2.4731,-2.4512,-2.4367,-2.4256,-2.4074,-2.3905,-2.3834,-2.3759,-2.3678,-2.3678,-2.3665,-2.3665,-2.3607,-2.3594,-2.3576,-2.3548,-2.3415,-2.3327,-2.328,-2.3135,-2.2977,-2.2876,-2.279,-2.2614,-2.2542,-2.2441,-2.2293,-2.2147,-2.2073,-2.199,-2.1878,-2.1746,-2.1603,-2.1458,-2.123,-2.1023,-2.0901,-2.081,-2.0752,-2.0652,-2.0603,-2.061,-2.0685,-2.076,-2.0843,-2.0893,-2.1023,-2.1207,-2.1325,-2.145,-2.1625,-2.1819,-2.1957,-2.2073,-2.2285,-2.2432,-2.256,-2.2738,-2.2936,-2.3135,-2.3313,-2.3485,-2.3598,-2.373,-2.3774,-2.3795,-2.3777,-2.3774,-2.3687,-2.3607,-2.3494,-2.336,-2.3232,-2.3191,-2.338,-2.3623,-2.3932,-2.4212,-2.4795,-2.5545,-2.6273,-2.6544,-2.7078,-2.7244,-2.7474,-2.7617,-2.7911,-2.8164,-2.8397,-2.8628,-2.8791,-2.9012,-2.924,-2.9409,-2.9559,-2.9654,-2.9771,-2.9831,-2.9914,-3.0028,-3.0137,-3.0175,-3.023,-3.0273,-3.0311,-3.0321,-3.0343,-3.0376,-3.0388,-3.0379,-3.0379,-3.0388,-3.0388,-2.5284,-2.516,-2.4934,-2.4719,-2.4506,-2.4339,-2.42,-2.4065,-2.3976,-2.3855,-2.3759,-2.3721,-2.3718,-2.3709,-2.3687,-2.3629,-2.3616,-2.3603,-2.3448,-2.3336,-2.3256,-2.3126,-2.2977,-2.2859,-2.2799,-2.2596,-2.2515,-2.2413,-2.2225,-2.2089,-2.1949,-2.1861,-2.1759,-2.1686,-2.155,-2.131,-2.1079,-2.0893,-2.0769,-2.0685,-2.0569,-2.0535,-2.0501,-2.0535,-2.0535,-2.0652,-2.0744,-2.0794,-2.0941,-2.1111,-2.1238,-2.1396,-2.1581,-2.1738,-2.1861,-2.1998,-2.222,-2.2386,-2.2487,-2.2685,-2.285,-2.3077,-2.3265,-2.3424,-2.3517,-2.3629,-2.3687,-2.3721,-2.3721,-2.3718,-2.3629,-2.3562,-2.3471,-2.3313,-2.3184,-2.3028,-2.3066,-2.3293,-2.3464,-2.3772,-2.4141,-2.4683,-2.5393,-2.6062,-2.6705,-2.7246,-2.7474,-2.7757,-2.8025,-2.8282,-2.851,-2.8737,-2.8896,-2.9062,-2.9307,-2.9481,-2.9664,-2.9755,-2.985,-2.9924,-3.0003,-3.0098,-3.0204,-3.0226,-3.0257,-3.0289,-3.0314,-3.0345,-3.0367,-3.0388,-3.0388,-3.0388,-3.0388,-3.0388,-3.0388,-2.535,-2.521,-2.506,-2.487,-2.4638,-2.4445,-2.4303,-2.4219,-2.4113,-2.3996,-2.3846,-2.3798,-2.3756,-2.3747,-2.3721,-2.3687,-2.3638,-2.3594,-2.3471,-2.336,-2.3247,-2.3102,-2.297,-2.2851,-2.272,-2.2542,-2.2468,-2.2366,-2.2143,-2.2044,-2.1928,-2.1789,-2.1686,-2.1556,-2.145,-2.1175,-2.0924,-2.0777,-2.0644,-2.0585,-2.0467,-2.0433,-2.0433,-2.0433,-2.0475,-2.0543,-2.0644,-2.0736,-2.0884,-2.1062,-2.1191,-2.1373,-2.155,-2.1716,-2.1848,-2.1995,-2.2163,-2.2338,-2.246,-2.2659,-2.2825,-2.3052,-2.3151,-2.3313,-2.3415,-2.3526,-2.3598,-2.3611,-2.3643,-2.3652,-2.3562,-2.3494,-2.3392,-2.3241,-2.3086,-2.2961,-2.2885,-2.3015,-2.3144,-2.3333,-2.3727,-2.4203,-2.4858,-2.5678,-2.6704,-2.7313,-2.7672,-2.7902,-2.8155,-2.8406,-2.8596,-2.881,-2.9021,-2.9191,-2.9372,-2.9551,-2.9709,-2.9833,-2.9924,-3.0003,-3.0089,-3.018,-3.0226,-3.0251,-3.0279,-3.0304,-3.0326,-3.0367,-3.0388,-3.0388,-3.0388,-3.0388,-3.0388,-3.0388,-3.0388,-2.5347,-2.5283,-2.508,-2.4921,-2.4772,-2.4587,-2.4409,-2.4303,-2.4228,-2.4094,-2.3967,-2.3905,-2.3876,-2.3855,-2.3798,-2.3752,-2.3687,-2.362,-2.3485,-2.3336,-2.3232,-2.3086,-2.291,-2.2782,-2.2667,-2.2542,-2.2441,-2.2276,-2.2036,-2.1978,-2.1861,-2.1678,-2.1542,-2.1363,-2.1277,-2.099,-2.0769,-2.0685,-2.0491,-2.0449,-2.0381,-2.0339,-2.0339,-2.0339,-2.0373,-2.0449,-2.0543,-2.061,-2.0785,-2.1022,-2.1103,-2.1286,-2.1567,-2.1664,-2.1789,-2.1998,-2.2106,-2.2245,-2.2396,-2.265,-2.285,-2.3028,-2.3086,-2.3184,-2.3321,-2.3424,-2.3485,-2.3499,-2.3539,-2.3562,-2.3485,-2.3392,-2.3289,-2.3193,-2.3036,-2.291,-2.2859,-2.279,-2.2945,-2.3022,-2.3427,-2.3929,-2.4533,-2.535,-2.6573,-2.7326,-2.7767,-2.8081,-2.83,-2.851,-2.8721,-2.8943,-2.9156,-2.9328,-2.9472,-2.9608,-2.9762,-2.9881,-2.9988,-3.0089,-3.0147,-3.0203,-3.0247,-3.027,-3.0304,-3.0326,-3.0357,-3.0388,-3.0388,-3.0388,-3.0388,-3.0388,-3.0388,-3.0388,-3.0388,-2.542,-2.5351,-2.5212,-2.5065,-2.4907,-2.4657,-2.4497,-2.442,-2.4275,-2.4133,-2.4045,-2.3946,-2.3887,-2.3885,-2.3852,-2.3777,-2.3709,-2.3678,-2.3544,-2.3304,-2.3232,-2.3095,-2.2919,-2.2756,-2.2624,-2.2506,-2.2369,-2.2212,-2.2007,-2.1949,-2.1789,-2.1603,-2.1364,-2.1143,-2.0998,-2.0794,-2.0744,-2.0551,-2.0423,-2.0388,-2.0346,-2.0304,-2.027,-2.027,-2.0312,-2.0373,-2.0441,-2.0543,-2.0711,-2.0941,-2.1054,-2.1255,-2.1536,-2.1642,-2.1738,-2.194,-2.2081,-2.2183,-2.2369,-2.2587,-2.2738,-2.2893,-2.302,-2.3086,-2.3177,-2.3298,-2.3336,-2.3351,-2.3415,-2.3415,-2.3345,-2.3298,-2.3217,-2.3144,-2.302,-2.291,-2.2825,-2.2756,-2.2789,-2.2798,-2.3083,-2.3614,-2.4208,-2.5094,-2.6302,-2.7234,-2.7708,-2.8111,-2.8406,-2.8637,-2.8843,-2.908,-2.9298,-2.9451,-2.9608,-2.9718,-2.9848,-2.9956,-3.0059,-3.0157,-3.0213,-3.0247,-3.0286,-3.0304,-3.0336,-3.0357,-3.0388,-3.0388,-3.0388,-3.0388,-3.0388,-3.0388,-3.0388,-3.0388,-3.0388,-2.5463,-2.5385,-2.5244,-2.5136,-2.4981,-2.4764,-2.4606,-2.4473,-2.4294,-2.4171,-2.4114,-2.4016,-2.3967,-2.3917,-2.3876,-2.378,-2.37,-2.3665,-2.3544,-2.3304,-2.3151,-2.3036,-2.2902,-2.272,-2.2579,-2.2443,-2.2321,-2.2172,-2.1998,-2.1878,-2.1686,-2.1427,-2.1183,-2.0933,-2.0761,-2.0662,-2.061,-2.0415,-2.0346,-2.0262,-2.0235,-2.0208,-2.0208,-2.0193,-2.0227,-2.027,-2.0373,-2.0501,-2.062,-2.0852,-2.1071,-2.1255,-2.1505,-2.162,-2.1738,-2.1911,-2.211,-2.2212,-2.2377,-2.2468,-2.2605,-2.2729,-2.2876,-2.2986,-2.3045,-2.316,-2.3217,-2.3232,-2.3265,-2.3265,-2.3265,-2.3217,-2.3144,-2.307,-2.2986,-2.285,-2.2808,-2.2756,-2.2729,-2.2756,-2.2851,-2.338,-2.3918,-2.4953,-2.602,-2.6836,-2.761,-2.8065,-2.8501,-2.8737,-2.8952,-2.9172,-2.9392,-2.9541,-2.9673,-2.9806,-2.9924,-3.0044,-3.0133,-3.0213,-3.0257,-3.0289,-3.0323,-3.0336,-3.0357,-3.0379,-3.0388,-3.0388,-3.0388,-3.0388,-3.0388,-3.0388,-3.0388,-3.0388,-3.0388,-2.5476,-2.5379,-2.5245,-2.5126,-2.4994,-2.4851,-2.4676,-2.4473,-2.4303,-2.421,-2.4201,-2.4124,-2.4045,-2.3996,-2.3917,-2.3822,-2.3691,-2.362,-2.3485,-2.3289,-2.3111,-2.2995,-2.2842,-2.2659,-2.2525,-2.2424,-2.2285,-2.2126,-2.1969,-2.1773,-2.1526,-2.1262,-2.103,-2.0786,-2.0628,-2.0535,-2.0475,-2.0373,-2.022,-2.0177,-2.015,-2.0061,-2.0088,-2.0115,-2.015,-2.022,-2.0331,-2.0467,-2.0654,-2.086,-2.103,-2.1278,-2.1474,-2.1597,-2.1768,-2.1957,-2.2172,-2.2302,-2.2358,-2.2413,-2.246,-2.2579,-2.2703,-2.2816,-2.2919,-2.3003,-2.3086,-2.3119,-2.3144,-2.316,-2.3175,-2.3126,-2.3102,-2.3003,-2.2927,-2.285,-2.2808,-2.2782,-2.2773,-2.2825,-2.2876,-2.3221,-2.3642,-2.4568,-2.5954,-2.6613,-2.7466,-2.8381,-2.8752,-2.8881,-2.908,-2.9261,-2.9454,-2.9617,-2.9745,-2.9891,-2.9997,-3.0113,-3.0166,-3.0244,-3.0276,-3.0314,-3.0345,-3.0367,-3.0388,-3.0388,-3.0388,-3.0388,-3.0388,-3.0388,-3.0388,-3.0388,-3.0388,-3.0388,-3.0388,-2.5519,-2.5461,-2.534,-2.5194,-2.5046,-2.4828,-2.4647,-2.449,-2.4339,-2.4247,-2.4192,-2.4124,-2.4065,-2.4005,-2.3917,-2.3841,-2.373,-2.3629,-2.3462,-2.3289,-2.3086,-2.2995,-2.2851,-2.2641,-2.2542,-2.2388,-2.2231,-2.2044,-2.1949,-2.1713,-2.1433,-2.1159,-2.0933,-2.0728,-2.0561,-2.0433,-2.0365,-2.0296,-2.0143,-2.0108,-2.008,-2.0018,-2.0045,-2.008,-2.0115,-2.0185,-2.0296,-2.0433,-2.062,-2.0786,-2.099,-2.1255,-2.1567,-2.1628,-2.1724,-2.1986,-2.2143,-2.2271,-2.231,-2.2386,-2.2441,-2.2487,-2.2579,-2.272,-2.2816,-2.2885,-2.2961,-2.2986,-2.3045,-2.3028,-2.3052,-2.3028,-2.2977,-2.2902,-2.285,-2.2859,-2.2808,-2.2833,-2.2825,-2.2927,-2.2977,-2.3284,-2.3675,-2.4806,-2.6088,-2.6591,-2.7329,-2.8383,-2.8966,-2.9089,-2.9222,-2.9394,-2.9542,-2.9682,-2.9831,-2.9962,-3.0074,-3.018,-3.024,-3.0273,-3.0301,-3.0338,-3.0388,-3.0388,-3.039,-3.04,-3.0388,-3.0388,-3.0388,-3.0388,-3.0388,-3.0388,-3.0388,-3.0388,-3.0388,-2.5552,-2.5495,-2.5393,-2.5234,-2.5031,-2.4842,-2.4663,-2.4515,-2.4366,-2.4275,-2.4229,-2.4143,-2.4056,-2.4005,-2.3896,-2.3792,-2.37,-2.3562,-2.3424,-2.3289,-2.3061,-2.2927,-2.2782,-2.2641,-2.2506,-2.2352,-2.2195,-2.2007,-2.189,-2.1631,-2.1317,-2.1111,-2.0884,-2.0669,-2.0527,-2.0399,-2.0304,-2.0235,-2.0123,-2.0045,-1.9975,-1.9947,-1.9983,-2.0053,-2.0053,-2.0158,-2.0304,-2.0426,-2.0595,-2.0761,-2.0965,-2.1199,-2.1497,-2.1603,-2.1738,-2.1986,-2.2143,-2.2225,-2.231,-2.233,-2.2366,-2.2413,-2.2479,-2.2552,-2.2694,-2.2799,-2.2833,-2.2876,-2.2876,-2.2902,-2.2902,-2.2876,-2.285,-2.2799,-2.2808,-2.2833,-2.2833,-2.2859,-2.2936,-2.3036,-2.3247,-2.3534,-2.4254,-2.5356,-2.6318,-2.7033,-2.7775,-2.8622,-2.9093,-2.9194,-2.936,-2.9541,-2.9654,-2.9779,-2.9905,-3.004,-3.0147,-3.0236,-3.0292,-3.0333,-3.035,-3.0383,-3.0435,-3.0423,-3.0392,-3.0392,-3.039,-3.04,-3.0388,-3.0388,-3.0388,-3.0388,-3.0388,-3.0388,-3.0388,-2.5556,-2.5502,-2.5418,-2.5242,-2.4996,-2.4851,-2.4717,-2.4573,-2.4411,-2.4284,-2.4275,-2.4143,-2.4074,-2.3996,-2.3858,-2.3771,-2.3647,-2.3522,-2.3392,-2.3265,-2.3045,-2.2885,-2.2756,-2.2614,-2.2487,-2.2332,-2.2166,-2.1978,-2.1853,-2.1562,-2.1294,-2.1086,-2.0801,-2.061,-2.0494,-2.0357,-2.0262,-2.0131,-2.0061,-1.9955,-1.9833,-1.9805,-1.9812,-1.9962,-2.0025,-2.0096,-2.0262,-2.0441,-2.0577,-2.0752,-2.0932,-2.1167,-2.1427,-2.1579,-2.1802,-2.1957,-2.2106,-2.2189,-2.2254,-2.231,-2.233,-2.2358,-2.2405,-2.2451,-2.256,-2.2694,-2.2729,-2.2756,-2.2782,-2.2833,-2.2833,-2.2833,-2.2808,-2.2808,-2.2816,-2.2859,-2.2876,-2.2952,-2.3077,-2.3263,-2.3673,-2.4002,-2.4633,-2.5712,-2.6723,-2.751,-2.8269,-2.8992,-2.9237,-2.9342,-2.9492,-2.9673,-2.9763,-2.9848,-2.9994,-3.0109,-3.0213,-3.0289,-3.0355,-3.039,-3.0406,-3.0437,-3.0488,-3.0468,-3.0426,-3.0404,-3.0392,-3.0392,-3.039,-3.0388,-3.0388,-3.0388,-3.0388,-3.0388,-3.0388,-2.5605,-2.5496,-2.5321,-2.5138,-2.5,-2.4851,-2.4757,-2.4641,-2.4473,-2.433,-2.4284,-2.4162,-2.4065,-2.3978,-2.3837,-2.375,-2.3647,-2.3476,-2.3336,-2.3184,-2.2995,-2.2851,-2.272,-2.256,-2.2468,-2.2332,-2.2138,-2.1899,-2.17,-2.1472,-2.1262,-2.1062,-2.0752,-2.0535,-2.0494,-2.0357,-2.0227,-2.0061,-1.9998,-1.9919,-1.9797,-1.9762,-1.9797,-1.9919,-1.9998,-2.0096,-2.0262,-2.0433,-2.0577,-2.0726,-2.0973,-2.1231,-2.1528,-2.1656,-2.1781,-2.192,-2.2023,-2.2106,-2.218,-2.2245,-2.231,-2.2338,-2.2366,-2.2377,-2.2451,-2.2579,-2.2667,-2.2694,-2.272,-2.2738,-2.2764,-2.2764,-2.2764,-2.279,-2.2851,-2.2885,-2.2936,-2.3112,-2.3267,-2.3644,-2.4073,-2.466,-2.5266,-2.6032,-2.7041,-2.7881,-2.8616,-2.9203,-2.9351,-2.9472,-2.9608,-2.9755,-2.9823,-2.994,-3.0064,-3.0175,-3.0276,-3.033,-3.039,-3.0436,-3.0459,-3.049,-3.052,-3.0499,-3.0469,-3.0437,-3.0417,-3.0396,-3.0394,-3.039,-3.0388,-3.0388,-3.0388,-3.0388,-3.0388,-2.5064,-2.4986,-2.5185,-2.5158,-2.5038,-2.4893,-2.4802,-2.4691,-2.4524,-2.4384,-2.4294,-2.4134,-2.4036,-2.3958,-2.3834,-2.3716,-2.3634,-2.343,-2.3289,-2.3135,-2.2986,-2.2825,-2.2667,-2.2533,-2.2405,-2.2276,-2.2023,-2.1789,-2.1581,-2.1356,-2.1175,-2.103,-2.0711,-2.0494,-2.0494,-2.0365,-2.02,-2.0033,-1.9998,-1.9919,-1.9797,-1.9726,-1.9797,-1.9919,-2.0033,-2.0096,-2.0262,-2.0433,-2.0543,-2.0685,-2.094,-2.1215,-2.1458,-2.1603,-2.17,-2.184,-2.1928,-2.2015,-2.2098,-2.218,-2.2254,-2.2291,-2.231,-2.2349,-2.2358,-2.2496,-2.256,-2.2587,-2.2649,-2.2667,-2.2712,-2.2738,-2.2756,-2.2782,-2.2859,-2.2936,-2.3263,-2.3613,-2.3841,-2.4183,-2.4792,-2.5637,-2.6212,-2.6745,-2.767,-2.8383,-2.9101,-2.9289,-2.9462,-2.9598,-2.9737,-2.9859,-2.9924,-3.0013,-3.0142,-3.024,-3.034,-3.0379,-3.0436,-3.0479,-3.053,-3.053,-3.054,-3.052,-3.05,-3.0459,-3.0439,-3.0418,-3.0406,-3.039,-3.04,-3.0388,-3.0388,-3.0388,-3.0388,-2.4188,-2.4379,-2.5025,-2.5241,-2.5103,-2.4953,-2.4832,-2.4689,-2.4554,-2.4409,-2.4284,-2.4095,-2.4007,-2.3926,-2.3789,-2.3678,-2.3553,-2.3415,-2.3241,-2.3086,-2.2936,-2.2773,-2.2623,-2.2523,-2.2349,-2.2163,-2.1936,-2.1776,-2.1589,-2.1364,-2.1143,-2.103,-2.0785,-2.0501,-2.0467,-2.0373,-2.0216,-2.0068,-1.999,-1.9876,-1.9805,-1.9733,-1.9812,-1.9919,-1.9998,-2.0103,-2.0262,-2.0392,-2.0467,-2.0644,-2.0892,-2.1143,-2.1348,-2.1503,-2.1625,-2.1759,-2.184,-2.192,-2.1978,-2.2098,-2.2152,-2.2197,-2.2245,-2.2274,-2.2319,-2.2366,-2.246,-2.2542,-2.2596,-2.2641,-2.2685,-2.2738,-2.2756,-2.292,-2.2997,-2.3204,-2.3695,-2.4213,-2.4584,-2.4885,-2.5641,-2.651,-2.703,-2.7556,-2.8196,-2.8909,-2.9234,-2.9401,-2.9541,-2.9673,-2.9816,-2.9933,-3.0028,-3.0128,-3.0208,-3.0289,-3.0376,-3.0435,-3.0488,-3.054,-3.0578,-3.0568,-3.0568,-3.054,-3.052,-3.0501,-3.047,-3.0439,-3.0425,-3.0402,-3.04,-3.0388,-3.0388,-3.0388,-3.0388,-2.3325,-2.4348,-2.5015,-2.5244,-2.5155,-2.4987,-2.4823,-2.4682,-2.458,-2.4436,-2.4294,-2.4143,-2.4045,-2.3967,-2.3798,-2.3665,-2.3571,-2.3401,-2.3201,-2.302,-2.2885,-2.272,-2.2542,-2.2424,-2.2268,-2.2061,-2.1878,-2.1738,-2.1589,-2.1341,-2.1151,-2.107,-2.0703,-2.0486,-2.0494,-2.0365,-2.0235,-2.0088,-2.0025,-1.9955,-1.9848,-1.9812,-1.9856,-1.9927,-1.9998,-2.0131,-2.0262,-2.0381,-2.0449,-2.061,-2.0851,-2.1103,-2.1285,-2.1402,-2.1526,-2.1648,-2.1759,-2.184,-2.1907,-2.1986,-2.2069,-2.216,-2.2217,-2.2262,-2.2299,-2.2319,-2.2422,-2.2515,-2.2569,-2.2614,-2.2685,-2.2764,-2.2825,-2.3232,-2.3447,-2.3916,-2.4401,-2.5058,-2.5602,-2.6011,-2.6546,-2.7127,-2.75,-2.8073,-2.8645,-2.9156,-2.9298,-2.9462,-2.9579,-2.9728,-2.9884,-2.9997,-3.0113,-3.0199,-3.0266,-3.034,-3.0421,-3.0477,-3.0539,-3.0578,-3.0615,-3.0613,-3.0594,-3.0568,-3.0568,-3.0559,-3.0521,-3.047,-3.0437,-3.0415,-3.04,-3.0388,-3.0388,-3.0388,-3.0388]},{"header":{"parameterUnit":"m.s-1","parameterCategory":1,"la1":31.0,"la2":29.5877,"lo1":-88.7671,"lo2":-86.6584,"dy":0.0162,"dx":0.0185,"nx":115,"ny":88,"refTime":"2024-06-29T18:00:00:Z","depth":0,"parameterNumber":3,"parameterNumberName":"V-component_of_WINDS"},"data":[0.0,0.0,0.0,0.0,0.0,0.0,0.0,0.0,0.0,0.0,0.0,0.0,0.0,0.0,0.0,0.0,0.0,0.0,0.0,0.0,0.0,0.0,0.0,0.0,0.0,0.0,0.0,0.0,0.0,0.0,0.0,0.0,0.0,0.0,0.0,0.0,0.0,0.0,0.0,0.0,0.0,0.0,0.0,0.0,0.0,0.0,0.0,0.0,0.0,0.0,0.0,0.0,0.0,0.0,0.0,0.0,0.0,0.0,0.0,0.0,0.0,0.0,0.0,0.0,0.0,0.0,0.0,0.0,0.0,0.0,0.0,0.0,0.0,0.0,0.0,0.0,0.0,0.0,0.0,0.0,0.0,0.0,0.0,0.0,0.0,0.0,0.0,0.0,0.0,0.0,0.0,0.0,0.0,0.0,0.0,0.0,0.0,0.0,0.0,0.0,0.0,0.0,0.0,0.0,0.0,0.0,0.0,0.0,0.0,0.0,0.0,0.0,0.0,0.0,0.0,0.0,0.0,0.0,0.0,0.0,0.0,0.0,0.0,0.0,0.0,0.0,0.0,0.0,0.0,0.0,0.0,0.0,0.0,0.0,0.0,0.0,0.0,0.0,0.0,0.0,0.0,0.0,0.0,0.0,0.0,0.0,0.0,0.0,0.0,0.0,0.0,0.0,0.0,0.0,0.0,0.0,0.0,0.0,0.0,0.0,0.0,0.0,0.0,0.0,0.0,0.0,0.0,0.0,0.0,0.0,0.0,0.0,0.0,0.0,0.0,0.0,0.0,0.0,0.0,0.0,0.0,0.0,0.0,0.0,0.0,0.0,0.0,0.0,0.0,0.0,0.0,0.0,0.0,0.0,0.0,0.0,0.0,0.0,0.0,0.0,0.0,0.0,0.0,0.0,0.0,0.0,0.0,0.0,0.0,0.0,0.0,0.0,0.0,0.0,0.0,0.0,0.0,0.0,0.0,0.0,0.0,0.0,0.0,0.0,0.0,0.0,0.0,0.0,0.0,0.0,0.0,0.0,0.0,0.0,0.0,0.0,0.0,0.0,0.0,0.0,0.0,0.0,0.0,0.0,0.0,0.0,0.0,0.0,0.0,0.0,0.0,0.0,0.0,0.0,0.0,0.0,0.0,0.0,0.0,0.0,0.0,0.0,0.0,0.0,0.0,0.0,0.0,0.0,0.0,0.0,0.0,0.0,0.0,0.0,0.0,0.0,0.0,0.0,0.0,0.0,0.0,0.0,0.0,0.0,0.0,0.0,0.0,0.0,0.0,0.0,0.0,0.0,0.0,0.0,0.0,0.0,0.0,0.0,0.0,0.0,0.0,0.0,0.0,0.0,0.0,0.0,0.0,0.0,0.0,0.0,0.0,0.0,0.0,0.0,0.0,0.0,0.0,0.0,0.0,0.0,0.0,0.0,0.0,0.0,0.0,0.0,0.0,0.0,0.0,0.0,0.0,0.0,0.0,0.0,0.0,0.0,0.0,0.0,0.0,0.0,0.0,0.0,0.0,0.0,0.0,0.0,0.0,0.0,0.0,0.0,0.0,0.0,0.0,0.0,0.0,0.0,0.0,0.0,0.0,0.0,0.0,0.0,0.0,0.0,0.0,0.0,0.0,0.0,0.0,0.0,0.0,0.0,0.0,0.0,0.0,0.0,0.0,0.0,0.0,0.0,0.0,0.0,0.0,0.0,0.0,0.0,0.0,0.0,0.0,0.0,0.0,0.0,0.0,0.0,0.0,0.0,0.0,0.0,0.0,0.0,0.0,0.0,0.0,0.0,0.0,0.0,0.0,0.0,0.0,0.0,0.0,0.0,0.0,0.0,0.0,0.0,0.0,0.0,0.0,0.0,0.0,0.0,0.0,0.0,0.0,0.0,0.0,0.0,0.0,0.0,0.0,0.0,0.0,0.0,0.0,0.0,0.0,0.0,0.0,0.0,0.0,0.0,0.0,0.0,0.0,0.0,0.0,0.0,0.0,0.0,0.0,0.0,0.0,0.0,0.0,0.0,0.0,0.0,0.0,0.0,0.0,0.0,0.0,0.0,0.0,0.0,0.0,0.0,0.0,0.0,0.0,0.0,0.0,0.0,0.0,0.0,0.0,0.0,0.0,0.0,0.0,0.0,0.0,0.0,0.0,0.0,0.0,0.0,0.0,0.0,0.0,0.0,0.0,0.0,0.0,0.0,0.0,0.0,0.0,0.0,0.0,0.0,0.0,0.0,0.0,0.0,0.0,0.0,0.0,0.0,0.0,0.0,0.0,0.0,0.0,0.0,0.0,0.0,0.0,0.0,0.0,0.0,0.0,0.0,0.0,0.0,0.0,0.0,0.0,0.0,0.0,0.0,0.0,0.0,0.0,0.0,0.0,0.0,0.0,0.0,0.0,0.0,0.0,0.0,0.0,0.0,0.0,0.0,0.0,0.0,0.0,0.0,0.0,0.0,0.0,0.0,0.0,0.0,0.0,0.0,0.0,0.0,0.0,0.0,0.0,0.0,0.0,0.0,0.0,0.0,0.0,0.0,0.0,0.0,0.0,0.0,0.0,0.0,0.0,0.0,0.0,0.0,0.0,0.0,0.0,0.0,0.0,0.0,0.0,0.0,0.0,0.0,0.0,0.0,0.0,0.0,0.0,0.0,0.0,0.0,0.0,0.0,0.0,0.0,0.0,0.0,0.0,0.0,0.0,0.0,0.0,0.0,0.0,0.0,0.0,0.0,0.0,0.0,0.0,0.0,0.0,0.0,0.0,0.0,0.0,0.0,0.0,0.0,0.0,0.0,0.0,0.0,0.0,0.0,0.0,0.0,0.0,0.0,0.0,0.0,0.0,0.0,0.0,0.0,0.0,0.0,0.0,0.0,0.0,0.0,0.0,0.0,0.0,0.0,0.0,0.0,0.0,0.0,0.0,0.0,0.0,0.0,0.0,0.0,0.0,0.0,0.0,0.0,0.0,0.0,0.0,0.0,0.0,0.0,0.0,0.0,0.0,0.0,0.0,0.0,0.0,0.0,0.0,0.0,0.0,0.0,0.0,0.0,0.0,0.0,0.0,0.0,0.0,0.0,0.0,0.0,0.0,0.0,0.0,0.0,0.0,0.0,0.0,0.0,0.0,0.0,0.0,0.0,0.0,0.0,0.0,0.0,0.0,0.0,0.0,0.0,0.0,0.0,0.0,0.0,0.0,0.0,0.0,0.0,0.0,0.0,0.0,0.0,0.0,0.0,0.0,0.0,0.0,0.0,0.0,0.0,0.0,0.0,0.0,0.0,0.0,0.0,0.0,0.0,0.0,0.0,0.0,0.0,0.0,0.0,0.0,0.0,0.0,0.0,0.0,0.0,0.0,0.0,0.0,0.0,0.0,0.0,0.0,0.0,0.0,0.0,0.0,0.0,0.0,0.0,0.0,0.0,0.0,0.0,0.0,0.0,0.0,0.0,0.0,0.0,0.0,0.0,0.0,0.0,0.0,0.0,0.0,0.0,0.0,0.0,0.0,0.0,0.0,0.0,0.0,0.0,0.0,0.0,0.0,0.0,0.0,0.0,0.0,0.0,0.0,0.0,0.0,0.0,0.0,0.0,0.0,0.0,0.0,0.0,0.0,0.0,0.0,0.0,0.0,0.0,0.0,0.0,0.0,0.0,0.0,0.0,0.0,0.0,0.0,0.0,0.0,0.0,0.0,0.0,0.0,0.0,0.0,0.0,0.0,0.0,0.0,0.0,0.0,0.0,0.0,0.0,0.0,0.0,0.0,0.0,0.0,0.0,0.0,0.0,0.0,0.0,0.0,0.0,0.0,0.0,0.0,0.0,0.0,0.0,0.0,0.0,0.0,0.0,0.0,0.0,0.0,0.0,0.0,0.0,0.0,0.0,0.0,0.0,0.0,0.0,0.0,0.0,0.0,0.0,0.0,0.0,0.0,0.0,0.0,0.0,0.0,0.0,0.0,0.0,0.0,0.0,0.0,0.0,0.0,0.0,0.0,0.0,0.0,0.0,0.0,0.0,0.0,0.0,0.0,0.0,0.0,0.0,0.0,0.0,0.0,0.0,0.0,0.0,0.0,0.0,0.0,0.0,0.0,0.0,0.0,0.0,0.0,0.0,0.0,0.0,0.0,0.0,0.0,0.0,0.0,0.0,0.0,0.0,0.0,0.0,0.0,0.0,0.0,0.0,0.0,0.0,0.0,0.0,0.0,0.0,0.0,0.0,0.0,0.0,0.0,0.0,0.0,0.0,0.0,0.0,0.0,0.0,0.0,0.0,0.0,0.0,1.1166,0.0,0.0,0.0,0.0,0.0,0.0,0.0,0.0,0.0,0.0,0.0,0.0,0.0,0.0,0.0,0.0,0.0,0.0,0.0,0.0,0.0,0.0,0.0,0.0,0.0,0.0,0.0,0.0,0.0,0.0,0.0,0.0,0.0,0.0,0.0,0.0,0.0,0.0,0.0,0.0,0.0,0.0,0.0,0.0,0.0,0.0,0.0,0.0,0.0,0.0,0.0,0.0,0.0,0.0,0.0,0.0,0.0,0.0,0.0,0.0,0.0,0.0,0.0,0.0,0.0,0.0,0.0,0.0,0.0,0.0,0.0,0.0,0.0,0.0,0.0,0.0,0.0,0.0,0.0,0.0,0.0,0.0,0.0,0.0,0.0,0.0,0.0,0.0,0.0,0.0,0.0,0.0,0.0,0.0,0.0,0.0,0.0,0.0,0.0,0.0,0.0,0.0,0.0,0.0,0.0,0.0,0.0,0.0,0.0,0.0,1.1262,1.1069,1.0887,1.0643,1.0384,0.0,0.0,0.0,0.0,0.0,0.0,0.0,0.0,0.0,0.0,0.0,0.0,0.0,0.0,0.0,0.0,0.0,0.0,0.0,0.0,0.0,0.0,0.0,0.0,0.0,0.0,0.0,0.0,0.0,0.0,0.0,0.0,0.0,0.0,0.0,0.0,0.0,0.0,0.0,0.0,0.0,0.0,0.0,0.0,0.0,0.0,0.0,0.0,0.0,0.0,0.0,0.0,0.0,0.0,0.0,0.0,0.0,0.0,0.0,0.0,0.0,0.0,0.0,0.0,0.0,0.0,0.0,0.0,0.0,0.0,0.0,0.0,0.0,0.0,0.0,0.0,0.0,0.0,0.0,0.0,0.0,0.0,0.0,0.0,0.0,0.0,0.0,0.0,0.0,0.0,0.0,0.0,0.0,0.0,0.0,0.0,0.0,0.0,0.0,0.0,0.0,0.0,0.0,0.0,0.0,0.0,0.0,0.0,0.0,0.0,0.0,0.0,0.9508,0.9535,0.9377,0.0,0.0,0.0,0.0,0.0,0.0,0.0,0.0,0.0,0.0,0.0,0.0,0.0,0.0,0.0,0.0,0.0,0.0,0.0,0.0,0.0,0.0,0.0,0.0,0.0,0.0,0.0,0.0,0.0,0.0,0.0,0.0,0.0,0.0,0.0,0.0,0.0,0.0,0.0,0.0,0.0,0.0,0.0,0.0,0.0,0.0,0.0,0.0,0.0,0.0,0.0,0.0,0.0,0.0,0.0,0.0,0.0,0.0,0.0,0.0,0.0,0.0,0.0,0.0,0.0,0.0,0.0,0.0,0.0,0.0,0.0,0.0,0.0,0.0,0.0,0.0,0.0,0.0,0.0,0.0,0.0,0.0,0.0,0.0,0.0,0.0,0.0,0.0,0.0,0.0,0.0,0.0,0.0,0.0,0.0,0.0,0.0,0.0,0.0,0.0,0.0,0.0,0.0,0.0,0.0,0.0,0.0,0.0,0.0,0.0,0.8026,0.8234,0.8311,0.0,0.7851,0.0,0.0,0.0,0.0,0.0,0.0,0.0,0.0,0.0,0.0,0.0,0.0,0.0,0.0,0.0,0.0,0.0,0.0,0.0,0.0,0.0,0.0,0.0,0.0,0.0,0.0,0.0,0.0,0.0,0.0,0.0,0.0,0.0,0.0,0.0,0.0,0.0,0.0,0.0,0.0,0.0,0.0,0.0,0.0,0.0,0.0,0.0,0.0,0.0,0.0,0.0,0.0,0.0,0.0,0.0,0.0,0.0,0.0,0.0,0.0,0.0,0.0,0.0,0.0,0.0,0.0,0.0,0.0,0.0,0.0,0.0,0.0,0.0,0.0,0.0,0.0,0.0,0.0,0.0,0.0,0.0,0.0,0.0,0.0,0.0,0.0,0.0,0.0,0.0,0.0,0.0,0.0,0.0,0.0,0.0,0.0,0.0,0.0,0.0,0.0,0.0,0.0,0.0,0.0,0.0,0.0,0.0,0.0,0.0,0.0,0.0,0.6675,0.7032,0.7101,0.0,0.0,0.0,0.0,0.0,0.0,0.0,0.0,0.0,0.0,0.0,0.0,0.0,0.0,0.0,0.0,0.0,0.0,0.0,0.0,0.0,0.0,0.0,0.0,0.0,0.0,0.0,0.0,0.0,0.0,0.0,0.0,0.0,0.0,0.0,0.0,0.0,0.0,0.0,0.0,0.0,0.0,0.0,0.0,0.0,0.0,0.0,0.0,0.0,0.0,0.0,0.0,0.0,0.0,0.0,0.0,0.0,0.0,0.0,0.0,0.0,0.0,0.0,0.0,0.0,0.0,0.0,0.0,0.0,0.0,0.0,0.0,0.0,0.0,0.0,0.0,0.0,0.0,0.0,0.0,0.0,0.0,0.0,0.0,0.0,0.0,0.0,0.0,0.0,0.0,0.0,0.0,0.0,0.0,0.0,0.0,0.0,0.0,0.0,0.0,0.0,0.0,0.0,0.0,0.0,0.0,0.0,0.0,0.0,0.0,0.4885,0.0,0.546,0.5927,0.6057,0.589,0.0,0.0,0.0,0.0,0.0,0.0,0.0,0.0,0.0,0.0,0.0,0.0,0.0,0.0,0.0,0.0,0.0,0.0,0.0,0.0,0.0,0.0,0.0,0.0,0.0,0.0,0.0,0.0,0.0,0.0,0.0,0.0,0.0,0.0,0.0,0.0,0.0,0.0,0.0,0.0,0.0,0.0,0.0,0.0,0.0,0.0,0.0,0.0,0.0,0.0,0.0,0.0,0.0,0.0,0.0,0.0,0.0,0.0,0.0,0.0,0.0,0.0,0.0,0.0,0.0,0.0,0.0,0.0,0.0,0.0,0.0,0.0,0.0,0.0,0.0,0.0,0.0,0.0,0.0,0.0,0.0,0.0,0.0,0.0,0.0,0.0,0.0,0.0,0.0,0.0,0.0,0.0,0.0,0.0,0.0,0.0,0.0,0.0,0.0,0.0,0.0,0.0,0.0,0.0,0.0,0.0,0.0,0.0,0.0,0.3531,0.4122,0.4817,0.4993,0.5067,0.0,0.0,0.0,0.0,0.0,0.0,0.0,0.0,0.0,0.0,0.0,0.0,0.0,0.0,0.0,0.0,0.0,0.0,0.0,0.0,0.0,0.0,0.0,0.0,0.0,0.0,0.0,0.0,0.0,0.0,0.0,0.0,0.0,0.0,0.0,0.0,0.0,0.0,0.0,0.0,0.0,0.0,0.0,0.0,0.0,0.0,0.0,0.0,0.0,0.0,0.0,0.0,0.0,0.0,0.0,0.0,0.0,0.0,0.0,0.0,0.0,0.0,0.0,0.0,0.0,0.0,0.0,0.0,0.0,0.0,0.0,0.0,0.0,0.0,0.0,0.0,0.0,0.0,0.0,0.0,0.0,0.0,0.0,0.0,0.0,0.0,0.0,0.0,0.0,0.0,0.0,0.0,0.0,0.0,0.0,0.0,0.0,0.0,0.0,0.0,0.0,0.0,0.0,0.0,0.0,0.0,0.0,0.0,0.0,0.1924,0.2604,0.3225,0.0,0.4009,0.4081,0.0,0.0,0.0,0.0,0.0,0.0,0.0,0.0,0.0,0.0,0.0,0.0,0.0,0.0,0.0,0.0,0.0,0.0,0.0,0.0,0.0,0.0,0.0,0.0,0.0,0.0,0.0,0.0,0.0,0.0,0.0,0.0,0.0,0.0,0.0,0.0,0.0,0.0,0.0,0.0,0.0,0.0,0.0,0.0,0.0,0.0,0.0,0.0,0.0,0.0,0.0,0.0,0.0,0.0,0.0,0.0,0.0,0.0,0.0,0.0,0.0,0.0,0.0,0.0,0.0,0.0,0.0,0.0,0.0,0.0,0.0,0.0,0.0,0.0,0.0,0.0,0.0,0.0,0.0,0.0,0.0,0.0,0.0,0.0,0.0,0.0,0.0,0.0,0.0,0.0,0.0,0.0,0.0,0.0,0.0,0.0,0.0,0.0,0.0,0.0,0.0,0.0,0.0,0.0,0.0,0.0,0.0,0.0,0.0,0.1165,0.0,0.2286,0.0,0.3072,0.3178,0.0,0.0,0.0,0.0,0.0,0.0,0.0,0.0,0.0,0.0,0.0,0.0,0.0,0.0,0.0,0.0,0.0,0.0,0.0,0.0,0.0,0.0,0.0,0.0,0.0,0.0,0.0,0.0,0.0,0.0,0.0,0.0,0.0,0.0,0.0,0.0,0.0,0.0,0.0,0.0,0.0,0.0,0.0,0.0,0.0,0.0,0.0,0.0,0.0,0.0,0.0,0.0,0.0,0.0,0.0,0.0,0.0,0.0,0.0,0.0,0.0,0.0,0.0,0.0,0.0,0.0,0.0,0.0,0.0,0.0,0.0,0.0,0.0,0.0,0.0,0.0,0.0,0.0,0.0,0.0,0.0,0.0,0.0,0.0,0.0,0.0,0.0,0.0,0.0,0.0,0.0,0.0,0.0,0.0,0.0,0.0,0.0,0.0,0.0,0.0,0.0,0.0,0.0,0.0,0.0,0.0,0.0,0.0,-0.0045,0.0672,0.0987,0.1351,0.1796,0.2155,0.2406,0.0,0.0,0.0,0.0,0.0,0.0,0.0,0.0,0.0,0.0,0.0,0.0,0.0,0.0,0.0,0.0,0.0,0.0,0.0,0.0,0.0,0.0,0.0,0.0,0.0,0.0,0.0,0.0,0.0,0.0,0.0,0.0,0.0,0.0,0.0,0.0,0.0,0.0,0.0,0.0,0.0,0.0,0.0,0.0,0.0,0.0,0.0,0.0,0.0,0.0,0.0,0.0,0.0,0.0,0.0,0.0,0.0,0.0,0.0,0.0,0.0,0.0,0.0,0.0,0.0,0.0,0.0,0.0,0.0,0.0,0.0,0.0,0.0,0.0,0.0,0.0,0.0,0.0,0.0,0.0,0.0,0.0,0.0,0.0,0.0,0.0,0.0,0.0,0.0,0.0,0.0,0.0,0.0,0.0,0.0,0.0,0.0,0.0,0.0,0.0,0.0,0.0,0.0,0.0,0.0,0.0,0.0,0.0,0.0,0.0187,0.042,0.0747,0.1167,0.1454,0.1634,0.0,0.0,0.0,0.0,0.0,0.0,0.0,0.0,0.0,0.0,0.0,0.0,0.0,0.0,0.0,0.0,0.0,0.0,0.0,0.0,0.0,0.0,0.0,0.0,0.0,0.0,0.0,0.0,0.0,0.0,0.0,0.0,0.0,0.0,0.0,0.0,0.0,0.0,0.0,0.0,0.0,0.0,0.0,0.0,0.0,0.0,0.0,0.0,0.0,0.0,0.0,0.0,0.0,0.0,0.0,0.0,0.0,0.0,0.0,0.0,0.0,0.0,0.0,0.0,0.0,0.0,0.0,0.0,0.0,0.0,0.0,0.0,0.0,0.0,0.0,0.0,0.0,0.0,0.0,0.0,0.0,0.0,0.0,0.0,0.0,0.0,0.0,0.0,0.0,0.0,0.0,0.0,0.0,0.0,0.0,0.0,0.0,0.0,0.0,0.0,0.0,0.0,0.0,0.0,0.0,0.0,0.0,0.0,0.0,-0.0535,-0.0243,0.0145,0.0618,0.0742,0.0918,0.1025,0.0,0.0,0.0,0.0,0.0,0.0,0.0,0.0,0.0,0.0,0.0,0.0,0.0,0.0,0.0,0.0,0.0,0.0,0.0,0.0,0.0,0.0,0.0,0.0,0.0,0.0,0.0,0.0,0.0,0.0,0.0,0.0,0.0,0.0,0.0,0.0,0.0,0.0,0.0,0.0,0.0,0.0,0.0,0.0,0.0,0.0,0.0,0.0,0.0,0.0,0.0,0.0,0.0,0.0,0.0,0.0,0.0,0.0,0.0,0.0,0.0,0.0,0.0,0.0,0.0,0.0,0.0,0.0,0.0,0.0,0.0,0.0,0.0,0.0,0.0,0.0,0.0,0.0,0.0,0.0,0.0,0.0,0.0,0.0,0.0,0.0,0.0,0.0,0.0,0.0,0.0,0.0,0.0,0.0,0.0,0.0,0.0,0.0,0.0,0.0,0.0,0.0,0.0,0.0,0.0,0.0,0.0,0.0,-0.1362,-0.0962,-0.0498,0.0048,0.0048,0.0225,0.0,0.0,0.0,0.0,0.0,0.0,0.0,0.0,0.0,0.0,0.0,0.0,0.0,0.0,0.0,0.0,0.0,0.0,0.0,0.0,0.0,0.0,0.0,0.0,0.0,0.0,0.0,0.0,0.0,0.0,0.0,0.0,0.0,0.0,0.0,0.0,0.0,0.0,0.0,0.0,0.0,0.0,0.0,0.0,0.0,0.0,0.0,0.0,0.0,0.0,0.0,0.0,0.0,0.0,0.0,0.0,0.0,0.0,0.0,0.0,0.0,0.0,0.0,0.0,0.0,0.0,0.0,0.0,0.0,0.0,0.0,0.0,0.0,0.0,0.0,0.0,0.0,0.0,0.0,0.0,0.0,0.0,0.0,0.0,0.0,0.0,0.0,0.0,0.0,0.0,0.0,0.0,0.0,0.0,0.0,0.0,0.0,0.0,0.0,0.0,0.0,0.0,0.0,0.0,0.0,0.0,0.0,0.0,0.0,-0.1967,-0.1751,-0.1324,-0.0597,-0.0483,-0.036,0.0,0.0,0.0,0.0,0.0,0.0,0.0,0.0,0.0,0.0,0.0,0.0,0.0,0.0,0.0,0.0,0.0,0.0,0.0,0.0,0.0,0.0,0.0,0.0,0.0,0.0,0.0,0.0,0.0,0.0,0.0,0.0,0.0,0.0,0.0,0.0,0.0,0.0,0.0,0.0,0.0,0.0,0.0,0.0,0.0,0.0,0.0,0.0,0.0,0.0,0.0,0.0,0.0,0.0,0.0,0.0,0.0,0.0,0.0,0.0,0.0,0.0,0.0,0.0,0.0,0.0,0.0,0.0,0.0,0.0,0.0,0.0,0.0,0.0,0.0,0.0,0.0,0.0,0.0,0.0,0.0,0.0,0.0,0.0,0.0,0.0,0.0,0.0,0.0,0.0,0.0,0.0,0.0,0.0,0.0,0.0,0.0,0.0,0.0,0.0,0.0,0.0,0.0,0.0,0.0,0.0,0.0,0.0,-0.2738,-0.2524,-0.2395,-0.2074,-0.1549,-0.1194,-0.0977,0.0,0.0,0.0,0.0,0.0,0.0,0.0,0.0,0.0,0.0,0.0,0.0,0.0,0.0,0.0,0.0,0.0,0.0,0.0,0.0,0.0,0.0,0.0,0.0,0.0,0.0,0.0,0.0,0.0,0.0,0.0,0.0,0.0,0.0,0.0,0.0,0.0,0.0,0.0,0.0,0.0,0.0,0.0,0.0,0.0,0.0,0.0,0.0,0.0,0.0,0.0,0.0,0.0,0.0,0.0,0.0,0.0,0.0,0.0,0.0,0.0,0.0,0.0,0.0,0.0,0.0,0.0,0.0,0.0,0.0,0.0,0.0,0.0,0.0,0.0,0.0,0.0,0.0,0.0,0.0,0.0,0.0,0.0,0.0,0.0,0.0,0.0,0.0,0.0,0.0,0.0,0.0,0.0,0.0,0.0,0.0,0.0,0.0,0.0,0.0,0.0,0.0,0.0,0.0,0.0,0.0,0.0,0.0,-0.3068,-0.3076,-0.2861,-0.2762,-0.2676,-0.2061,-0.1656,0.0,0.0,0.0,0.0,0.0,0.0,0.0,0.0,0.0,0.0,0.0,0.0,0.0,0.0,0.0,0.0,0.0,0.0,0.0,0.0,0.0,0.0,0.0,0.0,0.0,0.0,0.0,0.0,0.0,0.0,0.0,0.0,0.0,0.0,0.0,0.0,0.0,0.0,0.0,0.0,0.0,0.0,0.0,0.0,0.0,0.0,0.0,0.0,0.0,0.0,0.0,0.0,0.0,0.0,0.0,0.0,0.0,0.0,0.0,0.0,0.0,0.0,0.0,0.0,0.0,0.0,0.0,0.0,0.0,0.0,0.0,0.0,0.0,0.0,0.0,0.0,0.0,0.0,0.0,0.0,0.0,0.0,0.0,0.0,0.0,0.0,0.0,0.0,0.0,0.0,0.0,0.0,0.0,0.0,0.0,0.0,0.0,0.0,0.0,0.0,0.0,0.0,0.0,0.0,0.0,0.0,0.0,0.0,-0.3582,-0.3455,-0.3411,-0.3404,-0.3379,-0.2712,-0.2332,0.0,0.0,0.0,0.0,0.0,0.0,0.0,0.0,0.0,0.0,0.0,0.0,0.0,0.0,0.0,0.0,0.0,0.0,0.0,0.0,0.0,0.0,0.0,0.0,0.0,0.0,0.0,0.0,0.0,0.0,0.0,0.0,0.0,0.0,0.0,0.0,0.0,0.0,0.0,0.0,0.0,0.0,0.0,0.0,0.0,0.0,0.0,0.0,-0.035,0.0,0.0,0.0,0.0,0.0,0.0,0.0,0.0,0.0,0.0,0.0,0.0,0.0,0.0,0.0,0.0,0.0,0.0,0.0,0.0,0.0,0.0,0.0,0.0,0.0,0.0,0.0,0.0,0.0,0.0,0.0,0.0,0.0,0.0,0.0,0.0,0.0,0.0,0.0,0.0,0.0,0.0,0.0,0.0,0.0,0.0,0.0,0.0,0.0,0.0,0.0,0.0,0.0,0.0,0.0,0.0,0.0,0.0,0.0,-0.4122,-0.4129,-0.4042,-0.3993,-0.3877,-0.3573,-0.3306,0.0,0.0,0.0,0.0,0.0,0.0,0.0,0.0,0.0,0.0,0.0,0.0,0.0,0.0,0.0,0.0,0.0,0.0,0.0,0.0,0.0,0.0,0.0,0.0,0.0,0.0,0.0,0.0,0.0,0.0,0.0,0.0,0.0,0.0,0.0,0.0,0.0,0.0,0.0,0.0,0.0,0.0,0.0,0.0,0.0,0.0,0.0,0.0,0.0,0.0,0.0,0.0,0.0,0.0,0.0,0.0,0.0,0.0,0.0,0.0,0.0,0.0,0.0,0.0,0.0,0.0,0.0,0.0,0.0,0.0,0.0,0.0,0.0,0.0,0.0,0.0,0.0,0.0,0.0,0.0,0.0,0.0,0.0,0.0,0.0,0.0,0.0,0.0,0.0,0.0,0.0,0.0,0.0,0.0,0.0,0.0,0.0,0.0,0.0,0.0,0.0,0.0,0.0,0.0,0.0,0.0,0.0,-0.4595,-0.4611,-0.4747,-0.4672,-0.4502,-0.4304,-0.445,-0.4301,-0.3831,0.0,0.0,0.0,0.0,0.0,0.0,0.0,0.0,0.0,0.0,0.0,0.0,0.0,0.0,0.0,0.0,0.0,0.0,0.0,0.0,0.0,0.0,0.0,0.0,0.0,0.0,0.0,0.0,0.0,0.0,0.0,0.0,0.0,0.0,0.0,0.0,0.0,0.0,0.0,-0.0039,0.0,0.0,0.0,0.0,0.0,0.0,0.0,0.0,-0.1383,0.0,0.0,0.0,0.0,0.0,0.0,0.0,0.0,0.0,0.0,0.0,0.0,0.0,0.0,0.0,0.0,0.0,0.0,0.0,0.0,0.0,0.0,0.0,0.0,0.0,0.0,0.0,0.0,0.0,0.0,0.0,0.0,0.0,0.0,0.0,0.0,0.0,0.0,0.0,0.0,0.0,0.0,0.0,0.0,0.0,0.0,0.0,0.0,0.0,0.0,0.0,0.0,0.0,0.0,0.0,0.0,-0.496,-0.5022,-0.5058,-0.5125,-0.5157,-0.5091,-0.4871,-0.4998,-0.4973,-0.4749,0.0,0.0,0.0,0.0,0.0,0.0,0.0,0.0,0.0,0.0,0.0,0.0,0.0,0.0,0.0,0.0,0.0,0.0,0.0,0.0,0.0,0.0,0.0,0.0,0.0,0.0,0.0,0.0,0.0,0.0,0.0,0.0,0.0,0.0,0.0,0.0,0.0,0.0,0.0,-0.0081,-0.0173,0.0,0.0,0.0,0.0,0.0,0.0,0.0,0.0,-0.2057,0.0,0.0,0.0,0.0,0.0,0.0,0.0,0.0,0.0,0.0,0.0,0.0,0.0,0.0,0.0,0.0,0.0,0.0,0.0,0.0,0.0,0.0,0.0,0.0,0.0,0.0,0.0,0.0,0.0,0.0,0.0,0.0,0.0,0.0,0.0,0.0,0.0,0.0,0.0,0.0,0.0,0.0,0.0,0.0,0.0,0.0,0.0,0.0,0.0,0.0,0.0,0.0,0.0,0.0,0.0,-0.5397,-0.5429,-0.5434,-0.5439,-0.543,-0.5283,-0.5099,-0.5289,-0.5376,0.0,0.0,0.0,0.0,0.0,0.0,0.0,0.0,0.0,0.0,0.0,0.0,0.0,0.0,0.0,0.0,0.0,0.0,0.0,0.0,0.0,0.0,0.0,0.0,0.0,0.0,0.0,0.0,0.0,0.0,0.0,0.0,0.0,0.0,0.0,0.0,0.0,0.0,0.0,0.0,-0.0306,-0.046,-0.0536,0.0,0.0,0.0,0.0,0.0,0.0,-0.2525,-0.2715,0.0,0.0,0.0,0.0,0.0,0.0,0.0,0.0,0.0,0.0,0.0,0.0,0.0,0.0,0.0,0.0,0.0,0.0,0.0,0.0,0.0,0.0,0.0,0.0,0.0,0.0,0.0,0.0,0.0,0.0,0.0,0.0,0.0,0.0,0.0,0.0,0.0,0.0,0.0,0.0,0.0,0.0,0.0,0.0,0.0,0.0,0.0,0.0,0.0,0.0,0.0,0.0,0.0,0.0,0.0,-0.5776,-0.5745,-0.5737,-0.5816,-0.5722,-0.5548,-0.5382,-0.5603,-0.5705,0.0,0.0,0.0,0.0,0.0,0.0,0.0,0.0,0.0,0.0,0.0,0.0,0.0,0.0,0.0,0.0,0.0,0.0,0.0,0.0,0.0,0.0,0.0,0.0,0.0,0.0,0.0,0.0,0.0,0.0,0.0,0.0,0.0,0.0,0.0,0.0,0.0,0.0,0.0,0.0,0.0,-0.0823,-0.1013,-0.1275,0.0,0.0,0.0,0.0,-0.274,-0.3078,0.0,0.0,0.0,0.0,0.0,0.0,0.0,0.0,0.0,0.0,0.0,0.0,0.0,0.0,0.0,0.0,0.0,0.0,0.0,0.0,0.0,0.0,0.0,0.0,0.0,0.0,0.0,0.0,0.0,0.0,0.0,0.0,0.0,0.0,0.0,0.0,0.0,0.0,0.0,0.0,0.0,0.0,0.0,0.0,0.0,0.0,0.0,0.0,0.0,0.0,0.0,0.0,0.0,0.0,0.0,0.0,-0.5728,-0.6068,-0.6216,-0.6127,-0.6184,-0.6123,-0.5938,-0.611,-0.6027,0.0,0.0,0.0,0.0,0.0,0.0,0.0,0.0,0.0,0.0,0.0,0.0,0.0,0.0,0.0,0.0,0.0,0.0,0.0,0.0,0.0,0.0,0.0,0.0,0.0,0.0,0.0,0.0,0.0,0.0,0.0,0.0,0.0,0.0,0.0,0.0,0.0,0.0,0.0,0.0,0.0,-0.1222,-0.1469,-0.1851,-0.2085,0.0,0.0,0.0,-0.3441,-0.3619,0.0,0.0,0.0,0.0,0.0,0.0,0.0,0.0,0.0,0.0,0.0,0.0,0.0,0.0,0.0,0.0,0.0,0.0,0.0,0.0,0.0,0.0,0.0,0.0,0.0,0.0,0.0,0.0,0.0,0.0,0.0,0.0,0.0,0.0,0.0,0.0,0.0,0.0,0.0,0.0,0.0,0.0,0.0,0.0,0.0,0.0,0.0,0.0,0.0,0.0,0.0,0.0,0.0,0.0,0.0,-0.5879,-0.6031,-0.6286,-0.6393,-0.6358,-0.6383,-0.6296,-0.6231,-0.6211,-0.6109,0.0,0.0,0.0,0.0,0.0,0.0,0.0,0.0,0.0,0.0,0.0,0.0,0.0,0.0,0.0,0.0,0.0,0.0,0.0,0.0,0.0,0.0,0.0,0.0,0.0,0.0,0.0,0.0,0.0,0.0,0.0,0.0,0.0,0.0,0.0,0.0,0.0,0.0,0.0,0.0,0.0,0.0,-0.207,-0.2409,0.0,0.0,0.0,-0.3467,-0.3685,0.0,0.0,0.0,0.0,0.0,0.0,0.0,0.0,0.0,0.0,0.0,0.0,0.0,0.0,0.0,0.0,0.0,0.0,0.0,0.0,0.0,0.0,0.0,0.0,0.0,0.0,0.0,0.0,0.0,0.0,0.0,0.0,0.0,0.0,0.0,0.0,0.0,0.0,0.0,0.0,0.0,0.0,0.0,0.0,0.0,0.0,0.0,0.0,0.0,0.0,0.0,0.0,0.0,0.0,0.0,0.0,0.0,-0.6246,-0.6508,-0.6608,-0.6571,-0.6499,-0.6453,-0.6453,-0.6266,0.0,0.0,0.0,0.0,0.0,0.0,0.0,0.0,0.0,0.0,0.0,0.0,0.0,0.0,0.0,0.0,0.0,0.0,0.0,0.0,0.0,0.0,0.0,0.0,0.0,0.0,0.0,-0.3499,0.0,0.0,0.0,0.0,0.0,0.0,0.0,0.0,0.0,0.0,0.0,0.0,0.0,0.0,-0.2475,-0.2732,-0.2964,-0.3184,0.0,0.0,-0.3803,-0.3912,-0.4079,-0.4304,0.0,0.0,0.0,0.0,0.0,0.0,0.0,0.0,0.0,0.0,0.0,0.0,0.0,0.0,0.0,0.0,0.0,0.0,0.0,0.0,0.0,0.0,0.0,0.0,0.0,0.0,0.0,0.0,0.0,0.0,0.0,0.0,0.0,0.0,0.0,0.0,0.0,0.0,0.0,0.0,0.0,0.0,0.0,0.0,0.0,0.0,0.0,0.0,0.0,0.0,0.0,0.0,0.0,0.0,0.0,-0.6152,-0.6653,-0.6862,-0.6712,-0.6712,-0.6669,-0.6666,-0.6473,-0.6282,0.0,0.0,0.0,0.0,0.0,0.0,0.0,0.0,0.0,0.0,0.0,0.0,0.0,0.0,0.0,0.0,0.0,0.0,0.0,0.0,0.0,0.0,0.0,0.0,0.0,0.0,0.0,0.0,0.0,0.0,0.0,0.0,0.0,0.0,0.0,0.0,0.0,0.0,0.0,0.0,0.0,-0.3119,-0.3453,-0.3634,-0.3739,0.0,0.0,-0.4138,-0.4193,-0.4358,-0.4462,-0.4463,0.0,0.0,0.0,0.0,0.0,0.0,0.0,0.0,0.0,0.0,0.0,0.0,0.0,0.0,0.0,0.0,0.0,0.0,0.0,0.0,0.0,0.0,0.0,0.0,0.0,0.0,0.0,0.0,0.0,0.0,0.0,0.0,0.0,0.0,0.0,0.0,0.0,0.0,0.0,0.0,0.0,0.0,0.0,0.0,0.0,0.0,0.0,0.0,0.0,0.0,0.0,0.0,0.0,-0.6511,-0.6548,-0.6909,-0.7037,-0.6907,-0.6904,-0.6862,-0.6868,-0.6666,-0.6424,0.0,0.0,0.0,0.0,0.0,0.0,0.0,0.0,0.0,0.0,0.0,0.0,0.0,0.0,0.0,0.0,0.0,0.0,0.0,0.0,0.0,0.0,0.0,0.0,0.0,0.0,0.0,0.0,-0.4483,-0.434,-0.4207,0.0,0.0,0.0,0.0,0.0,0.0,0.0,0.0,0.0,0.0,-0.3579,-0.3795,-0.3913,0.0,0.0,-0.4316,-0.4464,-0.4616,-0.4688,-0.4745,-0.4745,-0.4743,0.0,0.0,0.0,0.0,0.0,0.0,0.0,0.0,0.0,0.0,0.0,0.0,0.0,0.0,0.0,0.0,0.0,0.0,0.0,0.0,0.0,0.0,0.0,0.0,0.0,0.0,0.0,0.0,0.0,0.0,0.0,0.0,0.0,0.0,0.0,0.0,0.0,0.0,0.0,0.0,0.0,0.0,0.0,0.0,0.0,0.0,0.0,0.0,0.0,0.0,0.0,0.0,-0.6723,-0.6919,-0.7228,-0.7295,-0.7031,-0.7108,-0.7111,-0.7021,-0.674,-0.6498,0.0,0.0,0.0,0.0,0.0,0.0,0.0,0.0,0.0,0.0,0.0,0.0,0.0,0.0,0.0,0.0,0.0,0.0,0.0,0.0,0.0,0.0,0.0,0.0,0.0,0.0,0.0,0.0,-0.4867,-0.4713,-0.4509,0.0,0.0,0.0,0.0,0.0,0.0,0.0,0.0,0.0,0.0,-0.3965,-0.4132,-0.4169,-0.4287,-0.4555,-0.4607,-0.4677,-0.4901,-0.4918,-0.4918,-0.4918,0.0,0.0,0.0,0.0,0.0,0.0,0.0,0.0,0.0,0.0,0.0,0.0,0.0,0.0,0.0,0.0,0.0,0.0,0.0,0.0,0.0,0.0,0.0,0.0,0.0,0.0,0.0,0.0,0.0,0.0,-0.4817,0.0,0.0,0.0,0.0,0.0,0.0,0.0,0.0,0.0,0.0,0.0,0.0,0.0,0.0,0.0,0.0,0.0,0.0,0.0,0.0,0.0,0.0,0.0,-0.7104,-0.7674,-0.7661,-0.7057,-0.7308,-0.7358,-0.6995,-0.6744,-0.6537,-0.6324,0.0,0.0,0.0,0.0,0.0,0.0,0.0,0.0,0.0,0.0,0.0,0.0,0.0,0.0,0.0,0.0,0.0,0.0,0.0,0.0,0.0,0.0,0.0,0.0,0.0,0.0,-0.5291,-0.5238,-0.512,0.0,0.0,0.0,0.0,0.0,0.0,0.0,0.0,0.0,0.0,-0.4158,-0.4247,-0.4468,-0.459,-0.4685,-0.4697,-0.4819,-0.4916,-0.4928,-0.4926,-0.4918,0.0,0.0,0.0,0.0,0.0,0.0,0.0,0.0,0.0,0.0,0.0,0.0,0.0,0.0,0.0,0.0,0.0,0.0,0.0,0.0,0.0,0.0,0.0,0.0,0.0,0.0,0.0,-0.5608,-0.5446,0.0,0.0,0.0,0.0,0.0,0.0,0.0,0.0,0.0,0.0,0.0,-0.7311,-0.6921,0.0,0.0,0.0,0.0,0.0,0.0,0.0,0.0,0.0,0.0,0.0,0.0,-0.7403,-0.7705,-0.7812,-0.7788,-0.7622,-0.7525,-0.7466,-0.7318,-0.7027,-0.673,-0.6434,0.0,0.0,0.0,0.0,0.0,0.0,0.0,0.0,0.0,0.0,0.0,0.0,0.0,0.0,0.0,0.0,0.0,0.0,0.0,0.0,0.0,0.0,0.0,0.0,0.0,-0.5557,0.0,0.0,0.0,0.0,0.0,0.0,0.0,0.0,0.0,0.0,0.0,-0.4647,-0.4543,-0.4548,-0.4561,-0.4658,-0.4658,-0.476,0.0,0.0,0.0,0.0,0.0,0.0,0.0,0.0,0.0,0.0,0.0,0.0,0.0,0.0,-0.52,-0.4811,-0.4736,-0.477,-0.4768,0.0,0.0,0.0,0.0,0.0,0.0,0.0,0.0,0.0,0.0,0.0,0.0,0.0,0.0,-0.6175,0.0,-0.6112,0.0,0.0,0.0,0.0,0.0,0.0,0.0,0.0,-0.7568,-0.7687,-0.7858,-0.7422,-0.7247,0.0,-0.6888,-0.6699,0.0,0.0,0.0,0.0,0.0,0.0,0.0,0.0,-0.7773,-0.8026,-0.813,-0.8106,-0.7923,-0.7832,-0.7725,-0.7516,-0.7166,-0.6897,-0.6738,-0.6626,-0.655,0.0,0.0,0.0,0.0,0.0,0.0,0.0,0.0,0.0,0.0,0.0,0.0,0.0,0.0,0.0,0.0,0.0,0.0,0.0,0.0,0.0,0.0,0.0,-0.588,0.0,0.0,0.0,0.0,0.0,0.0,0.0,0.0,0.0,-0.5742,-0.5383,-0.5166,-0.5057,-0.5026,-0.4948,-0.4931,0.0,0.0,0.0,0.0,0.0,0.0,0.0,-0.5624,-0.5684,-0.5686,-0.5818,-0.6022,-0.6191,-0.6213,-0.6147,0.0,0.0,-0.5159,-0.5007,-0.4995,-0.4995,-0.4869,-0.4773,-0.4763,-0.4647,-0.4575,0.0,0.0,0.0,0.0,0.0,0.0,0.0,0.0,-0.7074,-0.6924,0.0,-0.652,0.0,0.0,0.0,0.0,0.0,0.0,0.0,0.0,-0.8294,-0.8173,-0.7966,-0.7736,-0.7726,-0.7875,-0.7671,-0.7565,-0.7568,-0.6914,0.0,0.0,0.0,0.0,0.0,0.0,-0.8192,-0.8146,-0.8626,-0.8553,-0.7986,-0.8227,-0.8128,-0.7527,-0.7124,-0.7005,-0.7164,-0.6772,-0.6652,-0.6892,-0.683,0.0,0.0,0.0,0.0,0.0,0.0,0.0,0.0,0.0,0.0,0.0,0.0,0.0,0.0,0.0,0.0,0.0,0.0,0.0,0.0,-0.6288,0.0,0.0,0.0,0.0,0.0,0.0,0.0,0.0,0.0,0.0,-0.6398,-0.6018,-0.5806,-0.5731,0.0,0.0,0.0,0.0,-0.57,-0.5711,-0.5849,-0.5888,-0.5892,-0.5888,-0.5892,-0.5954,0.0,0.0,-0.6418,-0.6745,-0.6936,-0.6928,-0.6906,-0.6533,-0.5588,-0.5301,-0.514,-0.5161,-0.5047,-0.4969,-0.4929,-0.4863,-0.4786,-0.4815,0.0,0.0,0.0,0.0,-0.6727,-0.6937,-0.696,-0.7101,-0.7202,-0.7217,-0.7186,0.0,0.0,0.0,0.0,0.0,0.0,-0.8335,-0.8417,-0.8427,-0.849,-0.8544,-0.829,-0.8194,-0.8233,-0.7946,-0.7799,-0.7836,-0.7722,-0.7588,-0.7477,0.0,0.0,0.0,0.0,-0.8491,-0.8651,-0.8749,-0.8712,-0.8554,-0.8437,-0.8135,-0.7575,-0.7437,-0.7291,-0.7197,-0.7201,-0.7108,-0.6824,-0.6934,0.0,0.0,0.0,0.0,0.0,0.0,0.0,0.0,0.0,0.0,0.0,0.0,0.0,0.0,0.0,0.0,0.0,0.0,0.0,-0.7178,-0.6889,-0.679,0.0,0.0,0.0,0.0,0.0,0.0,0.0,0.0,0.0,-0.7794,-0.7295,-0.6835,0.0,0.0,-0.6293,-0.6173,-0.6113,-0.6062,-0.6055,0.0,0.0,0.0,-0.6148,-0.6214,-0.6412,-0.6679,-0.6937,-0.7134,-0.7463,-0.7656,-0.7629,-0.7721,-0.7641,-0.7051,-0.6295,-0.5838,-0.5882,-0.5686,-0.5455,-0.5549,-0.5406,-0.5199,-0.5021,-0.5526,-0.5807,-0.6082,-0.6418,-0.6819,-0.7025,-0.7167,-0.7369,-0.7522,-0.7604,-0.7653,-0.7795,-0.8024,-0.816,0.0,0.0,0.0,-0.8637,-0.868,-0.868,-0.8731,-0.8788,-0.8627,-0.854,-0.854,-0.8363,-0.822,-0.8103,-0.8193,-0.8138,-0.7843,0.0,0.0,-0.8551,-0.8632,-0.8696,-0.8831,-0.8818,-0.8824,-0.8794,-0.8454,-0.8215,-0.8028,-0.7717,-0.7564,-0.7495,-0.7573,-0.7412,-0.7012,-0.7111,-0.7089,0.0,0.0,0.0,0.0,0.0,0.0,0.0,0.0,0.0,0.0,0.0,-0.7878,0.0,0.0,0.0,0.0,-0.8166,-0.7991,-0.7634,-0.7522,0.0,0.0,0.0,0.0,0.0,0.0,0.0,-0.8515,-0.868,-0.878,-0.8863,-0.8569,-0.8075,-0.7397,-0.7276,-0.7135,-0.7001,0.0,-0.6741,-0.6593,-0.6478,-0.6414,-0.648,-0.6544,-0.6673,-0.6937,-0.7328,-0.7528,-0.7654,-0.8047,-0.8262,-0.8262,-0.834,-0.8287,-0.8078,-0.733,-0.6644,-0.6545,-0.627,-0.6043,-0.6074,-0.5837,-0.5586,-0.5175,-0.5592,-0.5701,-0.6004,-0.654,-0.6919,-0.7257,-0.7512,-0.7791,-0.7952,-0.7931,-0.7941,-0.8031,-0.8156,-0.821,0.0,0.0,-0.8734,-0.884,-0.9012,-0.9012,-0.8906,-0.8808,-0.8804,-0.8808,-0.8804,-0.8808,-0.8671,-0.8417,-0.8497,-0.8401,-0.8143,-0.8327,-0.8503,-0.8638,-0.8797,-0.8856,-0.8741,-0.8913,-0.8956,-0.8854,-0.8398,-0.8322,-0.862,-0.8077,-0.7859,-0.8009,-0.7857,-0.7616,-0.7356,-0.7308,-0.717,-0.6963,0.0,0.0,0.0,0.0,0.0,0.0,0.0,0.0,0.0,0.0,0.0,0.0,0.0,0.0,0.0,-0.8526,0.0,-0.7929,-0.8186,0.0,0.0,0.0,-0.8356,-0.8424,-0.8464,-0.8624,-0.912,0.0,0.0,0.0,0.0,-0.9475,-0.8493,-0.8239,-0.8052,-0.7862,-0.7782,-0.7661,-0.733,-0.7265,-0.7136,-0.701,-0.7138,-0.733,-0.7526,-0.7854,-0.8052,-0.8117,-0.8506,-0.8835,-0.8815,-0.8771,-0.875,-0.875,-0.8298,-0.7735,-0.7145,-0.6884,-0.6699,-0.6569,-0.6271,-0.6026,-0.5183,-0.5397,-0.5793,-0.6098,-0.6467,-0.7009,-0.7413,-0.767,-0.7999,-0.8215,-0.8415,-0.8452,-0.858,-0.8788,-0.8872,-0.8937,-0.8947,-0.8951,-0.8888,-0.8854,-0.8857,-0.8801,-0.8808,-0.8808,-0.8808,-0.8808,-0.8808,-0.8771,-0.8704,-0.8697,-0.8719,-0.8652,-0.8649,-0.868,-0.8704,-0.8916,-0.9073,-0.9096,-0.9225,-0.9309,-0.9249,-0.9037,-0.8963,-0.89,-0.8627,-0.8415,-0.8295,-0.8249,-0.8083,-0.7847,-0.7969,-0.7811,-0.7299,-0.7648,0.0,0.0,0.0,0.0,0.0,0.0,0.0,0.0,0.0,-0.8506,-0.879,0.0,-0.9488,0.0,-1.0115,-1.0072,-0.9563,-0.9322,0.0,0.0,-0.8751,-0.8664,-0.8816,-0.8756,-0.8838,-0.914,-0.9325,-0.9499,-0.9787,-0.9878,-0.9856,-0.9594,-0.9212,-0.8891,-0.8697,-0.8431,-0.8236,-0.7979,-0.7724,-0.7596,-0.7729,-0.7852,-0.8047,-0.8247,-0.8447,-0.8641,-0.8644,-0.8891,-0.9207,-0.9335,-0.9299,-0.9319,-0.9298,-0.9127,-0.8777,-0.8202,-0.7634,-0.7252,-0.7213,-0.7053,-0.6799,-0.535,-0.5574,-0.59,-0.6275,-0.6657,-0.7098,-0.747,-0.7723,-0.8106,-0.8421,-0.8626,-0.8685,-0.8742,-0.8906,-0.9008,-0.9012,-0.8906,-0.8906,-0.886,-0.8808,-0.8808,-0.8808,-0.8808,-0.8808,-0.8808,-0.8808,-0.8808,-0.8808,-0.8808,-0.8808,-0.8801,-0.891,-0.8903,-0.8926,-0.901,-0.901,-0.9153,-0.9312,-0.9454,-0.9614,-0.9666,-0.9607,-0.9593,-0.9585,-0.9233,-0.9009,-0.8935,-0.8783,-0.8527,-0.824,-0.8371,-0.8263,-0.7883,-0.8124,-0.8215,0.0,0.0,0.0,0.0,0.0,0.0,0.0,0.0,0.0,0.0,0.0,-1.0263,0.0,-1.0846,0.0,-1.0228,-0.9913,-0.962,-0.943,-0.9123,-0.8968,-0.9176,-0.9052,-0.9107,-0.9583,-0.9659,-0.9804,-1.0161,-1.0266,-1.0238,-1.0244,-0.998,-0.9664,-0.9408,-0.921,-0.8949,-0.8624,-0.8369,-0.8312,-0.8379,-0.8439,-0.8501,-0.8703,-0.8952,-0.9084,-0.9145,-0.9402,-0.9658,-0.9719,-0.9728,-0.9734,-0.9658,-0.9527,-0.9271,-0.8938,-0.8401,-0.7981,-0.7632,-0.7463,-0.7197,-0.5574,-0.585,-0.6121,-0.65,-0.6933,-0.7257,-0.7521,-0.7777,-0.8206,-0.8527,-0.8629,-0.8798,-0.886,-0.886,-0.8857,-0.886,-0.886,-0.8808,-0.8811,-0.8808,-0.8808,-0.8808,-0.8808,-0.8808,-0.8808,-0.8808,-0.8808,-0.8808,-0.8808,-0.8811,-0.886,-0.9012,-0.9057,-0.9159,-0.9413,-0.9215,-0.9263,-0.9517,-0.9773,-0.998,-1.015,-1.0168,-1.0218,-1.0377,-0.9879,-0.9628,-0.9696,-0.9295,-0.8945,-0.8664,-0.8727,-0.87,-0.8515,-0.8658,-0.8787,0.0,-0.9028,0.0,0.0,0.0,0.0,0.0,0.0,0.0,0.0,-1.0806,-1.1103,-1.1249,-1.12,-1.0913,-1.0462,-1.0285,-0.9998,-0.9619,-0.9394,-0.9326,-0.9419,-0.9327,-0.9506,-1.0057,-1.0117,-1.0224,-1.0504,-1.0621,-1.0558,-1.0558,-1.0434,-1.0177,-0.9993,-0.9801,-0.9603,-0.921,-0.9084,-0.9022,-0.8964,-0.8896,-0.9025,-0.9151,-0.9332,-0.9582,-0.9585,-0.9786,-0.9986,-1.0047,-0.9983,-0.9986,-0.9865,-0.9658,-0.9524,-0.9335,-0.9005,-0.8557,-0.7987,-0.7724,-0.7463,-0.5789,-0.6173,-0.6492,-0.6761,-0.709,-0.7574,-0.7901,-0.8109,-0.8418,-0.8685,-0.8952,-0.9057,-0.9113,-0.9106,-0.911,-0.9064,-0.8959,-0.8959,-0.8906,-0.8808,-0.8808,-0.8808,-0.8808,-0.8808,-0.8808,-0.8808,-0.8808,-0.8808,-0.8808,-0.8906,-0.8956,-0.9012,-0.9208,-0.9409,-0.9562,0.0,0.0,0.0,-1.0458,-1.0663,-1.0863,-1.0906,-1.0912,-1.0928,-1.0536,0.0,-1.0148,-0.9763,-0.9523,-0.949,-0.9515,0.0,0.0,0.0,0.0,0.0,0.0,0.0,0.0,0.0,0.0,0.0,-1.0669,-1.0663,-1.0806,-1.1388,-1.1784,-1.1686,-1.1697,-1.155,-1.1152,-1.0768,-1.0414,-0.997,-0.9925,-0.9879,-0.9677,-0.9732,-0.9849,-1.007,-1.0117,-1.0231,-1.0508,-1.0621,-1.0621,-1.0621,-1.0558,-1.0498,-1.0431,-1.018,-0.9926,-0.9795,-0.9667,-0.9609,-0.9612,-0.9606,-0.9606,-0.9792,-0.9853,-0.9916,-0.9916,-0.9919,-1.005,-1.0177,-1.0117,-1.005,-1.0177,-0.9989,-0.9664,-0.9527,-0.9207,-0.8829,-0.8449,-0.8117,-0.7727,-0.6057,0.0,-0.6763,-0.7139,0.0,-0.7946,-0.8271,-0.8484,-0.8639,-0.8847,-0.911,-0.9162,-0.9204,-0.9204,-0.9204,-0.9159,-0.911,-0.9057,-0.8956,-0.8906,-0.8801,-0.8808,-0.8808,-0.8808,-0.8808,-0.8808,-0.886,-0.8906,-0.8906,-0.9061,-0.9159,-0.9316,-0.9409,-0.9673,-1.0039,-1.0454,-1.0663,-1.0718,-1.1023,-1.1276,-1.1377,-1.1569,-1.1675,-1.1707,0.0,0.0,0.0,0.0,0.0,0.0,0.0,0.0,0.0,0.0,0.0,-0.9595,-0.9802,-0.9956,-0.9971,-1.0347,-1.0684,-1.0889,-1.1313,-1.1509,-1.1514,-1.2025,-1.2258,-1.2163,-1.2006,-1.1723,-1.1326,-1.0922,-1.0585,-1.0287,-1.0171,-1.0103,-1.0136,-1.0155,-1.0186,-1.0335,-1.0337,-1.0401,-1.0601,-1.0621,-1.0621,-1.0621,-1.0621,-1.0621,-1.0561,-1.0431,-1.0241,-1.0174,-0.9989,-0.9926,-0.9865,-0.9862,-0.9926,-0.9986,-1.0053,-1.0114,-1.0177,-1.0244,-1.0304,-1.0434,-1.0368,-1.0304,-1.0241,-1.005,-0.9862,-0.9661,-0.9277,-0.8958,-0.8767,-0.8376,-0.7854,-0.6273,-0.6761,-0.7031,-0.7464,-0.7901,-0.8325,-0.8636,-0.8959,0.0,0.0,0.0,-0.9319,-0.9319,-0.9316,-0.9316,-0.926,-0.9211,-0.911,-0.9061,-0.9012,-0.886,-0.8808,-0.8808,-0.8808,-0.8808,-0.8808,-0.8962,-0.9012,-0.9008,-0.9159,-0.9361,-0.9562,-0.9669,-1.0039,-1.0616,-1.1116,-1.1276,-1.112,-1.1528,-1.1778,-1.1823,-1.2175,-1.2328,-1.2382,-1.2082,-1.174,-1.1414,-1.1003,-1.0588,-1.0188,-1.0164,-1.013,-1.0132,-1.0195,-1.0312,-1.0395,-1.0459,-1.0547,-1.0547,-1.0825,-1.106,-1.1138,-1.184,-1.2297,-1.2292,-1.2527,-1.2627,-1.2485,-1.2126,-1.1728,-1.1322,-1.0988,-1.0721,-1.0535,-1.0434,-1.0439,-1.0569,-1.0596,-1.0537,-1.0571,-1.0604,-1.0618,-1.0618,-1.0621,-1.0621,-1.0621,-1.0621,-1.0621,-1.0621,-1.0558,-1.0498,-1.0368,-1.0241,-1.0114,-1.0114,-1.011,-1.0114,-1.0114,-1.0244,-1.0368,-1.0368,-1.0498,-1.0558,-1.0558,-1.0621,-1.0495,-1.0368,-1.0174,-0.9989,-0.9862,-0.9408,-0.902,-0.8955,-0.8436,-0.7919,-0.6327,-0.6874,-0.7306,-0.7628,-0.7952,-0.849,-0.9005,-0.9462,-0.9514,-0.9517,-0.9566,-0.9784,-0.9844,-0.9695,-0.9744,-0.958,-0.9364,-0.9364,-0.9215,0.0,-0.8959,-0.8906,-0.8808,-0.8808,-0.8808,-0.8808,-0.8962,-0.9012,-0.9012,-0.9263,-0.9462,-0.9614,-0.9995,-1.0514,-1.1171,-1.1377,-1.1628,-1.1927,-1.2017,-1.218,-1.2372,-1.2475,-1.2529,-1.2613,-1.2225,-1.2017,-1.2037,-1.166,-1.1274,-1.0809,-1.0784,-1.0619,-1.0322,-1.059,-1.0784,-1.0845,-1.1214,-1.1425,-1.1415,-1.1479,-1.1636,-1.2021,-1.241,-1.2638,-1.2643,-1.2545,-1.248,-1.2328,-1.1977,-1.1623,-1.1344,-1.1308,-1.1083,-1.0666,-1.1005,-1.1152,-1.0671,-1.0825,-1.0871,-1.0614,-1.0621,-1.0621,-1.0621,-1.0621,-1.0621,-1.0621,-1.0621,-1.0621,-1.0621,-1.0621,-1.0558,-1.0558,-1.0558,-1.0491,-1.0495,-1.0495,-1.0491,-1.0495,-1.0495,-1.0495,-1.0558,-1.0561,-1.0621,-1.0621,-1.0621,-1.0558,-1.0491,-1.0238,-1.005,-0.9923,-0.9469,-0.902,-0.902,-0.8441,-0.7922,-0.6487,-0.7033,-0.7458,-0.7889,-0.8318,-0.8949,-0.9469,-0.9832,-0.9991,-0.9988,-0.9836,-0.9943,-0.9947,-0.9899,-0.9844,-0.974,-0.9632,-0.9472,-0.9361,-0.9211,-0.9054,-0.8956,-0.8906,-0.8801,-0.8801,-0.8906,-0.9057,-0.9162,-0.926,-0.9476,-0.9677,-0.9832,-1.0407,-1.0977,-1.1423,-1.1623,-1.1932,-1.2323,-1.2328,-1.2426,-1.2622,-1.2681,-1.273,-1.2774,-1.2585,-1.2376,-1.2236,-1.2031,-1.1719,-1.1284,-1.1255,-1.1172,-1.1042,-1.1162,-1.1265,-1.127,-1.1498,-1.1601,-1.1601,-1.1792,-1.2068,-1.2454,-1.2619,-1.2627,-1.2485,-1.2426,-1.2328,-1.218,-1.1877,-1.1661,-1.1451,-1.1431,-1.1297,-1.1058,-1.1312,-1.1308,-1.1005,-1.102,-1.0926,-1.0688,-1.0621,-1.0621,-1.0621,-1.0621,-1.0621,-1.0621,-1.0621,-1.0621,-1.0621,-1.0621,-1.0621,-1.0621,-1.0621,-1.0621,-1.0621,-1.0621,-1.0621,-1.0621,-1.0621,-1.0621,-1.0621,-1.0621,-1.0621,-1.0621,-1.0621,-1.0621,-1.0558,-1.0241,-1.005,-0.9919,-0.9466,-0.9081,-0.8958,-0.8439,-0.7857,-0.6588,-0.7187,-0.767,-0.8203,-0.8883,-0.9462,-0.9832,-1.015,-1.0462,-1.0411,-1.0205,-1.0154,-1.0158,-1.0106,-0.9955,-0.9851,-0.9795,-0.9577,-0.9469,-0.9361,-0.9159,-0.9057,-0.9061,-0.8959,-0.8959,-0.9061,-0.9159,-0.9316,-0.9465,-0.9688,-0.9899,-1.0205,-1.082,-1.1272,-1.1578,-1.1828,-1.213,-1.248,-1.2534,-1.2622,-1.273,-1.2827,-1.2886,-1.2886,-1.2886,-1.2725,-1.2402,-1.2378,-1.2173,-1.1797,-1.1709,-1.1709,-1.1616,-1.1709,-1.1753,-1.1758,-1.1846,-1.19,-1.192,-1.2127,-1.242,-1.2696,-1.2632,-1.2524,-1.2278,-1.2229,-1.2175,-1.2026,-1.1769,-1.1579,-1.1549,-1.1506,-1.1463,-1.1517,-1.1559,-1.1465,-1.1142,-1.1129,-1.1,-1.0681,-1.0621,-1.0621,-1.0621,-1.0621,-1.0621,-1.0621,-1.0621,-1.0621,-1.0621,-1.0621,-1.0621,-1.0621,-1.0621,-1.0621,-1.0621,-1.0621,-1.0621,-1.0621,-1.0621,-1.0621,-1.0621,-1.0621,-1.0621,-1.0621,-1.0621,-1.0621,-1.0561,-1.0308,-1.0053,-0.9983,-0.9463,-0.8952,-0.8759,-0.8309,-0.7727,-0.6753,-0.7343,-0.7996,-0.8784,-0.951,-0.9836,-1.0154,-1.0466,-1.0722,-1.082,-1.0769,-1.0675,-1.0569,-1.047,-1.0312,-1.0058,-0.9799,-0.9795,-0.9632,-0.9413,-0.9361,-0.9312,-0.9159,-0.9159,-0.9162,-0.9211,-0.9312,-0.9462,-0.9566,-0.9732,-1.0106,-1.0616,-1.1078,-1.1427,-1.1669,-1.1927,-1.2229,-1.2529,-1.2632,-1.2725,-1.2886,-1.2886,-1.2886,-1.2886,-1.2886,-1.2861,-1.2793,-1.2866,-1.2622,-1.2217,-1.2163,-1.1982,-1.1714,-1.1948,-1.2117,-1.2137,-1.2524,-1.2764,-1.2749,-1.2691,-1.2677,-1.2666,-1.248,-1.2278,-1.2126,-1.2026,-1.1927,-1.1823,-1.1578,-1.1443,-1.1546,-1.1544,-1.1488,-1.1531,-1.1631,-1.1589,-1.1178,-1.1129,-1.0933,-1.0624,-1.0621,-1.0621,-1.0621,-1.0621,-1.0621,-1.0621,-1.0621,-1.0621,-1.0621,-1.0621,-1.0621,-1.0621,-1.0621,-1.0621,-1.0621,-1.0621,-1.0621,-1.0621,-1.0621,-1.0621,-1.0621,-1.0621,-1.0621,-1.0621,-1.0621,-1.0621,-1.0495,-1.0304,-1.0053,-0.9919,-0.9463,-0.8821,-0.8306,-0.7919,-0.7533,-0.6812,-0.7456,-0.8103,-0.8942,-0.9832,-1.0154,-1.0466,-1.0769,-1.1023,-1.1074,-1.1023,-1.1019,-1.0871,-1.0616,-1.0466,-1.0213,-0.9903,-0.9851,-0.9681,-0.9517,-0.9462,-0.9364,-0.9309,-0.9267,-0.9263,-0.9312,-0.9361,-0.9521,-0.974,-1.0054,-1.0518,-1.1023,-1.1326,-1.1578,-1.1823,-1.2071,-1.2328,-1.248,-1.2627,-1.2783,-1.2881,-1.2886,-1.2886,-1.2886,-1.2886,-1.2886,-1.2886,-1.2886,-1.2841,-1.2627,-1.2617,-1.2529,-1.24,-1.252,-1.2607,-1.2622,-1.2773,-1.2881,-1.2783,-1.2725,-1.2632,-1.2485,-1.2278,-1.2126,-1.1977,-1.1723,-1.1523,-1.1528,-1.1368,-1.1353,-1.1487,-1.1491,-1.1557,-1.1673,-1.1669,-1.1498,-1.1125,-1.1,-1.0807,-1.0621,-1.0621,-1.0621,-1.0621,-1.0621,-1.0621,-1.0621,-1.0621,-1.0621,-1.0621,-1.0621,-1.0621,-1.0621,-1.0621,-1.0621,-1.0621,-1.0621,-1.0621,-1.0621,-1.0621,-1.0621,-1.0621,-1.0621,-1.0621,-1.0621,-1.0621,-1.0621,-1.0621,-1.0304,-0.9986,-0.9853,-0.9463,-0.8821,-0.8112,-0.7857,-0.7533,-0.6864,-0.7619,-0.8365,-0.9215,-1.011,-1.0415,-1.0722,-1.1023,-1.1272,-1.1326,-1.1267,-1.1322,-1.1175,-1.0875,-1.0675,-1.0411,-1.0154,-0.9947,-0.9784,-0.9673,-0.9514,-0.9462,-0.9465,-0.9361,-0.9361,-0.9465,-0.9521,-0.9684,-1.0007,-1.0419,-1.0871,-1.1276,-1.1477,-1.1678,-1.1932,-1.2224,-1.2431,-1.2529,-1.2671,-1.2774,-1.2886,-1.2886,-1.2886,-1.2886,-1.2886,-1.2886,-1.2886,-1.2886,-1.2886,-1.2886,-1.2886,-1.2886,-1.2886,-1.2886,-1.2886,-1.2886,-1.2881,-1.2783,-1.2676,-1.2632,-1.2475,-1.2278,-1.2126,-1.1977,-1.1723,-1.1473,-1.1221,-1.1078,-1.107,-1.1172,-1.1452,-1.1345,-1.1465,-1.1697,-1.1619,-1.1376,-1.1122,-1.093,-1.0741,-1.0621,-1.0621,-1.0621,-1.0621,-1.0621,-1.0621,-1.0621,-1.0621,-1.0621,-1.0621,-1.0621,-1.0621,-1.0621,-1.0621,-1.0621,-1.0621,-1.0621,-1.0621,-1.0621,-1.0621,-1.0621,-1.0621,-1.0621,-1.0621,-1.0621,-1.0621,-1.0558,-1.0431,-1.0177,-0.9859,-0.9664,-0.9277,-0.8759,-0.8117,-0.7792,-0.7403,-0.702,-0.7824,-0.8883,-0.9684,-1.0312,-1.0569,-1.0926,-1.1272,-1.1423,-1.1573,-1.1628,-1.1523,-1.1423,-1.1221,-1.0875,-1.062,-1.0466,-1.0154,-0.9899,-0.9792,-0.9677,-0.9562,-0.9618,-0.9562,-0.9566,-0.9621,-0.9688,-0.9999,-1.0419,-1.0773,-1.1023,-1.1322,-1.1573,-1.1823,-1.2071,-1.2328,-1.2583,-1.2681,-1.2832,-1.2881,-1.2886,-1.2886,-1.2886,-1.2886,-1.2886,-1.2886,-1.2886,-1.2886,-1.2886,-1.2886,-1.2886,-1.2886,-1.2886,-1.2886,-1.2886,-1.2881,-1.2779,-1.273,-1.2681,-1.248,-1.2283,-1.2126,-1.1972,-1.1778,-1.1423,-1.1267,-1.1015,-1.062,-1.0573,-1.0756,-1.128,-1.1107,-1.115,-1.1636,-1.1494,-1.124,-1.1122,-1.0867,-1.0741,-1.0621,-1.0621,-1.0621,-1.0621,-1.0621,-1.0621,-1.0621,-1.0621,-1.0621,-1.0621,-1.0621,-1.0621,-1.0621,-1.0621,-1.0621,-1.0621,-1.0621,-1.0621,-1.0621,-1.0621,-1.0621,-1.0621,-1.0621,-1.0621,-1.0621,-1.0621,-1.0495,-1.0304,-1.0047,-0.9661,-0.9405,-0.9087,-0.8573,-0.812,-0.7594,-0.7204,-0.7292,-0.8477,-0.9201,-0.9884,-1.0466,-1.082,-1.1129,-1.1418,-1.1678,-1.1719,-1.1723,-1.1723,-1.1628,-1.1423,-1.1171,-1.0871,-1.0514,-1.0265,-1.0054,-0.9851,-0.974,-0.9677,-0.9618,-0.9618,-0.9673,-0.9736,-0.9795,-1.0106,-1.0616,-1.0972,-1.1326,-1.1523,-1.1723,-1.1977,-1.2229,-1.2382,-1.2578,-1.2686,-1.2827,-1.2886,-1.2886,-1.2886,-1.2886,-1.2886,-1.2886,-1.2886,-1.2886,-1.2886,-1.2886,-1.2886,-1.2886,-1.2886,-1.2886,-1.2886,-1.2881,-1.2779,-1.2725,-1.2627,-1.2475,-1.2278,-1.2121,-1.1977,-1.1669,-1.1473,-1.1276,-1.0977,-1.0722,-1.0518,-1.0213,-1.036,-1.0867,-1.0868,-1.0953,-1.1348,-1.1306,-1.1118,-1.093,-1.0741,-1.0618,-1.0624,-1.0621,-1.0621,-1.0621,-1.0621,-1.0621,-1.0621,-1.0621,-1.0621,-1.0621,-1.0621,-1.0621,-1.0621,-1.0621,-1.0621,-1.0621,-1.0621,-1.0621,-1.0621,-1.0621,-1.0621,-1.0621,-1.0621,-1.0621,-1.0621,-1.0621,-1.0498,-1.0244,-0.9916,-0.953,-0.9151,-0.8832,-0.8441,-0.812,-0.7528,-0.7204,-0.7777,-0.885,-0.9469,-1.0039,-1.0569,-1.0964,-1.1322,-1.1573,-1.1828,-1.1877,-1.1819,-1.1873,-1.1778,-1.1578,-1.1372,-1.1074,-1.062,-1.047,-1.0162,-0.9903,-0.9795,-0.9736,-0.9618,-0.9621,-0.9736,-0.9799,-0.9955,-1.0308,-1.0714,-1.112,-1.1423,-1.1678,-1.1873,-1.2071,-1.2332,-1.2471,-1.2627,-1.273,-1.2822,-1.2886,-1.2886,-1.2886,-1.2886,-1.2886,-1.2886,-1.2886,-1.2886,-1.2886,-1.2886,-1.2886,-1.2886,-1.2886,-1.2886,-1.2886,-1.2832,-1.2735,-1.2686,-1.2524,-1.2328,-1.2126,-1.1972,-1.1773,-1.1473,-1.1267,-1.1065,-1.0726,-1.0466,-1.0261,-0.9959,-1.0002,-1.0457,-1.058,-1.0792,-1.1163,-1.1122,-1.0933,-1.0811,-1.0684,-1.0621,-1.0621,-1.0621,-1.0618,-1.0681,-1.0684,-1.0684,-1.0681,-1.0688,-1.0684,-1.0621,-1.0621,-1.0621,-1.0621,-1.0621,-1.0621,-1.0621,-1.0621,-1.0621,-1.0621,-1.0621,-1.0621,-1.0621,-1.0621,-1.0621,-1.0621,-1.0495,-1.0371,-1.0114,-0.9722,-0.9341,-0.9022,-0.8633,-0.8242,-0.7854,-0.7463,-0.7073,-0.848,-0.9061,-0.9688,-1.0257,-1.0714,-1.112,-1.1477,-1.1678,-1.1882,-1.1981,-1.2031,-1.1977,-1.1823,-1.1673,-1.1469,-1.1171,-1.0922,-1.0616,-1.0364,-1.0003,-0.9899,-0.9788,-0.9669,-0.9732,-0.9844,-0.9903,-1.0261,-1.0624,-1.0926,-1.1221,-1.1477,-1.1728,-1.1977,-1.2224,-1.2471,-1.2632,-1.2735,-1.2881,-1.2881,-1.2886,-1.2886,-1.2886,-1.2886,-1.2886,-1.2886,-1.2886,-1.2886,-1.2886,-1.2886,-1.2886,-1.2886,-1.2886,-1.2886,-1.2886,-1.2837,-1.2681,-1.2573,-1.2431,-1.2283,-1.2022,-1.1773,-1.1528,-1.1377,-1.107,-1.0671,-1.0522,-1.0312,-0.9895,-0.9755,-0.9824,-1.0208,-1.0243,-1.0439,-1.1123,-1.0993,-1.087,-1.0744,-1.0684,-1.0621,-1.0624,-1.0684,-1.0684,-1.0744,-1.0807,-1.0807,-1.0807,-1.0804,-1.0807,-1.0688,-1.0684,-1.0621,-1.0621,-1.0621,-1.0621,-1.0621,-1.0621,-1.0621,-1.0621,-1.0621,-1.0621,-1.0621,-1.0621,-1.0621,-1.0558,-1.0368,-1.0244,-0.9919,-0.953,-0.9215,-0.8832,-0.8439,-0.8109,-0.7719,-0.733,-0.7005,-0.8484,-0.9061,-0.9744,-1.0308,-1.0871,-1.1272,-1.1573,-1.1819,-1.1977,-1.2071,-1.2076,-1.2071,-1.1981,-1.1823,-1.1619,-1.1423,-1.1175,-1.0871,-1.0565,-1.0265,-1.0162,-1.0054,-0.9888,-0.9895,-1.0054,-1.0312,-1.0616,-1.0926,-1.1179,-1.1418,-1.1682,-1.1828,-1.2126,-1.2328,-1.248,-1.2632,-1.2779,-1.2886,-1.2886,-1.2886,-1.2886,-1.2886,-1.2886,-1.2886,-1.2886,-1.2886,-1.2886,-1.2886,-1.2886,-1.2886,-1.2886,-1.2886,-1.2886,-1.2886,-1.2788,-1.2573,-1.2524,-1.2323,-1.2071,-1.1873,-1.1623,-1.1372,-1.1175,-1.0871,-1.0518,-1.0261,-0.9995,-0.9681,-0.9528,-0.9667,-1.0031,-1.0016,-1.0286,-1.0864,-1.087,-1.0744,-1.0681,-1.0747,-1.0811,-1.0937,-1.0937,-1.0996,-1.0996,-1.0996,-1.0996,-1.1,-1.0993,-1.0993,-1.0937,-1.0811,-1.0741,-1.0744,-1.0681,-1.0621,-1.0621,-1.0621,-1.0621,-1.0621,-1.0621,-1.0621,-1.0621,-1.0621,-1.0621,-1.0431,-1.0241,-0.9986,-0.9658,-0.9341,-0.9025,-0.8638,-0.8309,-0.7914,-0.7587,-0.7197,-0.6874,-0.8586,-0.9162,-0.9895,-1.0514,-1.1023,-1.1423,-1.1678,-1.1877,-1.2026,-1.2076,-1.2076,-1.2076,-1.2026,-1.1873,-1.1773,-1.1573,-1.1267,-1.1027,-1.0718,-1.0474,-1.0316,-1.0213,-1.0054,-1.0102,-1.0261,-1.0565,-1.0769,-1.1019,-1.1326,-1.1573,-1.1769,-1.1977,-1.2229,-1.2431,-1.2578,-1.2676,-1.2827,-1.2886,-1.2886,-1.2886,-1.2886,-1.2886,-1.2886,-1.2886,-1.2886,-1.2886,-1.2886,-1.2886,-1.2886,-1.2886,-1.2886,-1.2886,-1.2886,-1.2886,-1.2779,-1.2578,-1.248,-1.2328,-1.1918,-1.1723,-1.1519,-1.1221,-1.0918,-1.0616,-1.0364,-1.0051,-0.9784,-0.9569,-0.9417,-0.9513,-0.9885,-0.9908,-1.0125,-1.0676,-1.0747,-1.0747,-1.0684,-1.0737,-1.0926,-1.1059,-1.1132,-1.1125,-1.1185,-1.1185,-1.1185,-1.1185,-1.1181,-1.1122,-1.1125,-1.0996,-1.0933,-1.087,-1.0747,-1.0684,-1.0621,-1.0621,-1.0621,-1.0621,-1.0621,-1.0621,-1.0621,-1.0621,-1.0558,-1.0304,-1.0053,-0.9792,-0.9469,-0.9148,-0.8832,-0.8441,-0.8114,-0.7657,-0.7265,-0.7068,-0.6743,-0.8682,-0.9312,-1.0154,-1.0718,-1.112,-1.1519,-1.1773,-1.1923,-1.2026,-1.2076,-1.2076,-1.2076,-1.2031,-1.1877,-1.1778,-1.1578,-1.1322,-1.1019,-1.082,-1.0671,-1.047,-1.0265,-1.011,-1.0257,-1.0466,-1.0718,-1.0871,-1.107,-1.1377,-1.1623,-1.1832,-1.213,-1.2372,-1.2578,-1.2681,-1.2837,-1.2886,-1.2886,-1.2886,-1.2886,-1.2886,-1.2886,-1.2886,-1.2886,-1.2886,-1.2886,-1.2886,-1.2886,-1.2886,-1.2886,-1.2886,-1.2886,-1.2886,-1.2886,-1.2779,-1.2529,-1.2529,-1.2278,-1.1932,-1.1678,-1.1372,-1.1065,-1.0769,-1.0364,-1.0098,-0.9899,-0.9681,-0.9413,-0.926,-0.9338,-0.9709,-0.9785,-1.0013,-1.0497,-1.0684,-1.0684,-1.0807,-1.0919,-1.1041,-1.1178,-1.1188,-1.1251,-1.1369,-1.1369,-1.1369,-1.1373,-1.1369,-1.1373,-1.1251,-1.1188,-1.1062,-1.0937,-1.0874,-1.0744,-1.0681,-1.0621,-1.0621,-1.0621,-1.0621,-1.0561,-1.0558,-1.0558,-1.0431,-1.0114,-0.9919,-0.9597,-0.9344,-0.8958,-0.8635,-0.8309,-0.7854,-0.7398,-0.7071,-0.6874,-0.6546,-0.8567,-0.9263,-1.0154,-1.0769,-1.1267,-1.1578,-1.1823,-1.2026,-1.2071,-1.2076,-1.2076,-1.2076,-1.2076,-1.2031,-1.1778,-1.1669,-1.1473,-1.1074,-1.0871,-1.082,-1.0569,-1.0423,-1.0423,-1.0518,-1.0671,-1.0875,-1.1078,-1.1322,-1.1569,-1.1769,-1.1977,-1.2229,-1.2426,-1.2583,-1.2676,-1.2827,-1.2886,-1.2886,-1.2886,-1.2929,-1.2929,-1.2929,-1.2886,-1.2886,-1.2929,-1.2929,-1.2886,-1.2886,-1.2886,-1.2886,-1.2886,-1.2886,-1.2886,-1.2837,-1.2686,-1.2529,-1.2382,-1.218,-1.1828,-1.1578,-1.1318,-1.0968,-1.0675,-1.0364,-0.9999,-0.9784,-0.9517,-0.9312,-0.9117,-0.9162,-0.9361,-0.9627,-1.0013,-1.0611,-1.0744,-1.0874,-1.1111,-1.116,-1.1274,-1.1545,-1.1677,-1.174,-1.1809,-1.1875,-1.1868,-1.1868,-1.1809,-1.1747,-1.1622,-1.1498,-1.1373,-1.1122,-1.0996,-1.0867,-1.0741,-1.0684,-1.0624,-1.0621,-1.0561,-1.0565,-1.0498,-1.0434,-1.0241,-0.9923,-0.9722,-0.9463,-0.9148,-0.8832,-0.8441,-0.8112,-0.7722,-0.7265,-0.694,-0.6679,-0.635,-0.8511,-0.9263,-1.0047,-1.0714,-1.1217,-1.1578,-1.1823,-1.2026,-1.2071,-1.2076,-1.2076,-1.2076,-1.2076,-1.2026,-1.1773,-1.1673,-1.1578,-1.1124,-1.0918,-1.0867,-1.062,-1.0526,-1.0573,-1.0671,-1.0824,-1.0972,-1.1226,-1.1423,-1.1669,-1.1868,-1.213,-1.2382,-1.2534,-1.2637,-1.2783,-1.2881,-1.2934,-1.2978,-1.2988,-1.2978,-1.3002,-1.3007,-1.305,-1.3002,-1.3002,-1.3002,-1.3002,-1.3022,-1.2983,-1.2934,-1.2886,-1.2886,-1.2886,-1.2788,-1.2632,-1.2475,-1.2332,-1.2076,-1.1723,-1.1473,-1.1221,-1.0918,-1.0569,-1.0261,-0.9999,-0.9725,-0.9413,-0.9211,-0.9057,-0.9059,-0.9239,-0.967,-1.0294,-1.0892,-1.1055,-1.1185,-1.1428,-1.1483,-1.1604,-1.1864,-1.2058,-1.2182,-1.2185,-1.2247,-1.2247,-1.2185,-1.2123,-1.2054,-1.1926,-1.1806,-1.1619,-1.1435,-1.1185,-1.1055,-1.0867,-1.0747,-1.0621,-1.0555,-1.0434,-1.0438,-1.0368,-1.0241,-0.9983,-0.9725,-0.9524,-0.9332,-0.8955,-0.8573,-0.8242,-0.7849,-0.7524,-0.7199,-0.6874,-0.6546,-0.6218,-0.8359,-0.9208,-0.9892,-1.051,-1.112,-1.1523,-1.1778,-1.1923,-1.2022,-1.2076,-1.2076,-1.2076,-1.2026,-1.1923,-1.1773,-1.1619,-1.1477,-1.1078,-1.0918,-1.0769,-1.0675,-1.0565,-1.0726,-1.0722,-1.0871,-1.112,-1.1272,-1.1528,-1.1773,-1.1972,-1.2224,-1.248,-1.2632,-1.2735,-1.2881,-1.2934,-1.2983,-1.3075,-1.307,-1.3104,-1.3127,-1.318,-1.3175,-1.3175,-1.3175,-1.3175,-1.3175,-1.3147,-1.307,-1.2929,-1.2934,-1.2886,-1.2881,-1.2783,-1.2632,-1.248,-1.2278,-1.1977,-1.1723,-1.1322,-1.1074,-1.0871,-1.0356,-0.9999,-0.9951,-0.9677,-0.9368,-0.9208,-0.9061,-0.9055,-0.9294,-0.9904,-1.0526,-1.1073,-1.1432,-1.1622,-1.1751,-1.1879,-1.2003,-1.2127,-1.2382,-1.251,-1.2432,-1.2486,-1.2552,-1.2494,-1.2494,-1.2367,-1.2239,-1.212,-1.1872,-1.1622,-1.1435,-1.1181,-1.0996,-1.0811,-1.0681,-1.0555,-1.0308,-1.0184,-1.0044,-0.9913,-0.9719,-0.9524,-0.9271,-0.9017,-0.8703,-0.8312,-0.7979,-0.7654,-0.733,-0.7005,-0.6679,-0.6348,-0.6018,-0.8196,-0.8935,-0.9732,-1.0407,-1.0968,-1.1372,-1.1673,-1.1927,-1.2026,-1.2071,-1.2076,-1.2076,-1.2026,-1.1877,-1.1778,-1.1623,-1.1418,-1.107,-1.0816,-1.0565,-1.0671,-1.0718,-1.082,-1.0875,-1.1027,-1.1276,-1.1528,-1.1682,-1.1877,-1.2126,-1.2332,-1.2529,-1.2627,-1.2774,-1.2886,-1.2978,-1.3075,-1.3118,-1.3142,-1.317,-1.3218,-1.3218,-1.3271,-1.3271,-1.3218,-1.3218,-1.3213,-1.3175,-1.3147,-1.308,-1.2988,-1.2934,-1.2876,-1.2783,-1.2632,-1.248,-1.2229,-1.1977,-1.1673,-1.1322,-1.1023,-1.0871,-1.036,-1.0007,-0.9947,-0.9643,-0.9379,-0.9215,-0.9019,-0.9038,-0.9384,-1.0006,-1.0605,-1.1086,-1.1518,-1.1915,-1.2251,-1.2367,-1.2367,-1.2502,-1.276,-1.3014,-1.2867,-1.2924,-1.2924,-1.2862,-1.2801,-1.274,-1.2556,-1.2432,-1.2123,-1.1813,-1.1622,-1.1369,-1.1059,-1.0807,-1.0555,-1.0361,-1.0114,-0.9926,-0.9786,-0.9591,-0.9335,-0.9145,-0.8955,-0.8638,-0.8379,-0.7984,-0.7654,-0.7396,-0.7071,-0.6808,-0.648,-0.6148,-0.5949,-0.7984,-0.8876,-0.9621,-1.0249,-1.082,-1.1226,-1.1569,-1.1823,-1.1923,-1.2022,-1.2026,-1.2026,-1.1882,-1.1687,-1.1632,-1.1523,-1.1272,-1.0968,-1.0667,-1.0569,-1.0671,-1.0773,-1.0918,-1.1074,-1.1226,-1.1423,-1.1578,-1.1782,-1.2026,-1.222,-1.2471,-1.2632,-1.2735,-1.2881,-1.2988,-1.308,-1.3172,-1.3253,-1.3276,-1.3309,-1.3367,-1.3462,-1.3462,-1.3467,-1.3467,-1.3472,-1.3415,-1.3309,-1.3281,-1.3205,-1.3075,-1.2983,-1.2876,-1.2783,-1.2627,-1.2475,-1.2229,-1.1977,-1.1678,-1.1377,-1.1074,-1.0922,-1.036,-1.0106,-0.9903,-0.965,-0.9382,-0.9162,-0.9032,-0.8975,-0.947,-0.9834,-1.044,-1.1104,-1.1582,-1.2057,-1.2451,-1.256,-1.2617,-1.2805,-1.3111,-1.3233,-1.3289,-1.3289,-1.3289,-1.3281,-1.322,-1.3099,-1.2744,-1.256,-1.2313,-1.2062,-1.1809,-1.1556,-1.1122,-1.0807,-1.0425,-1.0171,-0.9916,-0.9661,-0.953,-0.9274,-0.8955,-0.8829,-0.8638,-0.8309,-0.7987,-0.7657,-0.7328,-0.7068,-0.6808,-0.6546,-0.6282,-0.6015,-0.5817,-0.7824,-0.8718,-0.9402,-1.0035,-1.0616,-1.1074,-1.1368,-1.1628,-1.1823,-1.1868,-1.1873,-1.1868,-1.1732,-1.1549,-1.1486,-1.1322,-1.1019,-1.0871,-1.062,-1.0518,-1.0671,-1.0824,-1.0972,-1.1175,-1.1372,-1.1523,-1.1673,-1.1873,-1.213,-1.2377,-1.2524,-1.2686,-1.2881,-1.2983,-1.3085,-1.3128,-1.3258,-1.3425,-1.3472,-1.3515,-1.3668,-1.3768,-1.3763,-1.3768,-1.3773,-1.3773,-1.3668,-1.3568,-1.3467,-1.3425,-1.3258,-1.3075,-1.2929,-1.2783,-1.2637,-1.2524,-1.2278,-1.2022,-1.1678,-1.1331,-1.1027,-1.0871,-1.036,-1.0054,-0.9903,-0.9699,-0.9379,-0.9218,-0.9078,-0.9094,-0.9572,-0.9907,-1.0382,-1.1002,-1.1557,-1.2047,-1.2457,-1.2638,-1.292,-1.3042,-1.3402,-1.3584,-1.3644,-1.3705,-1.3705,-1.3644,-1.358,-1.3398,-1.3042,-1.2683,-1.2494,-1.2247,-1.1996,-1.1556,-1.1185,-1.0618,-1.0234,-0.998,-0.9725,-0.9402,-0.921,-0.8958,-0.8703,-0.8576,-0.8382,-0.8052,-0.7722,-0.7393,-0.7066,-0.6741,-0.6546,-0.6348,-0.6083,-0.5817,-0.5684,-0.7506,-0.8137,-0.8935,-0.9629,-1.0154,-1.0714,-1.1124,-1.1368,-1.1623,-1.1719,-1.1728,-1.1728,-1.1628,-1.1482,-1.1377,-1.112,-1.082,-1.0722,-1.062,-1.0569,-1.0718,-1.0867,-1.0977,-1.1326,-1.1523,-1.1678,-1.1823,-1.2022,-1.2229,-1.2431,-1.2583,-1.273,-1.2934,-1.3085,-1.3118,-1.3253,-1.3435,-1.3573,-1.3673,-1.3768,-1.3868,-1.3915,-1.3968,-1.3968,-1.3968,-1.3968,-1.3921,-1.3768,-1.3658,-1.3557,-1.342,-1.3253,-1.307,-1.2929,-1.2779,-1.2534,-1.2382,-1.2126,-1.1728,-1.1326,-1.1074,-1.082,-1.036,-1.0051,-0.9947,-0.9744,-0.9483,-0.9267,-0.9215,-0.9246,-0.9439,-0.9871,-1.0279,-1.0833,-1.1398,-1.2058,-1.2507,-1.2926,-1.3295,-1.345,-1.3696,-1.3885,-1.395,-1.401,-1.395,-1.389,-1.383,-1.364,-1.3333,-1.2977,-1.2736,-1.2428,-1.2182,-1.1685,-1.1185,-1.0555,-1.0047,-0.9795,-0.9536,-0.9148,-0.8894,-0.8705,-0.8449,-0.8249,-0.7987,-0.7722,-0.7393,-0.7132,-0.687,-0.6607,-0.6412,-0.6214,-0.5949,-0.5684,-0.562,-0.7176,-0.7984,-0.8781,-0.9424,-1.0047,-1.0518,-1.0867,-1.1221,-1.1423,-1.1477,-1.1477,-1.1473,-1.1418,-1.1272,-1.1124,-1.0926,-1.0773,-1.062,-1.0624,-1.0624,-1.0769,-1.0918,-1.1027,-1.1423,-1.1628,-1.1782,-1.1981,-1.2175,-1.2377,-1.2475,-1.2632,-1.2783,-1.2983,-1.3118,-1.3195,-1.3377,-1.3568,-1.3721,-1.3821,-1.3921,-1.4015,-1.4051,-1.4098,-1.4104,-1.4104,-1.4062,-1.402,-1.3973,-1.3821,-1.3721,-1.3573,-1.3382,-1.3195,-1.3017,-1.2871,-1.2578,-1.2431,-1.218,-1.1773,-1.1423,-1.1217,-1.0875,-1.0415,-1.0154,-0.9951,-0.9751,-0.9539,-0.9379,-0.9316,-0.9312,-0.9431,-0.9797,-1.02,-1.0678,-1.1269,-1.1927,-1.258,-1.3154,-1.3462,-1.3755,-1.4001,-1.4134,-1.4139,-1.4198,-1.4198,-1.4139,-1.4014,-1.3825,-1.3571,-1.3212,-1.2854,-1.2363,-1.1992,-1.1494,-1.0996,-1.0428,-0.9856,-0.9664,-0.9283,-0.8896,-0.8568,-0.8314,-0.8117,-0.7917,-0.7589,-0.7328,-0.7129,-0.687,-0.6671,-0.6476,-0.6214,-0.6018,-0.5818,-0.5618,-0.5489,-0.6904,-0.7821,-0.858,-0.9267,-0.984,-1.0205,-1.0565,-1.0972,-1.112,-1.1221,-1.1226,-1.1221,-1.1171,-1.1074,-1.0922,-1.0769,-1.0671,-1.0526,-1.0573,-1.0722,-1.082,-1.0972,-1.1226,-1.1477,-1.1723,-1.1828,-1.2076,-1.2372,-1.2475,-1.2524,-1.2681,-1.2876,-1.307,-1.32,-1.3324,-1.3515,-1.3716,-1.3858,-1.401,-1.4067,-1.4156,-1.4239,-1.4326,-1.4326,-1.4326,-1.4291,-1.4203,-1.4114,-1.401,-1.3905,-1.3705,-1.3515,-1.3319,-1.32,-1.2968,-1.2622,-1.2529,-1.2229,-1.1828,-1.1573,-1.1267,-1.0918,-1.0565,-1.0257,-0.9999,-0.9744,-0.9532,-0.9435,-0.9375,-0.9417,-0.9521,-0.9692,-1.0136,-1.0584,-1.1078,-1.1626,-1.2405,-1.3015,-1.3513,-1.387,-1.4227,-1.4318,-1.4318,-1.4327,-1.4327,-1.4263,-1.4143,-1.395,-1.3696,-1.3216,-1.2793,-1.2178,-1.1681,-1.1181,-1.0744,-1.0301,-0.9853,-0.953,-0.9087,-0.8641,-0.8312,-0.7982,-0.7719,-0.7524,-0.7265,-0.7003,-0.6738,-0.6607,-0.6412,-0.6216,-0.602,-0.5822,-0.5684,-0.5554,-0.5425,-0.6642,-0.7241,-0.8103,-0.8794,-0.9319,-0.9718,-1.0138,-1.0565,-1.0718,-1.0828,-1.0977,-1.0968,-1.0918,-1.0871,-1.0773,-1.0675,-1.0577,-1.0522,-1.0569,-1.0722,-1.0871,-1.1019,-1.1272,-1.1523,-1.1778,-1.1927,-1.217,-1.2372,-1.2524,-1.2632,-1.2837,-1.3032,-1.3152,-1.3276,-1.3515,-1.3668,-1.3905,-1.4129,-1.4285,-1.4436,-1.4627,-1.4678,-1.4678,-1.4673,-1.4673,-1.4621,-1.4482,-1.4389,-1.428,-1.414,-1.3899,-1.3716,-1.3568,-1.3314,-1.3094,-1.2866,-1.2583,-1.2283,-1.1828,-1.1573,-1.1372,-1.0968,-1.0671,-1.036,-0.9999,-0.9684,-0.9521,-0.9562,-0.9462,-0.9521,-0.9684,-0.9844,-1.0144,-1.0565,-1.1007,-1.1468,-1.2102,-1.277,-1.3273,-1.3807,-1.4159,-1.4341,-1.4433,-1.4446,-1.4455,-1.4391,-1.4207,-1.4014,-1.3761,-1.322,-1.267,-1.2054,-1.1494,-1.0996,-1.0548,-1.0107,-0.9661,-0.9335,-0.8888,-0.8447,-0.8052,-0.7657,-0.733,-0.7134,-0.6874,-0.6677,-0.648,-0.6282,-0.6152,-0.6018,-0.582,-0.5686,-0.5617,-0.5488,-0.5427,-0.6048,-0.7039,-0.7723,-0.8359,-0.8991,-0.9413,-0.9781,-1.0102,-1.0364,-1.0569,-1.0675,-1.0667,-1.0667,-1.0667,-1.0624,-1.0565,-1.0518,-1.0522,-1.062,-1.0769,-1.0867,-1.1065,-1.1377,-1.1628,-1.1782,-1.2031,-1.2283,-1.2475,-1.2627,-1.273,-1.2929,-1.3075,-1.3243,-1.3415,-1.361,-1.3815,-1.4046,-1.428,-1.4523,-1.4684,-1.4776,-1.4822,-1.4822,-1.4822,-1.4822,-1.4776,-1.4725,-1.4575,-1.4425,-1.4285,-1.4046,-1.3821,-1.3615,-1.3367,-1.3127,-1.2925,-1.2632,-1.2328,-1.1977,-1.1728,-1.1473,-1.112,-1.0824,-1.0415,-1.0003,-0.974,-0.9573,-0.9618,-0.9562,-0.9621,-0.9792,-0.9899,-1.0209,-1.0581,-1.1001,-1.1475,-1.1912,-1.2311,-1.2931,-1.3489,-1.4034,-1.4217,-1.446,-1.4542,-1.4556,-1.4391,-1.4203,-1.4014,-1.3644,-1.3094,-1.2548,-1.193,-1.1369,-1.0807,-1.0358,-0.9974,-0.9469,-0.9081,-0.8622,-0.8177,-0.7787,-0.7393,-0.7068,-0.6808,-0.6609,-0.6348,-0.6152,-0.6086,-0.5954,-0.5818,-0.5684,-0.5552,-0.5552,-0.5489,-0.5427,-0.5504,-0.6603,-0.7295,-0.7984,-0.8679,-0.905,-0.942,-0.974,-0.9999,-1.0205,-1.0368,-1.0364,-1.0364,-1.0419,-1.0419,-1.0419,-1.0419,-1.047,-1.0667,-1.0816,-1.0968,-1.1175,-1.1473,-1.1673,-1.1877,-1.2175,-1.2382,-1.2578,-1.2774,-1.292,-1.306,-1.3113,-1.3339,-1.3563,-1.3721,-1.401,-1.4244,-1.4558,-1.4759,-1.4908,-1.4954,-1.5006,-1.4994,-1.4994,-1.4954,-1.4914,-1.4868,-1.4759,-1.461,-1.443,-1.4239,-1.401,-1.3763,-1.3467,-1.3223,-1.3007,-1.2715,-1.248,-1.218,-1.1927,-1.1623,-1.1276,-1.0926,-1.0415,-1.0054,-0.9899,-0.9795,-0.9677,-0.9677,-0.9732,-0.9844,-1.0007,-1.0364,-1.0667,-1.0955,-1.1486,-1.1982,-1.2294,-1.2654,-1.3123,-1.3626,-1.4096,-1.428,-1.4573,-1.4588,-1.4497,-1.4263,-1.3954,-1.3467,-1.2915,-1.2359,-1.1747,-1.1244,-1.0618,-1.0174,-0.9725,-0.9215,-0.8762,-0.8366,-0.7974,-0.7589,-0.7199,-0.6874,-0.6611,-0.6348,-0.6083,-0.5886,-0.582,-0.5756,-0.5622,-0.5556,-0.5488,-0.5423,-0.5427,-0.5427,-0.5013,-0.5786,-0.6858,-0.767,-0.8271,-0.8649,-0.9061,-0.9417,-0.9569,-0.9781,-1.0051,-1.0051,-1.0106,-1.0106,-1.0265,-1.032,-1.0312,-1.0423,-1.0671,-1.0816,-1.0918,-1.1221,-1.1519,-1.1719,-1.1927,-1.2278,-1.2431,-1.2632,-1.2871,-1.3045,-1.3132,-1.3213,-1.3472,-1.3721,-1.3962,-1.4203,-1.4523,-1.4789,-1.4977,-1.5119,-1.5216,-1.5351,-1.5385,-1.539,-1.5306,-1.5222,-1.5074,-1.4971,-1.4789,-1.4575,-1.4384,-1.4197,-1.391,-1.3568,-1.3324,-1.3132,-1.2866,-1.2627,-1.2377,-1.2026,-1.1623,-1.1221,-1.0871,-1.0518,-1.0261,-0.9951,-0.9847,-0.9795,-0.9788,-0.9847,-1.0054,-1.0265,-1.0522,-1.0769,-1.1019,-1.1374,-1.1849,-1.2167,-1.2525,-1.2874,-1.3253,-1.3654,-1.3969,-1.4188,-1.4473,-1.441,-1.4074,-1.3769,-1.3164,-1.2613,-1.2054,-1.1494,-1.1052,-1.0488,-0.9926,-0.9414,-0.8896,-0.8503,-0.8047,-0.7784,-0.7458,-0.7071,-0.6681,-0.6414,-0.615,-0.5885,-0.5686,-0.5688,-0.5624,-0.5493,-0.5427,-0.5425,-0.5425,-0.5427,-0.5427,-0.4458,-0.5348,-0.6159,-0.6972,-0.7785,-0.8321,-0.8748,-0.9057,-0.9263,-0.9517,-0.9781,-0.9947,-1.0007,-1.0003,-1.0054,-1.0213,-1.0269,-1.0324,-1.0624,-1.082,-1.0968,-1.1217,-1.1519,-1.1773,-1.1932,-1.2332,-1.248,-1.2681,-1.3027,-1.3142,-1.3319,-1.3462,-1.3663,-1.3815,-1.4062,-1.4441,-1.4759,-1.4971,-1.5159,-1.5306,-1.543,-1.5474,-1.5519,-1.5474,-1.5474,-1.5351,-1.521,-1.5108,-1.4937,-1.4713,-1.4529,-1.4296,-1.4015,-1.3716,-1.3462,-1.3218,-1.2958,-1.273,-1.2529,-1.2126,-1.1769,-1.1318,-1.0972,-1.0675,-1.047,-1.0213,-1.0054,-0.9947,-0.9947,-1.0007,-1.0213,-1.0368,-1.0573,-1.0871,-1.112,-1.1418,-1.169,-1.2061,-1.2345,-1.264,-1.2904,-1.3194,-1.3502,-1.3784,-1.405,-1.4259,-1.3923,-1.3463,-1.292,-1.2371,-1.1809,-1.1247,-1.0804,-1.0291,-0.9664,-0.9154,-0.8576,-0.8182,-0.7789,-0.7461,-0.7134,-0.6811,-0.642,-0.6218,-0.6018,-0.5751,-0.5618,-0.5556,-0.5491,-0.5427,-0.5427,-0.5427,-0.5427,-0.5427,-0.5427,-0.4128,-0.4958,-0.567,-0.649,-0.7357,-0.7943,-0.8368,-0.8695,-0.8956,-0.9211,-0.9514,-0.9736,-0.984,-0.9836,-0.9947,-1.0054,-1.0217,-1.032,-1.0573,-1.0769,-1.0964,-1.1267,-1.1578,-1.1832,-1.2081,-1.2431,-1.2583,-1.2783,-1.3109,-1.318,-1.3372,-1.3615,-1.3815,-1.3999,-1.4197,-1.4621,-1.4994,-1.5165,-1.5345,-1.5441,-1.5564,-1.5608,-1.5608,-1.5608,-1.557,-1.548,-1.5345,-1.5204,-1.5034,-1.4817,-1.4632,-1.4348,-1.4062,-1.3768,-1.352,-1.3281,-1.3055,-1.2832,-1.2578,-1.2175,-1.1819,-1.1368,-1.1167,-1.0871,-1.0671,-1.0474,-1.0261,-1.0205,-1.0158,-1.0162,-1.0368,-1.0522,-1.0722,-1.1023,-1.1322,-1.1573,-1.1723,-1.1981,-1.2177,-1.2406,-1.2683,-1.2869,-1.3009,-1.3296,-1.3606,-1.3767,-1.3571,-1.3159,-1.2609,-1.2058,-1.1626,-1.1059,-1.0491,-0.998,-0.9402,-0.8823,-0.8309,-0.7854,-0.7461,-0.7134,-0.6808,-0.6484,-0.6218,-0.5949,-0.5749,-0.5617,-0.5552,-0.5491,-0.5427,-0.5427,-0.5427,-0.5427,-0.5427,-0.5427,-0.5427,-0.3958,-0.4572,-0.5445,-0.6213,-0.6928,-0.7458,-0.799,-0.8427,-0.8699,-0.9008,-0.926,-0.9417,-0.9465,-0.9517,-0.9736,-0.9899,-1.0054,-1.0209,-1.0518,-1.082,-1.1019,-1.1322,-1.1673,-1.1923,-1.218,-1.2431,-1.2632,-1.2861,-1.3175,-1.3271,-1.3462,-1.381,-1.4057,-1.4274,-1.4419,-1.4834,-1.5159,-1.5306,-1.5582,-1.562,-1.5709,-1.5748,-1.5748,-1.5748,-1.5703,-1.562,-1.548,-1.539,-1.517,-1.4857,-1.4776,-1.4493,-1.4073,-1.3868,-1.3615,-1.3218,-1.3152,-1.2973,-1.2671,-1.217,-1.1769,-1.1418,-1.1322,-1.112,-1.0875,-1.0675,-1.0518,-1.0462,-1.0419,-1.0368,-1.0518,-1.0722,-1.0922,-1.1124,-1.1423,-1.1673,-1.1773,-1.1927,-1.2136,-1.2241,-1.2457,-1.2657,-1.2703,-1.2778,-1.3104,-1.3254,-1.317,-1.2797,-1.2305,-1.1809,-1.1314,-1.0678,-1.011,-0.96,-0.9081,-0.856,-0.8044,-0.7589,-0.7199,-0.6808,-0.6546,-0.6282,-0.6017,-0.5747,-0.5617,-0.5552,-0.5489,-0.5427,-0.5427,-0.5427,-0.5427,-0.5427,-0.5427,-0.5427,-0.5427,-0.3459,-0.4242,-0.4901,-0.5557,-0.6268,-0.7187,-0.7783,-0.8112,-0.8537,-0.8903,-0.911,-0.9312,-0.9409,-0.9469,-0.9577,-0.9788,-1.0003,-1.0051,-1.036,-1.0867,-1.1019,-1.1326,-1.1678,-1.1972,-1.222,-1.2475,-1.272,-1.2953,-1.3223,-1.3319,-1.3615,-1.3962,-1.4343,-1.4667,-1.484,-1.5108,-1.521,-1.5486,-1.5671,-1.5715,-1.5754,-1.5792,-1.5836,-1.5836,-1.5798,-1.5703,-1.5614,-1.548,-1.5255,-1.4937,-1.4811,-1.454,-1.412,-1.3921,-1.3716,-1.3314,-1.3137,-1.3002,-1.272,-1.2328,-1.2026,-1.1728,-1.1477,-1.1322,-1.1179,-1.0926,-1.082,-1.0765,-1.0671,-1.0671,-1.0824,-1.0926,-1.1074,-1.1226,-1.1477,-1.1673,-1.1819,-1.1972,-1.2117,-1.2122,-1.2209,-1.2162,-1.2136,-1.2307,-1.2545,-1.2627,-1.2554,-1.2516,-1.2058,-1.1498,-1.1,-1.0298,-0.9661,-0.9215,-0.87,-0.8242,-0.7719,-0.733,-0.694,-0.6548,-0.6284,-0.6017,-0.5818,-0.5617,-0.5554,-0.5489,-0.5427,-0.5427,-0.5427,-0.5427,-0.5427,-0.5427,-0.5427,-0.5427,-0.5427,-0.3126,-0.3907,-0.4622,-0.5228,-0.5882,-0.681,-0.7464,-0.7952,-0.8484,-0.8798,-0.8896,-0.9159,-0.926,-0.9361,-0.9465,-0.9729,-0.9999,-1.0106,-1.036,-1.0867,-1.1167,-1.1423,-1.1732,-1.2081,-1.2323,-1.2569,-1.2822,-1.306,-1.3218,-1.3472,-1.3815,-1.4249,-1.4627,-1.4932,-1.5153,-1.5289,-1.539,-1.5665,-1.5754,-1.583,-1.5881,-1.5931,-1.5931,-1.5919,-1.5875,-1.5836,-1.5703,-1.5519,-1.5328,-1.5011,-1.4754,-1.454,-1.4167,-1.3973,-1.3716,-1.3362,-1.3089,-1.2953,-1.2725,-1.2583,-1.2274,-1.2022,-1.1719,-1.1523,-1.1427,-1.1171,-1.1074,-1.1019,-1.0972,-1.0972,-1.0972,-1.1074,-1.1226,-1.1377,-1.1523,-1.1769,-1.1873,-1.1972,-1.2022,-1.1972,-1.1895,-1.1784,-1.1666,-1.1835,-1.1996,-1.2018,-1.2005,-1.1913,-1.1806,-1.1247,-1.0681,-0.9974,-0.9338,-0.8891,-0.8439,-0.7917,-0.7461,-0.7005,-0.6611,-0.6284,-0.6018,-0.5751,-0.562,-0.5554,-0.5489,-0.5425,-0.5427,-0.5427,-0.5427,-0.5427,-0.5427,-0.5427,-0.5427,-0.5427,-0.5427,-0.3015,-0.368,-0.4508,-0.5226,-0.5828,-0.6485,-0.7192,-0.7952,-0.8368,-0.8573,-0.8629,-0.89,-0.911,-0.9211,-0.9361,-0.9625,-0.9995,-1.0209,-1.0518,-1.0922,-1.1272,-1.1528,-1.1828,-1.2175,-1.2421,-1.2622,-1.2866,-1.3099,-1.3266,-1.3605,-1.4046,-1.4477,-1.4794,-1.5102,-1.5334,-1.5474,-1.557,-1.5703,-1.5869,-1.5907,-1.5957,-1.61,-1.605,-1.6001,-1.5957,-1.5869,-1.5742,-1.5564,-1.5283,-1.5017,-1.4863,-1.4488,-1.4213,-1.4025,-1.3668,-1.3324,-1.306,-1.2876,-1.2779,-1.2681,-1.2578,-1.2323,-1.2071,-1.1877,-1.1678,-1.1469,-1.1322,-1.1276,-1.1226,-1.1171,-1.1116,-1.1217,-1.1267,-1.1469,-1.1619,-1.1769,-1.1873,-1.1923,-1.1918,-1.1819,-1.1719,-1.1578,-1.134,-1.1391,-1.1623,-1.1434,-1.1447,-1.1323,-1.1181,-1.087,-1.0298,-0.9649,-0.9075,-0.8633,-0.8179,-0.7591,-0.7202,-0.6745,-0.6412,-0.6084,-0.5817,-0.5618,-0.5556,-0.5491,-0.5427,-0.5427,-0.5427,-0.5427,-0.5427,-0.5427,-0.5427,-0.5427,-0.5427,-0.5427,-0.5427,-0.2626,-0.3522,-0.4127,-0.4783,-0.5553,-0.6537,-0.7359,-0.7898,-0.8321,-0.8527,-0.8626,-0.89,-0.9057,-0.9215,-0.9361,-0.9632,-0.9951,-1.0213,-1.0569,-1.0922,-1.1322,-1.1528,-1.1832,-1.2229,-1.2431,-1.2666,-1.29,-1.318,-1.3319,-1.37,-1.4186,-1.4678,-1.4932,-1.5198,-1.5424,-1.5608,-1.5697,-1.5786,-1.5951,-1.5994,-1.6044,-1.6138,-1.6088,-1.6044,-1.6001,-1.5913,-1.5786,-1.5608,-1.5328,-1.5102,-1.4903,-1.454,-1.4073,-1.3978,-1.3773,-1.3276,-1.3109,-1.2988,-1.2881,-1.273,-1.2632,-1.2529,-1.2323,-1.2081,-1.1877,-1.1723,-1.1573,-1.1523,-1.1427,-1.1418,-1.1368,-1.1418,-1.1519,-1.1669,-1.1769,-1.1773,-1.1873,-1.1823,-1.1819,-1.1619,-1.1519,-1.1294,-1.104,-1.1174,-1.1343,-1.1083,-1.0903,-1.0753,-1.0614,-1.0301,-0.9919,-0.9268,-0.8751,-0.8371,-0.7784,-0.7263,-0.6874,-0.6484,-0.6152,-0.5885,-0.5684,-0.5486,-0.5427,-0.5427,-0.5359,-0.536,-0.5427,-0.5427,-0.5427,-0.5427,-0.5427,-0.5427,-0.5427,-0.5427,-0.5427,-0.2292,-0.3187,-0.3852,-0.4677,-0.5664,-0.6598,-0.7306,-0.7788,-0.8212,-0.8477,-0.858,-0.8847,-0.9054,-0.9215,-0.9413,-0.9673,-0.9999,-1.0368,-1.0675,-1.0922,-1.1372,-1.1619,-1.1923,-1.2229,-1.2475,-1.271,-1.2944,-1.3223,-1.3415,-1.3847,-1.4378,-1.4782,-1.5034,-1.5295,-1.5468,-1.5653,-1.5792,-1.5881,-1.6007,-1.6088,-1.6175,-1.6225,-1.6182,-1.6094,-1.6094,-1.5963,-1.5792,-1.5603,-1.5379,-1.5153,-1.4954,-1.4638,-1.4161,-1.3962,-1.3716,-1.3276,-1.3109,-1.3027,-1.2881,-1.2827,-1.2783,-1.2681,-1.2524,-1.2372,-1.213,-1.1932,-1.1823,-1.1719,-1.1719,-1.1669,-1.1669,-1.1719,-1.1769,-1.1868,-1.1873,-1.1823,-1.1823,-1.1773,-1.1623,-1.1423,-1.1213,-1.0974,-1.0926,-1.1091,-1.1104,-1.0854,-1.0592,-1.0418,-1.0231,-0.991,-0.9469,-0.8891,-0.8433,-0.7979,-0.7456,-0.6935,-0.6546,-0.622,-0.5888,-0.5622,-0.542,-0.5289,-0.5161,-0.5228,-0.5291,-0.5291,-0.5359,-0.536,-0.5427,-0.5427,-0.5427,-0.5427,-0.5427,-0.5427,-0.5427,-0.2124,-0.2793,-0.3685,-0.4792,-0.5943,-0.6601,-0.7087,-0.7571,-0.8109,-0.8421,-0.8477,-0.8847,-0.9061,-0.9211,-0.9458,-0.9725,-1.0098,-1.0411,-1.0722,-1.0972,-1.1427,-1.1723,-1.1972,-1.2278,-1.2529,-1.2764,-1.2992,-1.3271,-1.3457,-1.3936,-1.443,-1.4834,-1.5182,-1.539,-1.5513,-1.5691,-1.583,-1.6013,-1.61,-1.6231,-1.6349,-1.6399,-1.6405,-1.6237,-1.6144,-1.6057,-1.583,-1.5614,-1.5435,-1.5216,-1.5,-1.4684,-1.4249,-1.3947,-1.3557,-1.3324,-1.3152,-1.307,-1.2978,-1.2881,-1.2827,-1.2779,-1.2676,-1.2573,-1.2377,-1.213,-1.2022,-1.1972,-1.1923,-1.1823,-1.1823,-1.1823,-1.1873,-1.1873,-1.1877,-1.1773,-1.1719,-1.1569,-1.1318,-1.1158,-1.0976,-1.0749,-1.0647,-1.0782,-1.0865,-1.0629,-1.0359,-1.0195,-0.9783,-0.9463,-0.9017,-0.8509,-0.8114,-0.7719,-0.7132,-0.6675,-0.6284,-0.5956,-0.5557,-0.5359,-0.5156,-0.5025,-0.4897,-0.4962,-0.5092,-0.5224,-0.5291,-0.5291,-0.5359,-0.5427,-0.5427,-0.5427,-0.5427,-0.5427,-0.5427,-0.1734,-0.2849,-0.4124,-0.5171,-0.5887,-0.6485,-0.6982,-0.7416,-0.7952,-0.8318,-0.848,-0.8794,-0.9057,-0.9204,-0.951,-0.9777,-1.0098,-1.0514,-1.082,-1.112,-1.1528,-1.1832,-1.2081,-1.2377,-1.2583,-1.2764,-1.304,-1.342,-1.3758,-1.4145,-1.4477,-1.4817,-1.5216,-1.5474,-1.5513,-1.5691,-1.5875,-1.61,-1.6194,-1.6275,-1.6392,-1.6436,-1.6392,-1.6275,-1.6194,-1.6057,-1.583,-1.5608,-1.5435,-1.5267,-1.496,-1.4592,-1.4114,-1.3863,-1.361,-1.3367,-1.3233,-1.3152,-1.3065,-1.2973,-1.2881,-1.2832,-1.2783,-1.2725,-1.2573,-1.2323,-1.218,-1.213,-1.2081,-1.2026,-1.1977,-1.1977,-1.1977,-1.1927,-1.1832,-1.1723,-1.1623,-1.1335,-1.1036,-1.09,-1.0781,-1.0659,-1.053,-1.0517,-1.0516,-1.0424,-1.0204,-0.9913,-0.9466,-0.9081,-0.863,-0.8182,-0.7852,-0.7396,-0.6872,-0.6414,-0.6022,-0.569,-0.5359,-0.5093,-0.4892,-0.4761,-0.4629,-0.4762,-0.4894,-0.5025,-0.509,-0.5155,-0.5223,-0.5359,-0.5427,-0.5427,-0.5427,-0.5427,-0.5427,-0.1478,-0.2461,-0.4045,-0.5119,-0.5723,-0.6322,-0.682,-0.7314,-0.7791,-0.8159,-0.8424,-0.8844,-0.9106,-0.9256,-0.9569,-0.9884,-1.0154,-1.0616,-1.0922,-1.1221,-1.1523,-1.1882,-1.218,-1.2426,-1.2676,-1.2861,-1.3233,-1.3615,-1.4015,-1.4337,-1.4621,-1.4863,-1.5255,-1.5513,-1.5513,-1.5697,-1.5925,-1.615,-1.6194,-1.6275,-1.6392,-1.6479,-1.6392,-1.6275,-1.615,-1.6057,-1.583,-1.5608,-1.548,-1.5306,-1.5006,-1.4581,-1.4203,-1.3962,-1.3758,-1.3515,-1.3372,-1.3228,-1.3147,-1.3065,-1.2978,-1.2934,-1.2881,-1.2774,-1.2779,-1.2534,-1.2377,-1.2328,-1.2234,-1.218,-1.2076,-1.2026,-1.1972,-1.1923,-1.1773,-1.1623,-1.1472,-1.1263,-1.1054,-1.0894,-1.0844,-1.0882,-1.0723,-1.0468,-1.0483,-1.0331,-1.0091,-0.9658,-0.9148,-0.8697,-0.8247,-0.7792,-0.7461,-0.7136,-0.6613,-0.6152,-0.5692,-0.5425,-0.5093,-0.4827,-0.4563,-0.4495,-0.4428,-0.4561,-0.4694,-0.4892,-0.4957,-0.5022,-0.5156,-0.5359,-0.536,-0.5427,-0.5427,-0.5427,-0.5427,-0.1215,-0.2133,-0.374,-0.4849,-0.5565,-0.6164,-0.6712,-0.7255,-0.7566,-0.799,-0.8421,-0.8949,-0.9155,-0.9364,-0.9732,-1.0051,-1.0364,-1.0671,-1.1023,-1.1322,-1.1623,-1.1981,-1.2283,-1.2485,-1.2774,-1.3055,-1.3377,-1.3673,-1.402,-1.4343,-1.4667,-1.4863,-1.517,-1.5519,-1.5564,-1.5703,-1.5937,-1.6106,-1.6188,-1.6312,-1.6399,-1.6485,-1.6405,-1.6275,-1.6194,-1.6063,-1.583,-1.5647,-1.5564,-1.5345,-1.504,-1.4667,-1.4332,-1.4098,-1.391,-1.3663,-1.3515,-1.3367,-1.3271,-1.3147,-1.3113,-1.3075,-1.2973,-1.2925,-1.2886,-1.2783,-1.2578,-1.2431,-1.2332,-1.2229,-1.2126,-1.2026,-1.1972,-1.1868,-1.1718,-1.1569,-1.1365,-1.1227,-1.1074,-1.095,-1.095,-1.1049,-1.0784,-1.0509,-1.0332,-1.0166,-0.9853,-0.9341,-0.8891,-0.8439,-0.7919,-0.7463,-0.7071,-0.6679,-0.6352,-0.5956,-0.5493,-0.5161,-0.4897,-0.4564,-0.4298,-0.4228,-0.4228,-0.4428,-0.4561,-0.4626,-0.4826,-0.4957,-0.516,-0.5292,-0.536,-0.5427,-0.5427,-0.5427,-0.5427,-0.1069,-0.2559,-0.3739,-0.4622,-0.5232,-0.5941,-0.6593,-0.7136,-0.7515,-0.794,-0.8424,-0.8847,-0.911,-0.926,-0.9736,-1.0106,-1.0371,-1.0726,-1.1129,-1.1477,-1.1723,-1.2081,-1.2431,-1.2622,-1.2856,-1.319,-1.3472,-1.3716,-1.402,-1.4395,-1.4673,-1.4822,-1.5249,-1.5507,-1.5513,-1.5697,-1.5881,-1.605,-1.6144,-1.6231,-1.6362,-1.6405,-1.6368,-1.6281,-1.6194,-1.6013,-1.583,-1.5709,-1.562,-1.539,-1.508,-1.4708,-1.4425,-1.4233,-1.4046,-1.3858,-1.3663,-1.3515,-1.3425,-1.3276,-1.3195,-1.3118,-1.3022,-1.2983,-1.2939,-1.2886,-1.2686,-1.248,-1.2382,-1.2278,-1.2126,-1.1977,-1.1882,-1.1773,-1.1627,-1.1536,-1.1378,-1.1353,-1.1332,-1.1175,-1.1064,-1.096,-1.0763,-1.0496,-1.0355,-1.011,-0.9661,-0.9148,-0.8762,-0.8244,-0.7659,-0.7202,-0.6745,-0.635,-0.602,-0.5692,-0.5296,-0.4964,-0.4632,-0.4298,-0.403,-0.3894,-0.396,-0.4228,-0.4228,-0.4295,-0.4493,-0.4826,-0.5025,-0.5158,-0.536,-0.5427,-0.5427,-0.5427,-0.5427]}]]